<?xml version="1.0" encoding="UTF-8" standalone="no" ?>
<gpx xmlns="http://www.topografix.com/GPX/1/1" xmlns:xsi="http://www.w3.org/2001/XMLSchema-instance" xsi:schemaLocation="http://www.topografix.com/GPX/1/1 http://www.topografix.com/GPX/1/1/gpx.xsd" version="1.1" creator="VisuGPX - https://www.visugpx.com">
  <metadata>
    <name>Penyes Altes (Greixer)</name>
  </metadata>
  <trk>
    <name><![CDATA[2024-11-03 Penyes Altes (Greixer)]]></name>
    <trkseg>
      <trkpt lat="42.28118" lon="1.84923">
        <ele>1020.2</ele>
        <time>2024-11-03T07:51:25Z</time>
      </trkpt>
      <trkpt lat="42.28118" lon="1.84923">
        <ele>1020.2</ele>
        <time>2024-11-03T07:51:26Z</time>
      </trkpt>
      <trkpt lat="42.28121" lon="1.84922">
        <ele>1020.81</ele>
        <time>2024-11-03T07:51:39Z</time>
      </trkpt>
      <trkpt lat="42.2812" lon="1.84915">
        <ele>1021.7</ele>
        <time>2024-11-03T07:52:00Z</time>
      </trkpt>
      <trkpt lat="42.28126" lon="1.84912">
        <ele>1022.47</ele>
        <time>2024-11-03T07:52:13Z</time>
      </trkpt>
      <trkpt lat="42.28136" lon="1.84904">
        <ele>1024.03</ele>
        <time>2024-11-03T07:52:29Z</time>
      </trkpt>
      <trkpt lat="42.28146" lon="1.84895">
        <ele>1026.33</ele>
        <time>2024-11-03T07:52:44Z</time>
      </trkpt>
      <trkpt lat="42.28159" lon="1.84885">
        <ele>1027.05</ele>
        <time>2024-11-03T07:53:00Z</time>
      </trkpt>
      <trkpt lat="42.28169" lon="1.84879">
        <ele>1027.73</ele>
        <time>2024-11-03T07:53:18Z</time>
      </trkpt>
      <trkpt lat="42.28173" lon="1.8487">
        <ele>1027.91</ele>
        <time>2024-11-03T07:53:28Z</time>
      </trkpt>
      <trkpt lat="42.28177" lon="1.84856">
        <ele>1029.01</ele>
        <time>2024-11-03T07:53:40Z</time>
      </trkpt>
      <trkpt lat="42.28188" lon="1.84846">
        <ele>1030.58</ele>
        <time>2024-11-03T07:53:58Z</time>
      </trkpt>
      <trkpt lat="42.28199" lon="1.84834">
        <ele>1032.84</ele>
        <time>2024-11-03T07:54:16Z</time>
      </trkpt>
      <trkpt lat="42.28209" lon="1.84817">
        <ele>1036.14</ele>
        <time>2024-11-03T07:54:36Z</time>
      </trkpt>
      <trkpt lat="42.28219" lon="1.84802">
        <ele>1038</ele>
        <time>2024-11-03T07:54:56Z</time>
      </trkpt>
      <trkpt lat="42.28224" lon="1.84783">
        <ele>1040.49</ele>
        <time>2024-11-03T07:55:16Z</time>
      </trkpt>
      <trkpt lat="42.28229" lon="1.84761">
        <ele>1042.36</ele>
        <time>2024-11-03T07:55:35Z</time>
      </trkpt>
      <trkpt lat="42.28237" lon="1.84741">
        <ele>1044.83</ele>
        <time>2024-11-03T07:55:57Z</time>
      </trkpt>
      <trkpt lat="42.28248" lon="1.84725">
        <ele>1046.17</ele>
        <time>2024-11-03T07:56:16Z</time>
      </trkpt>
      <trkpt lat="42.28255" lon="1.84711">
        <ele>1048.48</ele>
        <time>2024-11-03T07:56:31Z</time>
      </trkpt>
      <trkpt lat="42.28267" lon="1.847">
        <ele>1050.93</ele>
        <time>2024-11-03T07:56:50Z</time>
      </trkpt>
      <trkpt lat="42.28279" lon="1.84687">
        <ele>1052.73</ele>
        <time>2024-11-03T07:57:08Z</time>
      </trkpt>
      <trkpt lat="42.28295" lon="1.84686">
        <ele>1055.43</ele>
        <time>2024-11-03T07:57:26Z</time>
      </trkpt>
      <trkpt lat="42.28307" lon="1.84683">
        <ele>1056.65</ele>
        <time>2024-11-03T07:57:40Z</time>
      </trkpt>
      <trkpt lat="42.28322" lon="1.84675">
        <ele>1059.55</ele>
        <time>2024-11-03T07:57:59Z</time>
      </trkpt>
      <trkpt lat="42.28332" lon="1.84683">
        <ele>1061.41</ele>
        <time>2024-11-03T07:58:14Z</time>
      </trkpt>
      <trkpt lat="42.28332" lon="1.84705">
        <ele>1064.69</ele>
        <time>2024-11-03T07:58:33Z</time>
      </trkpt>
      <trkpt lat="42.28334" lon="1.84728">
        <ele>1066.05</ele>
        <time>2024-11-03T07:58:52Z</time>
      </trkpt>
      <trkpt lat="42.28336" lon="1.84744">
        <ele>1068.65</ele>
        <time>2024-11-03T07:59:09Z</time>
      </trkpt>
      <trkpt lat="42.28346" lon="1.84764">
        <ele>1071.63</ele>
        <time>2024-11-03T07:59:31Z</time>
      </trkpt>
      <trkpt lat="42.28353" lon="1.84781">
        <ele>1073.3</ele>
        <time>2024-11-03T07:59:51Z</time>
      </trkpt>
      <trkpt lat="42.28358" lon="1.84794">
        <ele>1074.91</ele>
        <time>2024-11-03T08:00:09Z</time>
      </trkpt>
      <trkpt lat="42.28373" lon="1.84798">
        <ele>1075.88</ele>
        <time>2024-11-03T08:00:25Z</time>
      </trkpt>
      <trkpt lat="42.28375" lon="1.84798">
        <ele>1076.43</ele>
        <time>2024-11-03T08:00:27Z</time>
      </trkpt>
      <trkpt lat="42.2839" lon="1.84804">
        <ele>1078.34</ele>
        <time>2024-11-03T08:00:46Z</time>
      </trkpt>
      <trkpt lat="42.28395" lon="1.84805">
        <ele>1079.08</ele>
        <time>2024-11-03T08:01:00Z</time>
      </trkpt>
      <trkpt lat="42.28407" lon="1.84805">
        <ele>1080.67</ele>
        <time>2024-11-03T08:01:17Z</time>
      </trkpt>
      <trkpt lat="42.28423" lon="1.84809">
        <ele>1082.18</ele>
        <time>2024-11-03T08:01:35Z</time>
      </trkpt>
      <trkpt lat="42.28437" lon="1.8481">
        <ele>1084.15</ele>
        <time>2024-11-03T08:01:51Z</time>
      </trkpt>
      <trkpt lat="42.28458" lon="1.84807">
        <ele>1085.15</ele>
        <time>2024-11-03T08:02:12Z</time>
      </trkpt>
      <trkpt lat="42.28465" lon="1.848">
        <ele>1085.99</ele>
        <time>2024-11-03T08:02:22Z</time>
      </trkpt>
      <trkpt lat="42.28475" lon="1.84783">
        <ele>1087.65</ele>
        <time>2024-11-03T08:02:39Z</time>
      </trkpt>
      <trkpt lat="42.28484" lon="1.84765">
        <ele>1089.38</ele>
        <time>2024-11-03T08:02:57Z</time>
      </trkpt>
      <trkpt lat="42.28494" lon="1.84753">
        <ele>1090.32</ele>
        <time>2024-11-03T08:03:12Z</time>
      </trkpt>
      <trkpt lat="42.28509" lon="1.84739">
        <ele>1092.94</ele>
        <time>2024-11-03T08:03:31Z</time>
      </trkpt>
      <trkpt lat="42.28519" lon="1.84725">
        <ele>1095.17</ele>
        <time>2024-11-03T08:03:46Z</time>
      </trkpt>
      <trkpt lat="42.28529" lon="1.84712">
        <ele>1096.12</ele>
        <time>2024-11-03T08:04:01Z</time>
      </trkpt>
      <trkpt lat="42.28541" lon="1.84697">
        <ele>1098.55</ele>
        <time>2024-11-03T08:04:21Z</time>
      </trkpt>
      <trkpt lat="42.2855" lon="1.84682">
        <ele>1101.22</ele>
        <time>2024-11-03T08:04:36Z</time>
      </trkpt>
      <trkpt lat="42.28559" lon="1.84664">
        <ele>1103.11</ele>
        <time>2024-11-03T08:04:53Z</time>
      </trkpt>
      <trkpt lat="42.28562" lon="1.84658">
        <ele>1104.07</ele>
        <time>2024-11-03T08:04:59Z</time>
      </trkpt>
      <trkpt lat="42.28565" lon="1.84657">
        <ele>1103.59</ele>
        <time>2024-11-03T08:05:03Z</time>
      </trkpt>
      <trkpt lat="42.28569" lon="1.84659">
        <ele>1104.89</ele>
        <time>2024-11-03T08:05:19Z</time>
      </trkpt>
      <trkpt lat="42.2857" lon="1.84657">
        <ele>1104.7</ele>
        <time>2024-11-03T08:05:27Z</time>
      </trkpt>
      <trkpt lat="42.28571" lon="1.84654">
        <ele>1104.53</ele>
        <time>2024-11-03T08:05:30Z</time>
      </trkpt>
      <trkpt lat="42.28572" lon="1.84652">
        <ele>1104.88</ele>
        <time>2024-11-03T08:05:32Z</time>
      </trkpt>
      <trkpt lat="42.28582" lon="1.84632">
        <ele>1104.95</ele>
        <time>2024-11-03T08:05:50Z</time>
      </trkpt>
      <trkpt lat="42.28589" lon="1.84614">
        <ele>1106.05</ele>
        <time>2024-11-03T08:06:07Z</time>
      </trkpt>
      <trkpt lat="42.28598" lon="1.84589">
        <ele>1107.28</ele>
        <time>2024-11-03T08:06:26Z</time>
      </trkpt>
      <trkpt lat="42.28605" lon="1.8457">
        <ele>1107.61</ele>
        <time>2024-11-03T08:06:41Z</time>
      </trkpt>
      <trkpt lat="42.2861" lon="1.84552">
        <ele>1108.83</ele>
        <time>2024-11-03T08:06:59Z</time>
      </trkpt>
      <trkpt lat="42.28613" lon="1.84547">
        <ele>1108.97</ele>
        <time>2024-11-03T08:07:05Z</time>
      </trkpt>
      <trkpt lat="42.28625" lon="1.84536">
        <ele>1110.91</ele>
        <time>2024-11-03T08:07:22Z</time>
      </trkpt>
      <trkpt lat="42.2864" lon="1.84535">
        <ele>1112.59</ele>
        <time>2024-11-03T08:07:39Z</time>
      </trkpt>
      <trkpt lat="42.28644" lon="1.84538">
        <ele>1112.45</ele>
        <time>2024-11-03T08:07:54Z</time>
      </trkpt>
      <trkpt lat="42.28641" lon="1.84541">
        <ele>1112.24</ele>
        <time>2024-11-03T08:08:22Z</time>
      </trkpt>
      <trkpt lat="42.2864" lon="1.84541">
        <ele>1112.54</ele>
        <time>2024-11-03T08:08:43Z</time>
      </trkpt>
      <trkpt lat="42.28635" lon="1.84548">
        <ele>1113.29</ele>
        <time>2024-11-03T08:08:51Z</time>
      </trkpt>
      <trkpt lat="42.28632" lon="1.84569">
        <ele>1114.32</ele>
        <time>2024-11-03T08:09:07Z</time>
      </trkpt>
      <trkpt lat="42.28633" lon="1.84577">
        <ele>1115.57</ele>
        <time>2024-11-03T08:09:21Z</time>
      </trkpt>
      <trkpt lat="42.28633" lon="1.84579">
        <ele>1115.53</ele>
        <time>2024-11-03T08:09:53Z</time>
      </trkpt>
      <trkpt lat="42.28633" lon="1.84578">
        <ele>1115.14</ele>
        <time>2024-11-03T08:10:18Z</time>
      </trkpt>
      <trkpt lat="42.28633" lon="1.84579">
        <ele>1115.1</ele>
        <time>2024-11-03T08:10:36Z</time>
      </trkpt>
      <trkpt lat="42.28631" lon="1.84579">
        <ele>1115.48</ele>
        <time>2024-11-03T08:10:53Z</time>
      </trkpt>
      <trkpt lat="42.28632" lon="1.84578">
        <ele>1115.65</ele>
        <time>2024-11-03T08:11:17Z</time>
      </trkpt>
      <trkpt lat="42.28632" lon="1.84593">
        <ele>1116.11</ele>
        <time>2024-11-03T08:11:37Z</time>
      </trkpt>
      <trkpt lat="42.28632" lon="1.84596">
        <ele>1116.61</ele>
        <time>2024-11-03T08:11:40Z</time>
      </trkpt>
      <trkpt lat="42.28629" lon="1.84608">
        <ele>1115.76</ele>
        <time>2024-11-03T08:11:49Z</time>
      </trkpt>
      <trkpt lat="42.28624" lon="1.84626">
        <ele>1116.43</ele>
        <time>2024-11-03T08:12:05Z</time>
      </trkpt>
      <trkpt lat="42.28618" lon="1.84649">
        <ele>1117.27</ele>
        <time>2024-11-03T08:12:21Z</time>
      </trkpt>
      <trkpt lat="42.28617" lon="1.84671">
        <ele>1117.45</ele>
        <time>2024-11-03T08:12:36Z</time>
      </trkpt>
      <trkpt lat="42.28609" lon="1.84689">
        <ele>1117.99</ele>
        <time>2024-11-03T08:12:52Z</time>
      </trkpt>
      <trkpt lat="42.28608" lon="1.84691">
        <ele>1118.34</ele>
        <time>2024-11-03T08:12:54Z</time>
      </trkpt>
      <trkpt lat="42.28597" lon="1.84714">
        <ele>1118.59</ele>
        <time>2024-11-03T08:13:10Z</time>
      </trkpt>
      <trkpt lat="42.28593" lon="1.84735">
        <ele>1120.19</ele>
        <time>2024-11-03T08:13:25Z</time>
      </trkpt>
      <trkpt lat="42.2859" lon="1.84759">
        <ele>1122.74</ele>
        <time>2024-11-03T08:13:44Z</time>
      </trkpt>
      <trkpt lat="42.28588" lon="1.84781">
        <ele>1124.8</ele>
        <time>2024-11-03T08:14:02Z</time>
      </trkpt>
      <trkpt lat="42.28587" lon="1.84806">
        <ele>1126.55</ele>
        <time>2024-11-03T08:14:20Z</time>
      </trkpt>
      <trkpt lat="42.28587" lon="1.84832">
        <ele>1124.41</ele>
        <time>2024-11-03T08:14:39Z</time>
      </trkpt>
      <trkpt lat="42.28585" lon="1.84863">
        <ele>1123.41</ele>
        <time>2024-11-03T08:14:59Z</time>
      </trkpt>
      <trkpt lat="42.28589" lon="1.84881">
        <ele>1125.07</ele>
        <time>2024-11-03T08:15:16Z</time>
      </trkpt>
      <trkpt lat="42.28594" lon="1.84883">
        <ele>1126.67</ele>
        <time>2024-11-03T08:15:33Z</time>
      </trkpt>
      <trkpt lat="42.28596" lon="1.84887">
        <ele>1127.97</ele>
        <time>2024-11-03T08:15:47Z</time>
      </trkpt>
      <trkpt lat="42.286" lon="1.84896">
        <ele>1129.91</ele>
        <time>2024-11-03T08:16:04Z</time>
      </trkpt>
      <trkpt lat="42.28604" lon="1.84893">
        <ele>1133.02</ele>
        <time>2024-11-03T08:16:20Z</time>
      </trkpt>
      <trkpt lat="42.2861" lon="1.84885">
        <ele>1134.98</ele>
        <time>2024-11-03T08:16:40Z</time>
      </trkpt>
      <trkpt lat="42.28611" lon="1.84875">
        <ele>1135.71</ele>
        <time>2024-11-03T08:17:07Z</time>
      </trkpt>
      <trkpt lat="42.28613" lon="1.84865">
        <ele>1138.24</ele>
        <time>2024-11-03T08:17:24Z</time>
      </trkpt>
      <trkpt lat="42.28619" lon="1.84856">
        <ele>1140.87</ele>
        <time>2024-11-03T08:17:46Z</time>
      </trkpt>
      <trkpt lat="42.28623" lon="1.84854">
        <ele>1143.62</ele>
        <time>2024-11-03T08:18:00Z</time>
      </trkpt>
      <trkpt lat="42.28634" lon="1.8485">
        <ele>1146.77</ele>
        <time>2024-11-03T08:18:20Z</time>
      </trkpt>
      <trkpt lat="42.28637" lon="1.84851">
        <ele>1149.37</ele>
        <time>2024-11-03T08:18:36Z</time>
      </trkpt>
      <trkpt lat="42.28643" lon="1.84847">
        <ele>1151.87</ele>
        <time>2024-11-03T08:18:56Z</time>
      </trkpt>
      <trkpt lat="42.28651" lon="1.84842">
        <ele>1154.86</ele>
        <time>2024-11-03T08:19:16Z</time>
      </trkpt>
      <trkpt lat="42.28657" lon="1.84836">
        <ele>1157.72</ele>
        <time>2024-11-03T08:19:36Z</time>
      </trkpt>
      <trkpt lat="42.28663" lon="1.84832">
        <ele>1160.41</ele>
        <time>2024-11-03T08:19:54Z</time>
      </trkpt>
      <trkpt lat="42.28667" lon="1.84827">
        <ele>1164.05</ele>
        <time>2024-11-03T08:20:14Z</time>
      </trkpt>
      <trkpt lat="42.28675" lon="1.84814">
        <ele>1166.68</ele>
        <time>2024-11-03T08:20:34Z</time>
      </trkpt>
      <trkpt lat="42.28681" lon="1.84811">
        <ele>1169.46</ele>
        <time>2024-11-03T08:20:53Z</time>
      </trkpt>
      <trkpt lat="42.2869" lon="1.84806">
        <ele>1172.12</ele>
        <time>2024-11-03T08:21:11Z</time>
      </trkpt>
      <trkpt lat="42.28696" lon="1.84802">
        <ele>1174.22</ele>
        <time>2024-11-03T08:21:29Z</time>
      </trkpt>
      <trkpt lat="42.28703" lon="1.84798">
        <ele>1177.39</ele>
        <time>2024-11-03T08:21:45Z</time>
      </trkpt>
      <trkpt lat="42.28706" lon="1.84797">
        <ele>1178.17</ele>
        <time>2024-11-03T08:21:54Z</time>
      </trkpt>
      <trkpt lat="42.28715" lon="1.84788">
        <ele>1181.59</ele>
        <time>2024-11-03T08:22:16Z</time>
      </trkpt>
      <trkpt lat="42.28724" lon="1.84783">
        <ele>1183.49</ele>
        <time>2024-11-03T08:22:35Z</time>
      </trkpt>
      <trkpt lat="42.28729" lon="1.84773">
        <ele>1185.82</ele>
        <time>2024-11-03T08:22:51Z</time>
      </trkpt>
      <trkpt lat="42.28735" lon="1.84763">
        <ele>1188.88</ele>
        <time>2024-11-03T08:23:09Z</time>
      </trkpt>
      <trkpt lat="42.28743" lon="1.84758">
        <ele>1191.94</ele>
        <time>2024-11-03T08:23:28Z</time>
      </trkpt>
      <trkpt lat="42.28751" lon="1.84754">
        <ele>1194.7</ele>
        <time>2024-11-03T08:23:47Z</time>
      </trkpt>
      <trkpt lat="42.28762" lon="1.84748">
        <ele>1197.77</ele>
        <time>2024-11-03T08:24:07Z</time>
      </trkpt>
      <trkpt lat="42.2877" lon="1.84743">
        <ele>1199.7</ele>
        <time>2024-11-03T08:24:22Z</time>
      </trkpt>
      <trkpt lat="42.28774" lon="1.84744">
        <ele>1201.68</ele>
        <time>2024-11-03T08:24:40Z</time>
      </trkpt>
      <trkpt lat="42.28786" lon="1.84747">
        <ele>1203.94</ele>
        <time>2024-11-03T08:24:59Z</time>
      </trkpt>
      <trkpt lat="42.28794" lon="1.8475">
        <ele>1207.35</ele>
        <time>2024-11-03T08:25:15Z</time>
      </trkpt>
      <trkpt lat="42.28806" lon="1.84742">
        <ele>1209.8</ele>
        <time>2024-11-03T08:25:38Z</time>
      </trkpt>
      <trkpt lat="42.28815" lon="1.84738">
        <ele>1212.81</ele>
        <time>2024-11-03T08:25:57Z</time>
      </trkpt>
      <trkpt lat="42.28826" lon="1.84726">
        <ele>1215.63</ele>
        <time>2024-11-03T08:26:19Z</time>
      </trkpt>
      <trkpt lat="42.28837" lon="1.84717">
        <ele>1217.81</ele>
        <time>2024-11-03T08:26:42Z</time>
      </trkpt>
      <trkpt lat="42.28848" lon="1.84709">
        <ele>1219.34</ele>
        <time>2024-11-03T08:27:00Z</time>
      </trkpt>
      <trkpt lat="42.28862" lon="1.84707">
        <ele>1221.24</ele>
        <time>2024-11-03T08:27:20Z</time>
      </trkpt>
      <trkpt lat="42.28875" lon="1.84715">
        <ele>1223.33</ele>
        <time>2024-11-03T08:27:39Z</time>
      </trkpt>
      <trkpt lat="42.2888" lon="1.8472">
        <ele>1226.7</ele>
        <time>2024-11-03T08:27:59Z</time>
      </trkpt>
      <trkpt lat="42.28882" lon="1.84728">
        <ele>1229.37</ele>
        <time>2024-11-03T08:28:19Z</time>
      </trkpt>
      <trkpt lat="42.28887" lon="1.84734">
        <ele>1232.82</ele>
        <time>2024-11-03T08:28:36Z</time>
      </trkpt>
      <trkpt lat="42.28895" lon="1.84737">
        <ele>1234.74</ele>
        <time>2024-11-03T08:28:57Z</time>
      </trkpt>
      <trkpt lat="42.28899" lon="1.84739">
        <ele>1237.99</ele>
        <time>2024-11-03T08:29:15Z</time>
      </trkpt>
      <trkpt lat="42.28902" lon="1.84752">
        <ele>1240.42</ele>
        <time>2024-11-03T08:29:35Z</time>
      </trkpt>
      <trkpt lat="42.28905" lon="1.8476">
        <ele>1242.96</ele>
        <time>2024-11-03T08:29:55Z</time>
      </trkpt>
      <trkpt lat="42.28913" lon="1.84762">
        <ele>1246.52</ele>
        <time>2024-11-03T08:30:15Z</time>
      </trkpt>
      <trkpt lat="42.28919" lon="1.84756">
        <ele>1248.84</ele>
        <time>2024-11-03T08:30:36Z</time>
      </trkpt>
      <trkpt lat="42.28921" lon="1.84744">
        <ele>1251.83</ele>
        <time>2024-11-03T08:30:56Z</time>
      </trkpt>
      <trkpt lat="42.28925" lon="1.84737">
        <ele>1252.62</ele>
        <time>2024-11-03T08:31:14Z</time>
      </trkpt>
      <trkpt lat="42.28926" lon="1.84737">
        <ele>1252.12</ele>
        <time>2024-11-03T08:31:41Z</time>
      </trkpt>
      <trkpt lat="42.28925" lon="1.84737">
        <ele>1252.57</ele>
        <time>2024-11-03T08:32:04Z</time>
      </trkpt>
      <trkpt lat="42.28925" lon="1.84737">
        <ele>1251.27</ele>
        <time>2024-11-03T08:32:28Z</time>
      </trkpt>
      <trkpt lat="42.28926" lon="1.84739">
        <ele>1251.36</ele>
        <time>2024-11-03T08:33:08Z</time>
      </trkpt>
      <trkpt lat="42.28925" lon="1.84739">
        <ele>1251.52</ele>
        <time>2024-11-03T08:33:47Z</time>
      </trkpt>
      <trkpt lat="42.28925" lon="1.84739">
        <ele>1252</ele>
        <time>2024-11-03T08:34:35Z</time>
      </trkpt>
      <trkpt lat="42.28926" lon="1.84737">
        <ele>1251.76</ele>
        <time>2024-11-03T08:35:04Z</time>
      </trkpt>
      <trkpt lat="42.28925" lon="1.84735">
        <ele>1252.65</ele>
        <time>2024-11-03T08:35:27Z</time>
      </trkpt>
      <trkpt lat="42.28928" lon="1.84729">
        <ele>1252.62</ele>
        <time>2024-11-03T08:35:49Z</time>
      </trkpt>
      <trkpt lat="42.28937" lon="1.84724">
        <ele>1254.61</ele>
        <time>2024-11-03T08:36:06Z</time>
      </trkpt>
      <trkpt lat="42.2895" lon="1.8472">
        <ele>1257.48</ele>
        <time>2024-11-03T08:36:27Z</time>
      </trkpt>
      <trkpt lat="42.2896" lon="1.84713">
        <ele>1260.26</ele>
        <time>2024-11-03T08:36:47Z</time>
      </trkpt>
      <trkpt lat="42.28964" lon="1.84718">
        <ele>1263.14</ele>
        <time>2024-11-03T08:37:07Z</time>
      </trkpt>
      <trkpt lat="42.28964" lon="1.84727">
        <ele>1265.72</ele>
        <time>2024-11-03T08:37:26Z</time>
      </trkpt>
      <trkpt lat="42.28962" lon="1.8474">
        <ele>1267.8</ele>
        <time>2024-11-03T08:37:43Z</time>
      </trkpt>
      <trkpt lat="42.2896" lon="1.8475">
        <ele>1269.07</ele>
        <time>2024-11-03T08:38:01Z</time>
      </trkpt>
      <trkpt lat="42.28959" lon="1.84761">
        <ele>1271.33</ele>
        <time>2024-11-03T08:38:18Z</time>
      </trkpt>
      <trkpt lat="42.28966" lon="1.84759">
        <ele>1274.61</ele>
        <time>2024-11-03T08:38:40Z</time>
      </trkpt>
      <trkpt lat="42.28968" lon="1.84766">
        <ele>1276.6</ele>
        <time>2024-11-03T08:38:56Z</time>
      </trkpt>
      <trkpt lat="42.28974" lon="1.84765">
        <ele>1277.92</ele>
        <time>2024-11-03T08:39:12Z</time>
      </trkpt>
      <trkpt lat="42.28978" lon="1.84763">
        <ele>1280.86</ele>
        <time>2024-11-03T08:39:31Z</time>
      </trkpt>
      <trkpt lat="42.28987" lon="1.84758">
        <ele>1283.3</ele>
        <time>2024-11-03T08:39:51Z</time>
      </trkpt>
      <trkpt lat="42.28988" lon="1.84759">
        <ele>1284.53</ele>
        <time>2024-11-03T08:39:57Z</time>
      </trkpt>
      <trkpt lat="42.28994" lon="1.84761">
        <ele>1285.59</ele>
        <time>2024-11-03T08:40:13Z</time>
      </trkpt>
      <trkpt lat="42.29004" lon="1.8476">
        <ele>1288.59</ele>
        <time>2024-11-03T08:40:33Z</time>
      </trkpt>
      <trkpt lat="42.29012" lon="1.84766">
        <ele>1291.25</ele>
        <time>2024-11-03T08:40:54Z</time>
      </trkpt>
      <trkpt lat="42.2901" lon="1.84779">
        <ele>1293.58</ele>
        <time>2024-11-03T08:41:16Z</time>
      </trkpt>
      <trkpt lat="42.29016" lon="1.84779">
        <ele>1296.68</ele>
        <time>2024-11-03T08:41:35Z</time>
      </trkpt>
      <trkpt lat="42.29021" lon="1.84786">
        <ele>1298.77</ele>
        <time>2024-11-03T08:41:55Z</time>
      </trkpt>
      <trkpt lat="42.29024" lon="1.84795">
        <ele>1301.06</ele>
        <time>2024-11-03T08:42:12Z</time>
      </trkpt>
      <trkpt lat="42.29023" lon="1.84807">
        <ele>1304.13</ele>
        <time>2024-11-03T08:42:30Z</time>
      </trkpt>
      <trkpt lat="42.29024" lon="1.84817">
        <ele>1306.02</ele>
        <time>2024-11-03T08:42:48Z</time>
      </trkpt>
      <trkpt lat="42.29035" lon="1.84812">
        <ele>1307.89</ele>
        <time>2024-11-03T08:43:06Z</time>
      </trkpt>
      <trkpt lat="42.2904" lon="1.84801">
        <ele>1310.86</ele>
        <time>2024-11-03T08:43:25Z</time>
      </trkpt>
      <trkpt lat="42.29044" lon="1.8479">
        <ele>1311.25</ele>
        <time>2024-11-03T08:43:36Z</time>
      </trkpt>
      <trkpt lat="42.29055" lon="1.84788">
        <ele>1313.77</ele>
        <time>2024-11-03T08:43:56Z</time>
      </trkpt>
      <trkpt lat="42.29065" lon="1.84793">
        <ele>1316.86</ele>
        <time>2024-11-03T08:44:13Z</time>
      </trkpt>
      <trkpt lat="42.29074" lon="1.84797">
        <ele>1317.94</ele>
        <time>2024-11-03T08:44:26Z</time>
      </trkpt>
      <trkpt lat="42.29077" lon="1.84799">
        <ele>1318.22</ele>
        <time>2024-11-03T08:44:30Z</time>
      </trkpt>
      <trkpt lat="42.29087" lon="1.84808">
        <ele>1320.05</ele>
        <time>2024-11-03T08:44:49Z</time>
      </trkpt>
      <trkpt lat="42.29102" lon="1.8481">
        <ele>1322.21</ele>
        <time>2024-11-03T08:45:11Z</time>
      </trkpt>
      <trkpt lat="42.29112" lon="1.84812">
        <ele>1325.39</ele>
        <time>2024-11-03T08:45:27Z</time>
      </trkpt>
      <trkpt lat="42.29127" lon="1.84809">
        <ele>1326.05</ele>
        <time>2024-11-03T08:45:46Z</time>
      </trkpt>
      <trkpt lat="42.29143" lon="1.84814">
        <ele>1328.15</ele>
        <time>2024-11-03T08:46:05Z</time>
      </trkpt>
      <trkpt lat="42.29158" lon="1.84814">
        <ele>1329.8</ele>
        <time>2024-11-03T08:46:23Z</time>
      </trkpt>
      <trkpt lat="42.29165" lon="1.8482">
        <ele>1332.17</ele>
        <time>2024-11-03T08:46:41Z</time>
      </trkpt>
      <trkpt lat="42.29183" lon="1.84823">
        <ele>1332.71</ele>
        <time>2024-11-03T08:46:58Z</time>
      </trkpt>
      <trkpt lat="42.29201" lon="1.84823">
        <ele>1335.29</ele>
        <time>2024-11-03T08:47:19Z</time>
      </trkpt>
      <trkpt lat="42.29212" lon="1.84827">
        <ele>1336.88</ele>
        <time>2024-11-03T08:47:36Z</time>
      </trkpt>
      <trkpt lat="42.29227" lon="1.8483">
        <ele>1340.04</ele>
        <time>2024-11-03T08:47:56Z</time>
      </trkpt>
      <trkpt lat="42.29241" lon="1.84827">
        <ele>1342.95</ele>
        <time>2024-11-03T08:48:18Z</time>
      </trkpt>
      <trkpt lat="42.2925" lon="1.84819">
        <ele>1345.75</ele>
        <time>2024-11-03T08:48:39Z</time>
      </trkpt>
      <trkpt lat="42.29255" lon="1.84812">
        <ele>1348.91</ele>
        <time>2024-11-03T08:48:57Z</time>
      </trkpt>
      <trkpt lat="42.29266" lon="1.84808">
        <ele>1351.43</ele>
        <time>2024-11-03T08:49:22Z</time>
      </trkpt>
      <trkpt lat="42.29275" lon="1.84806">
        <ele>1354.64</ele>
        <time>2024-11-03T08:49:42Z</time>
      </trkpt>
      <trkpt lat="42.29276" lon="1.84794">
        <ele>1355.17</ele>
        <time>2024-11-03T08:49:57Z</time>
      </trkpt>
      <trkpt lat="42.29279" lon="1.84788">
        <ele>1356.6</ele>
        <time>2024-11-03T08:50:13Z</time>
      </trkpt>
      <trkpt lat="42.29285" lon="1.84786">
        <ele>1359.69</ele>
        <time>2024-11-03T08:50:34Z</time>
      </trkpt>
      <trkpt lat="42.29291" lon="1.84782">
        <ele>1362.89</ele>
        <time>2024-11-03T08:50:50Z</time>
      </trkpt>
      <trkpt lat="42.29297" lon="1.8478">
        <ele>1363.62</ele>
        <time>2024-11-03T08:51:07Z</time>
      </trkpt>
      <trkpt lat="42.29298" lon="1.84784">
        <ele>1366.4</ele>
        <time>2024-11-03T08:51:25Z</time>
      </trkpt>
      <trkpt lat="42.29305" lon="1.84784">
        <ele>1369.66</ele>
        <time>2024-11-03T08:51:41Z</time>
      </trkpt>
      <trkpt lat="42.29313" lon="1.84785">
        <ele>1372.22</ele>
        <time>2024-11-03T08:52:03Z</time>
      </trkpt>
      <trkpt lat="42.29314" lon="1.84792">
        <ele>1375.42</ele>
        <time>2024-11-03T08:52:21Z</time>
      </trkpt>
      <trkpt lat="42.29312" lon="1.84803">
        <ele>1378.13</ele>
        <time>2024-11-03T08:52:41Z</time>
      </trkpt>
      <trkpt lat="42.29315" lon="1.84813">
        <ele>1380.91</ele>
        <time>2024-11-03T08:53:00Z</time>
      </trkpt>
      <trkpt lat="42.29319" lon="1.84814">
        <ele>1382.55</ele>
        <time>2024-11-03T08:53:08Z</time>
      </trkpt>
      <trkpt lat="42.29327" lon="1.8482">
        <ele>1385.25</ele>
        <time>2024-11-03T08:53:28Z</time>
      </trkpt>
      <trkpt lat="42.29339" lon="1.84826">
        <ele>1387.57</ele>
        <time>2024-11-03T08:53:45Z</time>
      </trkpt>
      <trkpt lat="42.29348" lon="1.84833">
        <ele>1389.59</ele>
        <time>2024-11-03T08:54:03Z</time>
      </trkpt>
      <trkpt lat="42.29354" lon="1.84834">
        <ele>1391</ele>
        <time>2024-11-03T08:54:17Z</time>
      </trkpt>
      <trkpt lat="42.29361" lon="1.84826">
        <ele>1393.61</ele>
        <time>2024-11-03T08:54:34Z</time>
      </trkpt>
      <trkpt lat="42.29368" lon="1.84817">
        <ele>1396.12</ele>
        <time>2024-11-03T08:54:52Z</time>
      </trkpt>
      <trkpt lat="42.29378" lon="1.84814">
        <ele>1398.44</ele>
        <time>2024-11-03T08:55:07Z</time>
      </trkpt>
      <trkpt lat="42.29386" lon="1.84811">
        <ele>1400.37</ele>
        <time>2024-11-03T08:55:24Z</time>
      </trkpt>
      <trkpt lat="42.29393" lon="1.84813">
        <ele>1403.45</ele>
        <time>2024-11-03T08:55:39Z</time>
      </trkpt>
      <trkpt lat="42.294" lon="1.8481">
        <ele>1404.72</ele>
        <time>2024-11-03T08:55:55Z</time>
      </trkpt>
      <trkpt lat="42.29408" lon="1.8481">
        <ele>1407.64</ele>
        <time>2024-11-03T08:56:15Z</time>
      </trkpt>
      <trkpt lat="42.29415" lon="1.8481">
        <ele>1410.25</ele>
        <time>2024-11-03T08:56:29Z</time>
      </trkpt>
      <trkpt lat="42.29422" lon="1.84804">
        <ele>1412.3</ele>
        <time>2024-11-03T08:56:45Z</time>
      </trkpt>
      <trkpt lat="42.29429" lon="1.84799">
        <ele>1415.08</ele>
        <time>2024-11-03T08:57:02Z</time>
      </trkpt>
      <trkpt lat="42.29433" lon="1.848">
        <ele>1416.92</ele>
        <time>2024-11-03T08:57:17Z</time>
      </trkpt>
      <trkpt lat="42.29439" lon="1.84806">
        <ele>1419.99</ele>
        <time>2024-11-03T08:57:34Z</time>
      </trkpt>
      <trkpt lat="42.29447" lon="1.84803">
        <ele>1422.71</ele>
        <time>2024-11-03T08:57:51Z</time>
      </trkpt>
      <trkpt lat="42.29456" lon="1.848">
        <ele>1424.77</ele>
        <time>2024-11-03T08:58:10Z</time>
      </trkpt>
      <trkpt lat="42.29465" lon="1.84797">
        <ele>1426.87</ele>
        <time>2024-11-03T08:58:27Z</time>
      </trkpt>
      <trkpt lat="42.29473" lon="1.84794">
        <ele>1429.67</ele>
        <time>2024-11-03T08:58:46Z</time>
      </trkpt>
      <trkpt lat="42.29479" lon="1.8479">
        <ele>1432.93</ele>
        <time>2024-11-03T08:59:03Z</time>
      </trkpt>
      <trkpt lat="42.29486" lon="1.84784">
        <ele>1434.81</ele>
        <time>2024-11-03T08:59:21Z</time>
      </trkpt>
      <trkpt lat="42.29494" lon="1.84783">
        <ele>1437.79</ele>
        <time>2024-11-03T08:59:40Z</time>
      </trkpt>
      <trkpt lat="42.29503" lon="1.84776">
        <ele>1439.99</ele>
        <time>2024-11-03T08:59:58Z</time>
      </trkpt>
      <trkpt lat="42.29509" lon="1.84771">
        <ele>1443.06</ele>
        <time>2024-11-03T09:00:15Z</time>
      </trkpt>
      <trkpt lat="42.29515" lon="1.84767">
        <ele>1446.91</ele>
        <time>2024-11-03T09:00:35Z</time>
      </trkpt>
      <trkpt lat="42.29518" lon="1.8476">
        <ele>1448.14</ele>
        <time>2024-11-03T09:00:56Z</time>
      </trkpt>
      <trkpt lat="42.29518" lon="1.84758">
        <ele>1448.94</ele>
        <time>2024-11-03T09:01:16Z</time>
      </trkpt>
      <trkpt lat="42.29518" lon="1.84758">
        <ele>1447.94</ele>
        <time>2024-11-03T09:01:39Z</time>
      </trkpt>
      <trkpt lat="42.29519" lon="1.84759">
        <ele>1447.56</ele>
        <time>2024-11-03T09:02:16Z</time>
      </trkpt>
      <trkpt lat="42.29519" lon="1.8476">
        <ele>1448.34</ele>
        <time>2024-11-03T09:02:51Z</time>
      </trkpt>
      <trkpt lat="42.2952" lon="1.84756">
        <ele>1449.41</ele>
        <time>2024-11-03T09:03:05Z</time>
      </trkpt>
      <trkpt lat="42.2952" lon="1.84756">
        <ele>1449.14</ele>
        <time>2024-11-03T09:03:30Z</time>
      </trkpt>
      <trkpt lat="42.29519" lon="1.84757">
        <ele>1449.29</ele>
        <time>2024-11-03T09:03:56Z</time>
      </trkpt>
      <trkpt lat="42.29519" lon="1.84757">
        <ele>1449.56</ele>
        <time>2024-11-03T09:04:27Z</time>
      </trkpt>
      <trkpt lat="42.29519" lon="1.84756">
        <ele>1449.43</ele>
        <time>2024-11-03T09:04:53Z</time>
      </trkpt>
      <trkpt lat="42.29519" lon="1.84758">
        <ele>1449.75</ele>
        <time>2024-11-03T09:05:21Z</time>
      </trkpt>
      <trkpt lat="42.29519" lon="1.84757">
        <ele>1450.51</ele>
        <time>2024-11-03T09:05:52Z</time>
      </trkpt>
      <trkpt lat="42.29519" lon="1.84758">
        <ele>1450.71</ele>
        <time>2024-11-03T09:06:19Z</time>
      </trkpt>
      <trkpt lat="42.29519" lon="1.84757">
        <ele>1450.69</ele>
        <time>2024-11-03T09:06:43Z</time>
      </trkpt>
      <trkpt lat="42.29519" lon="1.84757">
        <ele>1450.85</ele>
        <time>2024-11-03T09:07:10Z</time>
      </trkpt>
      <trkpt lat="42.29519" lon="1.84756">
        <ele>1451.02</ele>
        <time>2024-11-03T09:07:37Z</time>
      </trkpt>
      <trkpt lat="42.29519" lon="1.84756">
        <ele>1451.31</ele>
        <time>2024-11-03T09:08:17Z</time>
      </trkpt>
      <trkpt lat="42.29519" lon="1.84755">
        <ele>1451.55</ele>
        <time>2024-11-03T09:08:40Z</time>
      </trkpt>
      <trkpt lat="42.2952" lon="1.84754">
        <ele>1452.28</ele>
        <time>2024-11-03T09:09:14Z</time>
      </trkpt>
      <trkpt lat="42.29523" lon="1.84751">
        <ele>1453.02</ele>
        <time>2024-11-03T09:09:33Z</time>
      </trkpt>
      <trkpt lat="42.29529" lon="1.84748">
        <ele>1456.04</ele>
        <time>2024-11-03T09:09:48Z</time>
      </trkpt>
      <trkpt lat="42.29537" lon="1.8474">
        <ele>1458.71</ele>
        <time>2024-11-03T09:10:06Z</time>
      </trkpt>
      <trkpt lat="42.29545" lon="1.84736">
        <ele>1461.32</ele>
        <time>2024-11-03T09:10:26Z</time>
      </trkpt>
      <trkpt lat="42.29554" lon="1.84729">
        <ele>1464.33</ele>
        <time>2024-11-03T09:10:48Z</time>
      </trkpt>
      <trkpt lat="42.29562" lon="1.84723">
        <ele>1467.07</ele>
        <time>2024-11-03T09:11:10Z</time>
      </trkpt>
      <trkpt lat="42.29566" lon="1.84722">
        <ele>1468.6</ele>
        <time>2024-11-03T09:11:19Z</time>
      </trkpt>
      <trkpt lat="42.29572" lon="1.84718">
        <ele>1469.98</ele>
        <time>2024-11-03T09:11:31Z</time>
      </trkpt>
      <trkpt lat="42.2958" lon="1.84709">
        <ele>1472.56</ele>
        <time>2024-11-03T09:11:48Z</time>
      </trkpt>
      <trkpt lat="42.29588" lon="1.84699">
        <ele>1474.27</ele>
        <time>2024-11-03T09:12:04Z</time>
      </trkpt>
      <trkpt lat="42.29597" lon="1.84689">
        <ele>1477.44</ele>
        <time>2024-11-03T09:12:22Z</time>
      </trkpt>
      <trkpt lat="42.29607" lon="1.84683">
        <ele>1477.87</ele>
        <time>2024-11-03T09:12:36Z</time>
      </trkpt>
      <trkpt lat="42.2962" lon="1.8468">
        <ele>1478.87</ele>
        <time>2024-11-03T09:12:54Z</time>
      </trkpt>
      <trkpt lat="42.2963" lon="1.8468">
        <ele>1478.95</ele>
        <time>2024-11-03T09:13:10Z</time>
      </trkpt>
      <trkpt lat="42.29646" lon="1.84682">
        <ele>1477.47</ele>
        <time>2024-11-03T09:13:29Z</time>
      </trkpt>
      <trkpt lat="42.29658" lon="1.84684">
        <ele>1478.21</ele>
        <time>2024-11-03T09:13:40Z</time>
      </trkpt>
      <trkpt lat="42.29665" lon="1.84682">
        <ele>1478.98</ele>
        <time>2024-11-03T09:13:45Z</time>
      </trkpt>
      <trkpt lat="42.2968" lon="1.84683">
        <ele>1478.9</ele>
        <time>2024-11-03T09:13:56Z</time>
      </trkpt>
      <trkpt lat="42.29694" lon="1.84678">
        <ele>1479.47</ele>
        <time>2024-11-03T09:14:09Z</time>
      </trkpt>
      <trkpt lat="42.29707" lon="1.84672">
        <ele>1479.83</ele>
        <time>2024-11-03T09:14:21Z</time>
      </trkpt>
      <trkpt lat="42.2972" lon="1.84667">
        <ele>1480.61</ele>
        <time>2024-11-03T09:14:34Z</time>
      </trkpt>
      <trkpt lat="42.29742" lon="1.84657">
        <ele>1483.17</ele>
        <time>2024-11-03T09:14:56Z</time>
      </trkpt>
      <trkpt lat="42.29741" lon="1.84654">
        <ele>1483.13</ele>
        <time>2024-11-03T09:15:12Z</time>
      </trkpt>
      <trkpt lat="42.29746" lon="1.84646">
        <ele>1486.17</ele>
        <time>2024-11-03T09:15:28Z</time>
      </trkpt>
      <trkpt lat="42.29753" lon="1.8464">
        <ele>1489.31</ele>
        <time>2024-11-03T09:15:45Z</time>
      </trkpt>
      <trkpt lat="42.29768" lon="1.84629">
        <ele>1490.61</ele>
        <time>2024-11-03T09:16:01Z</time>
      </trkpt>
      <trkpt lat="42.29779" lon="1.84616">
        <ele>1492.58</ele>
        <time>2024-11-03T09:16:17Z</time>
      </trkpt>
      <trkpt lat="42.29792" lon="1.84605">
        <ele>1493.78</ele>
        <time>2024-11-03T09:16:33Z</time>
      </trkpt>
      <trkpt lat="42.29802" lon="1.84592">
        <ele>1493.83</ele>
        <time>2024-11-03T09:16:49Z</time>
      </trkpt>
      <trkpt lat="42.29806" lon="1.84589">
        <ele>1495.48</ele>
        <time>2024-11-03T09:16:55Z</time>
      </trkpt>
      <trkpt lat="42.29811" lon="1.84576">
        <ele>1497.52</ele>
        <time>2024-11-03T09:17:11Z</time>
      </trkpt>
      <trkpt lat="42.29814" lon="1.84574">
        <ele>1498.51</ele>
        <time>2024-11-03T09:17:16Z</time>
      </trkpt>
      <trkpt lat="42.29823" lon="1.84574">
        <ele>1500.66</ele>
        <time>2024-11-03T09:17:32Z</time>
      </trkpt>
      <trkpt lat="42.29823" lon="1.84579">
        <ele>1503.25</ele>
        <time>2024-11-03T09:17:55Z</time>
      </trkpt>
      <trkpt lat="42.2983" lon="1.84577">
        <ele>1505.8</ele>
        <time>2024-11-03T09:18:17Z</time>
      </trkpt>
      <trkpt lat="42.29838" lon="1.84575">
        <ele>1506.78</ele>
        <time>2024-11-03T09:18:33Z</time>
      </trkpt>
      <trkpt lat="42.2985" lon="1.84576">
        <ele>1505.66</ele>
        <time>2024-11-03T09:18:50Z</time>
      </trkpt>
      <trkpt lat="42.29859" lon="1.84576">
        <ele>1503.74</ele>
        <time>2024-11-03T09:19:05Z</time>
      </trkpt>
      <trkpt lat="42.29875" lon="1.84573">
        <ele>1502.69</ele>
        <time>2024-11-03T09:19:23Z</time>
      </trkpt>
      <trkpt lat="42.29887" lon="1.84558">
        <ele>1503.47</ele>
        <time>2024-11-03T09:19:40Z</time>
      </trkpt>
      <trkpt lat="42.29888" lon="1.84556">
        <ele>1503.62</ele>
        <time>2024-11-03T09:19:41Z</time>
      </trkpt>
      <trkpt lat="42.29901" lon="1.84546">
        <ele>1505.96</ele>
        <time>2024-11-03T09:20:01Z</time>
      </trkpt>
      <trkpt lat="42.29914" lon="1.84535">
        <ele>1508.61</ele>
        <time>2024-11-03T09:20:23Z</time>
      </trkpt>
      <trkpt lat="42.29923" lon="1.84533">
        <ele>1510.94</ele>
        <time>2024-11-03T09:20:45Z</time>
      </trkpt>
      <trkpt lat="42.29933" lon="1.84526">
        <ele>1513.87</ele>
        <time>2024-11-03T09:21:07Z</time>
      </trkpt>
      <trkpt lat="42.29938" lon="1.84516">
        <ele>1515.98</ele>
        <time>2024-11-03T09:21:30Z</time>
      </trkpt>
      <trkpt lat="42.29941" lon="1.84503">
        <ele>1518.2</ele>
        <time>2024-11-03T09:21:49Z</time>
      </trkpt>
      <trkpt lat="42.29942" lon="1.84492">
        <ele>1520.86</ele>
        <time>2024-11-03T09:22:08Z</time>
      </trkpt>
      <trkpt lat="42.29941" lon="1.84482">
        <ele>1522.95</ele>
        <time>2024-11-03T09:22:28Z</time>
      </trkpt>
      <trkpt lat="42.29943" lon="1.84471">
        <ele>1526.05</ele>
        <time>2024-11-03T09:22:48Z</time>
      </trkpt>
      <trkpt lat="42.29951" lon="1.84468">
        <ele>1522.84</ele>
        <time>2024-11-03T09:23:04Z</time>
      </trkpt>
      <trkpt lat="42.29968" lon="1.84463">
        <ele>1521.6</ele>
        <time>2024-11-03T09:23:25Z</time>
      </trkpt>
      <trkpt lat="42.29973" lon="1.84459">
        <ele>1524.05</ele>
        <time>2024-11-03T09:23:44Z</time>
      </trkpt>
      <trkpt lat="42.29979" lon="1.84457">
        <ele>1526.79</ele>
        <time>2024-11-03T09:24:01Z</time>
      </trkpt>
      <trkpt lat="42.29985" lon="1.84452">
        <ele>1530.27</ele>
        <time>2024-11-03T09:24:20Z</time>
      </trkpt>
      <trkpt lat="42.29988" lon="1.84446">
        <ele>1530.7</ele>
        <time>2024-11-03T09:24:29Z</time>
      </trkpt>
      <trkpt lat="42.3" lon="1.84439">
        <ele>1533.09</ele>
        <time>2024-11-03T09:24:50Z</time>
      </trkpt>
      <trkpt lat="42.3" lon="1.84423">
        <ele>1533.07</ele>
        <time>2024-11-03T09:25:08Z</time>
      </trkpt>
      <trkpt lat="42.30002" lon="1.84404">
        <ele>1535.62</ele>
        <time>2024-11-03T09:25:28Z</time>
      </trkpt>
      <trkpt lat="42.30005" lon="1.84401">
        <ele>1538.75</ele>
        <time>2024-11-03T09:25:48Z</time>
      </trkpt>
      <trkpt lat="42.30004" lon="1.84386">
        <ele>1541.68</ele>
        <time>2024-11-03T09:26:09Z</time>
      </trkpt>
      <trkpt lat="42.30006" lon="1.84374">
        <ele>1544.85</ele>
        <time>2024-11-03T09:26:30Z</time>
      </trkpt>
      <trkpt lat="42.30005" lon="1.84364">
        <ele>1546.98</ele>
        <time>2024-11-03T09:26:48Z</time>
      </trkpt>
      <trkpt lat="42.30005" lon="1.84349">
        <ele>1549.98</ele>
        <time>2024-11-03T09:27:09Z</time>
      </trkpt>
      <trkpt lat="42.30011" lon="1.84345">
        <ele>1552.53</ele>
        <time>2024-11-03T09:27:28Z</time>
      </trkpt>
      <trkpt lat="42.30011" lon="1.84336">
        <ele>1555.39</ele>
        <time>2024-11-03T09:27:46Z</time>
      </trkpt>
      <trkpt lat="42.3001" lon="1.84323">
        <ele>1557.26</ele>
        <time>2024-11-03T09:28:05Z</time>
      </trkpt>
      <trkpt lat="42.30013" lon="1.84316">
        <ele>1559.97</ele>
        <time>2024-11-03T09:28:24Z</time>
      </trkpt>
      <trkpt lat="42.30009" lon="1.8431">
        <ele>1561.91</ele>
        <time>2024-11-03T09:28:41Z</time>
      </trkpt>
      <trkpt lat="42.30009" lon="1.843">
        <ele>1565.08</ele>
        <time>2024-11-03T09:28:59Z</time>
      </trkpt>
      <trkpt lat="42.30013" lon="1.84295">
        <ele>1567.79</ele>
        <time>2024-11-03T09:29:19Z</time>
      </trkpt>
      <trkpt lat="42.30017" lon="1.84294">
        <ele>1569.87</ele>
        <time>2024-11-03T09:29:34Z</time>
      </trkpt>
      <trkpt lat="42.30029" lon="1.843">
        <ele>1572.49</ele>
        <time>2024-11-03T09:29:57Z</time>
      </trkpt>
      <trkpt lat="42.3003" lon="1.84292">
        <ele>1575.53</ele>
        <time>2024-11-03T09:30:13Z</time>
      </trkpt>
      <trkpt lat="42.30024" lon="1.84279">
        <ele>1576.77</ele>
        <time>2024-11-03T09:30:29Z</time>
      </trkpt>
      <trkpt lat="42.30021" lon="1.8427">
        <ele>1579.33</ele>
        <time>2024-11-03T09:30:50Z</time>
      </trkpt>
      <trkpt lat="42.30023" lon="1.84261">
        <ele>1581.52</ele>
        <time>2024-11-03T09:31:06Z</time>
      </trkpt>
      <trkpt lat="42.30028" lon="1.84252">
        <ele>1585.31</ele>
        <time>2024-11-03T09:31:29Z</time>
      </trkpt>
      <trkpt lat="42.30035" lon="1.84251">
        <ele>1588.18</ele>
        <time>2024-11-03T09:31:49Z</time>
      </trkpt>
      <trkpt lat="42.30041" lon="1.84257">
        <ele>1588.87</ele>
        <time>2024-11-03T09:31:58Z</time>
      </trkpt>
      <trkpt lat="42.30058" lon="1.84273">
        <ele>1591</ele>
        <time>2024-11-03T09:32:20Z</time>
      </trkpt>
      <trkpt lat="42.30067" lon="1.84279">
        <ele>1594.06</ele>
        <time>2024-11-03T09:32:43Z</time>
      </trkpt>
      <trkpt lat="42.30071" lon="1.84277">
        <ele>1596.39</ele>
        <time>2024-11-03T09:32:57Z</time>
      </trkpt>
      <trkpt lat="42.30076" lon="1.84275">
        <ele>1599.24</ele>
        <time>2024-11-03T09:33:17Z</time>
      </trkpt>
      <trkpt lat="42.30078" lon="1.84276">
        <ele>1601.06</ele>
        <time>2024-11-03T09:33:29Z</time>
      </trkpt>
      <trkpt lat="42.3008" lon="1.84278">
        <ele>1601.1</ele>
        <time>2024-11-03T09:33:31Z</time>
      </trkpt>
      <trkpt lat="42.30083" lon="1.84281">
        <ele>1602.17</ele>
        <time>2024-11-03T09:33:37Z</time>
      </trkpt>
      <trkpt lat="42.30089" lon="1.84281">
        <ele>1605.76</ele>
        <time>2024-11-03T09:34:00Z</time>
      </trkpt>
      <trkpt lat="42.3009" lon="1.84271">
        <ele>1608.48</ele>
        <time>2024-11-03T09:34:19Z</time>
      </trkpt>
      <trkpt lat="42.30094" lon="1.84272">
        <ele>1611.14</ele>
        <time>2024-11-03T09:34:38Z</time>
      </trkpt>
      <trkpt lat="42.30099" lon="1.84274">
        <ele>1613.7</ele>
        <time>2024-11-03T09:34:58Z</time>
      </trkpt>
      <trkpt lat="42.30099" lon="1.84276">
        <ele>1614.91</ele>
        <time>2024-11-03T09:35:03Z</time>
      </trkpt>
      <trkpt lat="42.30101" lon="1.84279">
        <ele>1615.45</ele>
        <time>2024-11-03T09:35:09Z</time>
      </trkpt>
      <trkpt lat="42.301" lon="1.8427">
        <ele>1618.76</ele>
        <time>2024-11-03T09:35:29Z</time>
      </trkpt>
      <trkpt lat="42.30092" lon="1.84255">
        <ele>1621.85</ele>
        <time>2024-11-03T09:35:51Z</time>
      </trkpt>
      <trkpt lat="42.30087" lon="1.84235">
        <ele>1624.52</ele>
        <time>2024-11-03T09:36:11Z</time>
      </trkpt>
      <trkpt lat="42.3009" lon="1.84231">
        <ele>1626.49</ele>
        <time>2024-11-03T09:36:30Z</time>
      </trkpt>
      <trkpt lat="42.30096" lon="1.84232">
        <ele>1629.6</ele>
        <time>2024-11-03T09:36:50Z</time>
      </trkpt>
      <trkpt lat="42.30097" lon="1.84236">
        <ele>1630.61</ele>
        <time>2024-11-03T09:37:10Z</time>
      </trkpt>
      <trkpt lat="42.30101" lon="1.84239">
        <ele>1632.27</ele>
        <time>2024-11-03T09:37:29Z</time>
      </trkpt>
      <trkpt lat="42.301" lon="1.84233">
        <ele>1634.99</ele>
        <time>2024-11-03T09:37:49Z</time>
      </trkpt>
      <trkpt lat="42.30103" lon="1.84229">
        <ele>1637.78</ele>
        <time>2024-11-03T09:38:09Z</time>
      </trkpt>
      <trkpt lat="42.30104" lon="1.84227">
        <ele>1640.28</ele>
        <time>2024-11-03T09:38:33Z</time>
      </trkpt>
      <trkpt lat="42.30102" lon="1.84215">
        <ele>1642.45</ele>
        <time>2024-11-03T09:38:51Z</time>
      </trkpt>
      <trkpt lat="42.30104" lon="1.84206">
        <ele>1645.73</ele>
        <time>2024-11-03T09:39:12Z</time>
      </trkpt>
      <trkpt lat="42.3011" lon="1.84211">
        <ele>1648.75</ele>
        <time>2024-11-03T09:39:33Z</time>
      </trkpt>
      <trkpt lat="42.30117" lon="1.84213">
        <ele>1651.63</ele>
        <time>2024-11-03T09:39:56Z</time>
      </trkpt>
      <trkpt lat="42.30125" lon="1.84213">
        <ele>1654.46</ele>
        <time>2024-11-03T09:40:19Z</time>
      </trkpt>
      <trkpt lat="42.30132" lon="1.84216">
        <ele>1657.1</ele>
        <time>2024-11-03T09:40:38Z</time>
      </trkpt>
      <trkpt lat="42.30138" lon="1.84215">
        <ele>1660.37</ele>
        <time>2024-11-03T09:40:57Z</time>
      </trkpt>
      <trkpt lat="42.30142" lon="1.84214">
        <ele>1663.38</ele>
        <time>2024-11-03T09:41:16Z</time>
      </trkpt>
      <trkpt lat="42.30144" lon="1.84208">
        <ele>1665.53</ele>
        <time>2024-11-03T09:41:36Z</time>
      </trkpt>
      <trkpt lat="42.30145" lon="1.84208">
        <ele>1666.76</ele>
        <time>2024-11-03T09:41:39Z</time>
      </trkpt>
      <trkpt lat="42.30151" lon="1.84199">
        <ele>1669.3</ele>
        <time>2024-11-03T09:42:01Z</time>
      </trkpt>
      <trkpt lat="42.30157" lon="1.842">
        <ele>1672.32</ele>
        <time>2024-11-03T09:42:17Z</time>
      </trkpt>
      <trkpt lat="42.30155" lon="1.84189">
        <ele>1674.8</ele>
        <time>2024-11-03T09:42:38Z</time>
      </trkpt>
      <trkpt lat="42.3016" lon="1.84188">
        <ele>1677.88</ele>
        <time>2024-11-03T09:42:54Z</time>
      </trkpt>
      <trkpt lat="42.30158" lon="1.84177">
        <ele>1680.42</ele>
        <time>2024-11-03T09:43:13Z</time>
      </trkpt>
      <trkpt lat="42.30159" lon="1.84175">
        <ele>1680.83</ele>
        <time>2024-11-03T09:43:17Z</time>
      </trkpt>
      <trkpt lat="42.3016" lon="1.84173">
        <ele>1681.86</ele>
        <time>2024-11-03T09:43:21Z</time>
      </trkpt>
      <trkpt lat="42.30159" lon="1.84167">
        <ele>1682.63</ele>
        <time>2024-11-03T09:43:28Z</time>
      </trkpt>
      <trkpt lat="42.30165" lon="1.84167">
        <ele>1685.74</ele>
        <time>2024-11-03T09:43:50Z</time>
      </trkpt>
      <trkpt lat="42.30164" lon="1.84157">
        <ele>1689.1</ele>
        <time>2024-11-03T09:44:11Z</time>
      </trkpt>
      <trkpt lat="42.30154" lon="1.84144">
        <ele>1692.16</ele>
        <time>2024-11-03T09:44:31Z</time>
      </trkpt>
      <trkpt lat="42.30149" lon="1.84138">
        <ele>1693</ele>
        <time>2024-11-03T09:44:40Z</time>
      </trkpt>
      <trkpt lat="42.30151" lon="1.84134">
        <ele>1696.08</ele>
        <time>2024-11-03T09:45:01Z</time>
      </trkpt>
      <trkpt lat="42.30159" lon="1.84135">
        <ele>1698.59</ele>
        <time>2024-11-03T09:45:20Z</time>
      </trkpt>
      <trkpt lat="42.30167" lon="1.84138">
        <ele>1701.63</ele>
        <time>2024-11-03T09:45:37Z</time>
      </trkpt>
      <trkpt lat="42.30179" lon="1.84146">
        <ele>1704.14</ele>
        <time>2024-11-03T09:45:59Z</time>
      </trkpt>
      <trkpt lat="42.30188" lon="1.8415">
        <ele>1707.28</ele>
        <time>2024-11-03T09:46:16Z</time>
      </trkpt>
      <trkpt lat="42.30198" lon="1.84158">
        <ele>1709.76</ele>
        <time>2024-11-03T09:46:36Z</time>
      </trkpt>
      <trkpt lat="42.30205" lon="1.84166">
        <ele>1712.75</ele>
        <time>2024-11-03T09:46:58Z</time>
      </trkpt>
      <trkpt lat="42.30207" lon="1.84177">
        <ele>1713.23</ele>
        <time>2024-11-03T09:47:10Z</time>
      </trkpt>
      <trkpt lat="42.30207" lon="1.84185">
        <ele>1715.19</ele>
        <time>2024-11-03T09:47:23Z</time>
      </trkpt>
      <trkpt lat="42.3021" lon="1.8419">
        <ele>1718.51</ele>
        <time>2024-11-03T09:47:38Z</time>
      </trkpt>
      <trkpt lat="42.30216" lon="1.84196">
        <ele>1720.77</ele>
        <time>2024-11-03T09:47:59Z</time>
      </trkpt>
      <trkpt lat="42.30217" lon="1.84197">
        <ele>1720.79</ele>
        <time>2024-11-03T09:48:23Z</time>
      </trkpt>
      <trkpt lat="42.30221" lon="1.842">
        <ele>1722.65</ele>
        <time>2024-11-03T09:48:47Z</time>
      </trkpt>
      <trkpt lat="42.3022" lon="1.84202">
        <ele>1722.9</ele>
        <time>2024-11-03T09:49:15Z</time>
      </trkpt>
      <trkpt lat="42.30219" lon="1.84203">
        <ele>1723.53</ele>
        <time>2024-11-03T09:49:40Z</time>
      </trkpt>
      <trkpt lat="42.30222" lon="1.84212">
        <ele>1723.3</ele>
        <time>2024-11-03T09:50:04Z</time>
      </trkpt>
      <trkpt lat="42.30225" lon="1.84212">
        <ele>1724.71</ele>
        <time>2024-11-03T09:50:19Z</time>
      </trkpt>
      <trkpt lat="42.30231" lon="1.8422">
        <ele>1727.81</ele>
        <time>2024-11-03T09:50:37Z</time>
      </trkpt>
      <trkpt lat="42.30237" lon="1.8423">
        <ele>1729.74</ele>
        <time>2024-11-03T09:50:57Z</time>
      </trkpt>
      <trkpt lat="42.30242" lon="1.84238">
        <ele>1733.23</ele>
        <time>2024-11-03T09:51:10Z</time>
      </trkpt>
      <trkpt lat="42.30248" lon="1.8424">
        <ele>1732.77</ele>
        <time>2024-11-03T09:51:34Z</time>
      </trkpt>
      <trkpt lat="42.30252" lon="1.84247">
        <ele>1735.39</ele>
        <time>2024-11-03T09:51:55Z</time>
      </trkpt>
      <trkpt lat="42.30254" lon="1.84236">
        <ele>1738.39</ele>
        <time>2024-11-03T09:52:14Z</time>
      </trkpt>
      <trkpt lat="42.30256" lon="1.84231">
        <ele>1741.42</ele>
        <time>2024-11-03T09:52:33Z</time>
      </trkpt>
      <trkpt lat="42.30261" lon="1.84245">
        <ele>1744.27</ele>
        <time>2024-11-03T09:52:53Z</time>
      </trkpt>
      <trkpt lat="42.30268" lon="1.84258">
        <ele>1746.96</ele>
        <time>2024-11-03T09:53:13Z</time>
      </trkpt>
      <trkpt lat="42.30273" lon="1.84269">
        <ele>1750.06</ele>
        <time>2024-11-03T09:53:31Z</time>
      </trkpt>
      <trkpt lat="42.30279" lon="1.84269">
        <ele>1753.67</ele>
        <time>2024-11-03T09:53:46Z</time>
      </trkpt>
      <trkpt lat="42.30279" lon="1.84269">
        <ele>1753.69</ele>
        <time>2024-11-03T09:53:47Z</time>
      </trkpt>
      <trkpt lat="42.30281" lon="1.84278">
        <ele>1756.86</ele>
        <time>2024-11-03T09:54:06Z</time>
      </trkpt>
      <trkpt lat="42.30284" lon="1.84289">
        <ele>1759.89</ele>
        <time>2024-11-03T09:54:27Z</time>
      </trkpt>
      <trkpt lat="42.30286" lon="1.84301">
        <ele>1762.6</ele>
        <time>2024-11-03T09:54:45Z</time>
      </trkpt>
      <trkpt lat="42.30292" lon="1.84298">
        <ele>1765.65</ele>
        <time>2024-11-03T09:55:04Z</time>
      </trkpt>
      <trkpt lat="42.30297" lon="1.84301">
        <ele>1768.76</ele>
        <time>2024-11-03T09:55:26Z</time>
      </trkpt>
      <trkpt lat="42.30298" lon="1.8431">
        <ele>1771.09</ele>
        <time>2024-11-03T09:55:43Z</time>
      </trkpt>
      <trkpt lat="42.30303" lon="1.8431">
        <ele>1774.27</ele>
        <time>2024-11-03T09:56:01Z</time>
      </trkpt>
      <trkpt lat="42.30307" lon="1.84306">
        <ele>1777.23</ele>
        <time>2024-11-03T09:56:21Z</time>
      </trkpt>
      <trkpt lat="42.30312" lon="1.8431">
        <ele>1780.04</ele>
        <time>2024-11-03T09:56:42Z</time>
      </trkpt>
      <trkpt lat="42.30316" lon="1.84306">
        <ele>1783.05</ele>
        <time>2024-11-03T09:56:59Z</time>
      </trkpt>
      <trkpt lat="42.30321" lon="1.843">
        <ele>1785.65</ele>
        <time>2024-11-03T09:57:18Z</time>
      </trkpt>
      <trkpt lat="42.30327" lon="1.84299">
        <ele>1788.73</ele>
        <time>2024-11-03T09:57:34Z</time>
      </trkpt>
      <trkpt lat="42.30331" lon="1.84289">
        <ele>1790.29</ele>
        <time>2024-11-03T09:57:51Z</time>
      </trkpt>
      <trkpt lat="42.30331" lon="1.84287">
        <ele>1790.13</ele>
        <time>2024-11-03T09:57:53Z</time>
      </trkpt>
      <trkpt lat="42.30331" lon="1.84285">
        <ele>1790.58</ele>
        <time>2024-11-03T09:57:55Z</time>
      </trkpt>
      <trkpt lat="42.30332" lon="1.84265">
        <ele>1791.91</ele>
        <time>2024-11-03T09:58:10Z</time>
      </trkpt>
      <trkpt lat="42.30328" lon="1.84254">
        <ele>1793.75</ele>
        <time>2024-11-03T09:58:22Z</time>
      </trkpt>
      <trkpt lat="42.30332" lon="1.84239">
        <ele>1796.1</ele>
        <time>2024-11-03T09:58:42Z</time>
      </trkpt>
      <trkpt lat="42.30332" lon="1.84224">
        <ele>1798.32</ele>
        <time>2024-11-03T09:59:00Z</time>
      </trkpt>
      <trkpt lat="42.30329" lon="1.84213">
        <ele>1796.8</ele>
        <time>2024-11-03T09:59:14Z</time>
      </trkpt>
      <trkpt lat="42.30327" lon="1.84195">
        <ele>1798.72</ele>
        <time>2024-11-03T09:59:31Z</time>
      </trkpt>
      <trkpt lat="42.30327" lon="1.84194">
        <ele>1798.49</ele>
        <time>2024-11-03T09:59:32Z</time>
      </trkpt>
      <trkpt lat="42.30327" lon="1.84178">
        <ele>1800.94</ele>
        <time>2024-11-03T09:59:47Z</time>
      </trkpt>
      <trkpt lat="42.30326" lon="1.84174">
        <ele>1800.72</ele>
        <time>2024-11-03T09:59:50Z</time>
      </trkpt>
      <trkpt lat="42.30325" lon="1.84157">
        <ele>1802.52</ele>
        <time>2024-11-03T10:00:08Z</time>
      </trkpt>
      <trkpt lat="42.30324" lon="1.84143">
        <ele>1805.62</ele>
        <time>2024-11-03T10:00:25Z</time>
      </trkpt>
      <trkpt lat="42.30317" lon="1.84128">
        <ele>1807.79</ele>
        <time>2024-11-03T10:00:45Z</time>
      </trkpt>
      <trkpt lat="42.30307" lon="1.8412">
        <ele>1810.88</ele>
        <time>2024-11-03T10:01:04Z</time>
      </trkpt>
      <trkpt lat="42.30302" lon="1.84113">
        <ele>1811.08</ele>
        <time>2024-11-03T10:01:23Z</time>
      </trkpt>
      <trkpt lat="42.30296" lon="1.84103">
        <ele>1812.17</ele>
        <time>2024-11-03T10:01:39Z</time>
      </trkpt>
      <trkpt lat="42.30296" lon="1.84101">
        <ele>1813.11</ele>
        <time>2024-11-03T10:02:03Z</time>
      </trkpt>
      <trkpt lat="42.30295" lon="1.84101">
        <ele>1812.73</ele>
        <time>2024-11-03T10:02:31Z</time>
      </trkpt>
      <trkpt lat="42.30288" lon="1.8409">
        <ele>1812.72</ele>
        <time>2024-11-03T10:02:45Z</time>
      </trkpt>
      <trkpt lat="42.30288" lon="1.84074">
        <ele>1815.03</ele>
        <time>2024-11-03T10:03:02Z</time>
      </trkpt>
      <trkpt lat="42.30284" lon="1.84066">
        <ele>1818.09</ele>
        <time>2024-11-03T10:03:19Z</time>
      </trkpt>
      <trkpt lat="42.30276" lon="1.84059">
        <ele>1820.86</ele>
        <time>2024-11-03T10:03:37Z</time>
      </trkpt>
      <trkpt lat="42.30271" lon="1.84047">
        <ele>1823.5</ele>
        <time>2024-11-03T10:03:55Z</time>
      </trkpt>
      <trkpt lat="42.30269" lon="1.84036">
        <ele>1825.53</ele>
        <time>2024-11-03T10:04:12Z</time>
      </trkpt>
      <trkpt lat="42.30269" lon="1.84021">
        <ele>1828.63</ele>
        <time>2024-11-03T10:04:33Z</time>
      </trkpt>
      <trkpt lat="42.30268" lon="1.84009">
        <ele>1831.79</ele>
        <time>2024-11-03T10:04:52Z</time>
      </trkpt>
      <trkpt lat="42.30266" lon="1.83996">
        <ele>1835.05</ele>
        <time>2024-11-03T10:05:13Z</time>
      </trkpt>
      <trkpt lat="42.30263" lon="1.83986">
        <ele>1837.19</ele>
        <time>2024-11-03T10:05:29Z</time>
      </trkpt>
      <trkpt lat="42.3026" lon="1.83981">
        <ele>1838.01</ele>
        <time>2024-11-03T10:05:37Z</time>
      </trkpt>
      <trkpt lat="42.30255" lon="1.83969">
        <ele>1840.22</ele>
        <time>2024-11-03T10:05:52Z</time>
      </trkpt>
      <trkpt lat="42.30246" lon="1.83955">
        <ele>1842.74</ele>
        <time>2024-11-03T10:06:12Z</time>
      </trkpt>
      <trkpt lat="42.30236" lon="1.83944">
        <ele>1845.29</ele>
        <time>2024-11-03T10:06:30Z</time>
      </trkpt>
      <trkpt lat="42.30226" lon="1.83938">
        <ele>1848.49</ele>
        <time>2024-11-03T10:06:49Z</time>
      </trkpt>
      <trkpt lat="42.30216" lon="1.83933">
        <ele>1850.9</ele>
        <time>2024-11-03T10:07:06Z</time>
      </trkpt>
      <trkpt lat="42.30213" lon="1.83927">
        <ele>1854.27</ele>
        <time>2024-11-03T10:07:23Z</time>
      </trkpt>
      <trkpt lat="42.30206" lon="1.83921">
        <ele>1857.43</ele>
        <time>2024-11-03T10:07:43Z</time>
      </trkpt>
      <trkpt lat="42.30196" lon="1.83915">
        <ele>1860.75</ele>
        <time>2024-11-03T10:08:03Z</time>
      </trkpt>
      <trkpt lat="42.30193" lon="1.83909">
        <ele>1864.1</ele>
        <time>2024-11-03T10:08:19Z</time>
      </trkpt>
      <trkpt lat="42.3019" lon="1.83899">
        <ele>1866.53</ele>
        <time>2024-11-03T10:08:40Z</time>
      </trkpt>
      <trkpt lat="42.30194" lon="1.83889">
        <ele>1869.78</ele>
        <time>2024-11-03T10:08:59Z</time>
      </trkpt>
      <trkpt lat="42.30202" lon="1.83876">
        <ele>1872.33</ele>
        <time>2024-11-03T10:09:19Z</time>
      </trkpt>
      <trkpt lat="42.30209" lon="1.83862">
        <ele>1874.42</ele>
        <time>2024-11-03T10:09:37Z</time>
      </trkpt>
      <trkpt lat="42.3021" lon="1.8386">
        <ele>1874.23</ele>
        <time>2024-11-03T10:09:39Z</time>
      </trkpt>
      <trkpt lat="42.30211" lon="1.83847">
        <ele>1874.24</ele>
        <time>2024-11-03T10:09:48Z</time>
      </trkpt>
      <trkpt lat="42.30211" lon="1.83822">
        <ele>1875.98</ele>
        <time>2024-11-03T10:10:06Z</time>
      </trkpt>
      <trkpt lat="42.30212" lon="1.83801">
        <ele>1877.99</ele>
        <time>2024-11-03T10:10:24Z</time>
      </trkpt>
      <trkpt lat="42.30214" lon="1.83786">
        <ele>1879.13</ele>
        <time>2024-11-03T10:10:40Z</time>
      </trkpt>
      <trkpt lat="42.30217" lon="1.83783">
        <ele>1880.26</ele>
        <time>2024-11-03T10:10:45Z</time>
      </trkpt>
      <trkpt lat="42.30218" lon="1.83777">
        <ele>1880.14</ele>
        <time>2024-11-03T10:10:49Z</time>
      </trkpt>
      <trkpt lat="42.30226" lon="1.83757">
        <ele>1881.26</ele>
        <time>2024-11-03T10:11:06Z</time>
      </trkpt>
      <trkpt lat="42.30227" lon="1.83755">
        <ele>1881.41</ele>
        <time>2024-11-03T10:11:09Z</time>
      </trkpt>
      <trkpt lat="42.30227" lon="1.83752">
        <ele>1881.35</ele>
        <time>2024-11-03T10:11:11Z</time>
      </trkpt>
      <trkpt lat="42.30228" lon="1.83748">
        <ele>1881.81</ele>
        <time>2024-11-03T10:11:14Z</time>
      </trkpt>
      <trkpt lat="42.30233" lon="1.83729">
        <ele>1883.62</ele>
        <time>2024-11-03T10:11:33Z</time>
      </trkpt>
      <trkpt lat="42.30232" lon="1.83715">
        <ele>1886.32</ele>
        <time>2024-11-03T10:11:52Z</time>
      </trkpt>
      <trkpt lat="42.30233" lon="1.83704">
        <ele>1889.47</ele>
        <time>2024-11-03T10:12:09Z</time>
      </trkpt>
      <trkpt lat="42.30232" lon="1.83695">
        <ele>1892.02</ele>
        <time>2024-11-03T10:12:24Z</time>
      </trkpt>
      <trkpt lat="42.3023" lon="1.83687">
        <ele>1895.1</ele>
        <time>2024-11-03T10:12:42Z</time>
      </trkpt>
      <trkpt lat="42.30228" lon="1.83678">
        <ele>1898.35</ele>
        <time>2024-11-03T10:12:59Z</time>
      </trkpt>
      <trkpt lat="42.30226" lon="1.83668">
        <ele>1900.77</ele>
        <time>2024-11-03T10:13:14Z</time>
      </trkpt>
      <trkpt lat="42.3022" lon="1.83661">
        <ele>1903.15</ele>
        <time>2024-11-03T10:13:29Z</time>
      </trkpt>
      <trkpt lat="42.30216" lon="1.8365">
        <ele>1905.46</ele>
        <time>2024-11-03T10:13:49Z</time>
      </trkpt>
      <trkpt lat="42.30211" lon="1.83643">
        <ele>1908.64</ele>
        <time>2024-11-03T10:14:12Z</time>
      </trkpt>
      <trkpt lat="42.30209" lon="1.83634">
        <ele>1911.86</ele>
        <time>2024-11-03T10:14:29Z</time>
      </trkpt>
      <trkpt lat="42.3021" lon="1.83624">
        <ele>1914.51</ele>
        <time>2024-11-03T10:14:52Z</time>
      </trkpt>
      <trkpt lat="42.3022" lon="1.83626">
        <ele>1917.79</ele>
        <time>2024-11-03T10:15:12Z</time>
      </trkpt>
      <trkpt lat="42.30223" lon="1.83622">
        <ele>1921.23</ele>
        <time>2024-11-03T10:15:29Z</time>
      </trkpt>
      <trkpt lat="42.30229" lon="1.83619">
        <ele>1924.31</ele>
        <time>2024-11-03T10:15:48Z</time>
      </trkpt>
      <trkpt lat="42.30235" lon="1.83615">
        <ele>1927.38</ele>
        <time>2024-11-03T10:16:08Z</time>
      </trkpt>
      <trkpt lat="42.30242" lon="1.83614">
        <ele>1930.08</ele>
        <time>2024-11-03T10:16:27Z</time>
      </trkpt>
      <trkpt lat="42.30238" lon="1.83607">
        <ele>1933.12</ele>
        <time>2024-11-03T10:16:43Z</time>
      </trkpt>
      <trkpt lat="42.30234" lon="1.83598">
        <ele>1935.8</ele>
        <time>2024-11-03T10:17:00Z</time>
      </trkpt>
      <trkpt lat="42.30233" lon="1.8359">
        <ele>1938.27</ele>
        <time>2024-11-03T10:17:16Z</time>
      </trkpt>
      <trkpt lat="42.3024" lon="1.83591">
        <ele>1940.43</ele>
        <time>2024-11-03T10:17:34Z</time>
      </trkpt>
      <trkpt lat="42.30239" lon="1.83582">
        <ele>1943.62</ele>
        <time>2024-11-03T10:17:50Z</time>
      </trkpt>
      <trkpt lat="42.30233" lon="1.83572">
        <ele>1947.02</ele>
        <time>2024-11-03T10:18:09Z</time>
      </trkpt>
      <trkpt lat="42.30226" lon="1.83563">
        <ele>1949.03</ele>
        <time>2024-11-03T10:18:27Z</time>
      </trkpt>
      <trkpt lat="42.30221" lon="1.83556">
        <ele>1952.04</ele>
        <time>2024-11-03T10:18:43Z</time>
      </trkpt>
      <trkpt lat="42.30219" lon="1.83546">
        <ele>1955.12</ele>
        <time>2024-11-03T10:19:02Z</time>
      </trkpt>
      <trkpt lat="42.30223" lon="1.83543">
        <ele>1958.35</ele>
        <time>2024-11-03T10:19:17Z</time>
      </trkpt>
      <trkpt lat="42.30218" lon="1.8353">
        <ele>1961.13</ele>
        <time>2024-11-03T10:19:38Z</time>
      </trkpt>
      <trkpt lat="42.30213" lon="1.83519">
        <ele>1963.36</ele>
        <time>2024-11-03T10:19:56Z</time>
      </trkpt>
      <trkpt lat="42.30221" lon="1.83519">
        <ele>1966.74</ele>
        <time>2024-11-03T10:20:10Z</time>
      </trkpt>
      <trkpt lat="42.30228" lon="1.83521">
        <ele>1967.87</ele>
        <time>2024-11-03T10:20:18Z</time>
      </trkpt>
      <trkpt lat="42.30232" lon="1.83523">
        <ele>1967.4</ele>
        <time>2024-11-03T10:20:22Z</time>
      </trkpt>
      <trkpt lat="42.30241" lon="1.83524">
        <ele>1970.27</ele>
        <time>2024-11-03T10:20:38Z</time>
      </trkpt>
      <trkpt lat="42.30246" lon="1.83521">
        <ele>1973.39</ele>
        <time>2024-11-03T10:20:54Z</time>
      </trkpt>
      <trkpt lat="42.30241" lon="1.83506">
        <ele>1976.67</ele>
        <time>2024-11-03T10:21:13Z</time>
      </trkpt>
      <trkpt lat="42.30234" lon="1.83495">
        <ele>1979</ele>
        <time>2024-11-03T10:21:30Z</time>
      </trkpt>
      <trkpt lat="42.30231" lon="1.83484">
        <ele>1982.05</ele>
        <time>2024-11-03T10:21:47Z</time>
      </trkpt>
      <trkpt lat="42.30226" lon="1.83475">
        <ele>1985.15</ele>
        <time>2024-11-03T10:22:01Z</time>
      </trkpt>
      <trkpt lat="42.30221" lon="1.83465">
        <ele>1988.21</ele>
        <time>2024-11-03T10:22:18Z</time>
      </trkpt>
      <trkpt lat="42.30218" lon="1.83455">
        <ele>1990.81</ele>
        <time>2024-11-03T10:22:36Z</time>
      </trkpt>
      <trkpt lat="42.30213" lon="1.83444">
        <ele>1993.68</ele>
        <time>2024-11-03T10:22:56Z</time>
      </trkpt>
      <trkpt lat="42.30212" lon="1.83439">
        <ele>1996.85</ele>
        <time>2024-11-03T10:23:06Z</time>
      </trkpt>
      <trkpt lat="42.30214" lon="1.83432">
        <ele>1998.42</ele>
        <time>2024-11-03T10:23:21Z</time>
      </trkpt>
      <trkpt lat="42.3022" lon="1.83427">
        <ele>2001.49</ele>
        <time>2024-11-03T10:23:37Z</time>
      </trkpt>
      <trkpt lat="42.30229" lon="1.83422">
        <ele>2004.75</ele>
        <time>2024-11-03T10:23:51Z</time>
      </trkpt>
      <trkpt lat="42.30224" lon="1.8341">
        <ele>2006.43</ele>
        <time>2024-11-03T10:24:08Z</time>
      </trkpt>
      <trkpt lat="42.30215" lon="1.83402">
        <ele>2009.19</ele>
        <time>2024-11-03T10:24:23Z</time>
      </trkpt>
      <trkpt lat="42.30206" lon="1.83393">
        <ele>2011.06</ele>
        <time>2024-11-03T10:24:42Z</time>
      </trkpt>
      <trkpt lat="42.30209" lon="1.8339">
        <ele>2013.01</ele>
        <time>2024-11-03T10:24:48Z</time>
      </trkpt>
      <trkpt lat="42.30221" lon="1.83379">
        <ele>2015.59</ele>
        <time>2024-11-03T10:25:05Z</time>
      </trkpt>
      <trkpt lat="42.30233" lon="1.83379">
        <ele>2018.55</ele>
        <time>2024-11-03T10:25:20Z</time>
      </trkpt>
      <trkpt lat="42.30246" lon="1.83378">
        <ele>2021.71</ele>
        <time>2024-11-03T10:25:38Z</time>
      </trkpt>
      <trkpt lat="42.30248" lon="1.83376">
        <ele>2022.98</ele>
        <time>2024-11-03T10:25:43Z</time>
      </trkpt>
      <trkpt lat="42.3025" lon="1.83371">
        <ele>2026.21</ele>
        <time>2024-11-03T10:25:57Z</time>
      </trkpt>
      <trkpt lat="42.30253" lon="1.83369">
        <ele>2027.74</ele>
        <time>2024-11-03T10:26:06Z</time>
      </trkpt>
      <trkpt lat="42.3026" lon="1.83367">
        <ele>2030.91</ele>
        <time>2024-11-03T10:26:22Z</time>
      </trkpt>
      <trkpt lat="42.30268" lon="1.83367">
        <ele>2033.32</ele>
        <time>2024-11-03T10:26:39Z</time>
      </trkpt>
      <trkpt lat="42.3027" lon="1.83355">
        <ele>2036.22</ele>
        <time>2024-11-03T10:26:57Z</time>
      </trkpt>
      <trkpt lat="42.30271" lon="1.83347">
        <ele>2039.32</ele>
        <time>2024-11-03T10:27:11Z</time>
      </trkpt>
      <trkpt lat="42.30281" lon="1.83345">
        <ele>2039.21</ele>
        <time>2024-11-03T10:27:27Z</time>
      </trkpt>
      <trkpt lat="42.30291" lon="1.83346">
        <ele>2039.14</ele>
        <time>2024-11-03T10:27:43Z</time>
      </trkpt>
      <trkpt lat="42.30297" lon="1.83349">
        <ele>2039.64</ele>
        <time>2024-11-03T10:28:00Z</time>
      </trkpt>
      <trkpt lat="42.30297" lon="1.8335">
        <ele>2040.34</ele>
        <time>2024-11-03T10:28:29Z</time>
      </trkpt>
      <trkpt lat="42.30297" lon="1.8335">
        <ele>2038.63</ele>
        <time>2024-11-03T10:28:46Z</time>
      </trkpt>
      <trkpt lat="42.30297" lon="1.8335">
        <ele>2039.54</ele>
        <time>2024-11-03T10:29:40Z</time>
      </trkpt>
      <trkpt lat="42.30297" lon="1.83349">
        <ele>2040.44</ele>
        <time>2024-11-03T10:30:33Z</time>
      </trkpt>
      <trkpt lat="42.30297" lon="1.83349">
        <ele>2040.79</ele>
        <time>2024-11-03T10:31:16Z</time>
      </trkpt>
      <trkpt lat="42.30297" lon="1.83349">
        <ele>2041.35</ele>
        <time>2024-11-03T10:31:57Z</time>
      </trkpt>
      <trkpt lat="42.30297" lon="1.8335">
        <ele>2041.88</ele>
        <time>2024-11-03T10:32:34Z</time>
      </trkpt>
      <trkpt lat="42.30297" lon="1.83349">
        <ele>2042.2</ele>
        <time>2024-11-03T10:32:56Z</time>
      </trkpt>
      <trkpt lat="42.30296" lon="1.83351">
        <ele>2042.03</ele>
        <time>2024-11-03T10:33:22Z</time>
      </trkpt>
      <trkpt lat="42.30295" lon="1.83349">
        <ele>2042.15</ele>
        <time>2024-11-03T10:33:55Z</time>
      </trkpt>
      <trkpt lat="42.30292" lon="1.83353">
        <ele>2043.93</ele>
        <time>2024-11-03T10:34:17Z</time>
      </trkpt>
      <trkpt lat="42.30293" lon="1.83353">
        <ele>2042.85</ele>
        <time>2024-11-03T10:34:45Z</time>
      </trkpt>
      <trkpt lat="42.30291" lon="1.83349">
        <ele>2043.09</ele>
        <time>2024-11-03T10:35:08Z</time>
      </trkpt>
      <trkpt lat="42.30285" lon="1.83359">
        <ele>2044.1</ele>
        <time>2024-11-03T10:35:20Z</time>
      </trkpt>
      <trkpt lat="42.30286" lon="1.83363">
        <ele>2043.92</ele>
        <time>2024-11-03T10:35:42Z</time>
      </trkpt>
      <trkpt lat="42.30286" lon="1.83365">
        <ele>2043.95</ele>
        <time>2024-11-03T10:36:11Z</time>
      </trkpt>
      <trkpt lat="42.30283" lon="1.83363">
        <ele>2043.56</ele>
        <time>2024-11-03T10:36:37Z</time>
      </trkpt>
      <trkpt lat="42.30291" lon="1.83352">
        <ele>2043.23</ele>
        <time>2024-11-03T10:36:53Z</time>
      </trkpt>
      <trkpt lat="42.30295" lon="1.83352">
        <ele>2044.27</ele>
        <time>2024-11-03T10:37:07Z</time>
      </trkpt>
      <trkpt lat="42.30299" lon="1.83353">
        <ele>2044.39</ele>
        <time>2024-11-03T10:37:32Z</time>
      </trkpt>
      <trkpt lat="42.30297" lon="1.83357">
        <ele>2044.51</ele>
        <time>2024-11-03T10:37:47Z</time>
      </trkpt>
      <trkpt lat="42.30294" lon="1.83357">
        <ele>2045.3</ele>
        <time>2024-11-03T10:38:07Z</time>
      </trkpt>
      <trkpt lat="42.30296" lon="1.83355">
        <ele>2045.55</ele>
        <time>2024-11-03T10:38:37Z</time>
      </trkpt>
      <trkpt lat="42.30298" lon="1.83354">
        <ele>2045.75</ele>
        <time>2024-11-03T10:39:01Z</time>
      </trkpt>
      <trkpt lat="42.30299" lon="1.83355">
        <ele>2045.35</ele>
        <time>2024-11-03T10:39:27Z</time>
      </trkpt>
      <trkpt lat="42.30298" lon="1.83354">
        <ele>2045.51</ele>
        <time>2024-11-03T10:39:55Z</time>
      </trkpt>
      <trkpt lat="42.30298" lon="1.83353">
        <ele>2045.86</ele>
        <time>2024-11-03T10:40:17Z</time>
      </trkpt>
      <trkpt lat="42.30296" lon="1.83351">
        <ele>2045.13</ele>
        <time>2024-11-03T10:40:43Z</time>
      </trkpt>
      <trkpt lat="42.30294" lon="1.83348">
        <ele>2044.82</ele>
        <time>2024-11-03T10:41:10Z</time>
      </trkpt>
      <trkpt lat="42.30295" lon="1.83351">
        <ele>2044.6</ele>
        <time>2024-11-03T10:41:38Z</time>
      </trkpt>
      <trkpt lat="42.30301" lon="1.83358">
        <ele>2047.52</ele>
        <time>2024-11-03T10:42:02Z</time>
      </trkpt>
      <trkpt lat="42.30308" lon="1.83366">
        <ele>2049.98</ele>
        <time>2024-11-03T10:42:17Z</time>
      </trkpt>
      <trkpt lat="42.30315" lon="1.83369">
        <ele>2051.98</ele>
        <time>2024-11-03T10:42:28Z</time>
      </trkpt>
      <trkpt lat="42.30322" lon="1.83373">
        <ele>2053.54</ele>
        <time>2024-11-03T10:42:40Z</time>
      </trkpt>
      <trkpt lat="42.30323" lon="1.83377">
        <ele>2055.16</ele>
        <time>2024-11-03T10:42:53Z</time>
      </trkpt>
      <trkpt lat="42.30334" lon="1.83379">
        <ele>2058.6</ele>
        <time>2024-11-03T10:43:10Z</time>
      </trkpt>
      <trkpt lat="42.30337" lon="1.83385">
        <ele>2057.93</ele>
        <time>2024-11-03T10:43:25Z</time>
      </trkpt>
      <trkpt lat="42.30337" lon="1.83386">
        <ele>2058.38</ele>
        <time>2024-11-03T10:43:26Z</time>
      </trkpt>
      <trkpt lat="42.3034" lon="1.83395">
        <ele>2055.13</ele>
        <time>2024-11-03T10:43:45Z</time>
      </trkpt>
      <trkpt lat="42.30344" lon="1.83397">
        <ele>2058.16</ele>
        <time>2024-11-03T10:43:51Z</time>
      </trkpt>
      <trkpt lat="42.30347" lon="1.83406">
        <ele>2060.26</ele>
        <time>2024-11-03T10:44:04Z</time>
      </trkpt>
      <trkpt lat="42.30359" lon="1.83411">
        <ele>2062.18</ele>
        <time>2024-11-03T10:44:17Z</time>
      </trkpt>
      <trkpt lat="42.3037" lon="1.83426">
        <ele>2062.41</ele>
        <time>2024-11-03T10:44:38Z</time>
      </trkpt>
      <trkpt lat="42.30378" lon="1.83431">
        <ele>2064.11</ele>
        <time>2024-11-03T10:44:56Z</time>
      </trkpt>
      <trkpt lat="42.304" lon="1.83438">
        <ele>2063.32</ele>
        <time>2024-11-03T10:45:16Z</time>
      </trkpt>
      <trkpt lat="42.30416" lon="1.8345">
        <ele>2062.62</ele>
        <time>2024-11-03T10:45:35Z</time>
      </trkpt>
      <trkpt lat="42.3043" lon="1.83463">
        <ele>2062.63</ele>
        <time>2024-11-03T10:45:51Z</time>
      </trkpt>
      <trkpt lat="42.30445" lon="1.83488">
        <ele>2061.15</ele>
        <time>2024-11-03T10:46:13Z</time>
      </trkpt>
      <trkpt lat="42.30462" lon="1.83515">
        <ele>2061.25</ele>
        <time>2024-11-03T10:46:36Z</time>
      </trkpt>
      <trkpt lat="42.30485" lon="1.8354">
        <ele>2062.6</ele>
        <time>2024-11-03T10:46:54Z</time>
      </trkpt>
      <trkpt lat="42.30489" lon="1.83556">
        <ele>2066.1</ele>
        <time>2024-11-03T10:47:09Z</time>
      </trkpt>
      <trkpt lat="42.3049" lon="1.83557">
        <ele>2065.11</ele>
        <time>2024-11-03T10:47:11Z</time>
      </trkpt>
      <trkpt lat="42.30496" lon="1.83557">
        <ele>2066.83</ele>
        <time>2024-11-03T10:47:17Z</time>
      </trkpt>
      <trkpt lat="42.30498" lon="1.83561">
        <ele>2068.07</ele>
        <time>2024-11-03T10:47:24Z</time>
      </trkpt>
      <trkpt lat="42.30493" lon="1.83581">
        <ele>2068.59</ele>
        <time>2024-11-03T10:47:43Z</time>
      </trkpt>
      <trkpt lat="42.30502" lon="1.83588">
        <ele>2069.35</ele>
        <time>2024-11-03T10:47:57Z</time>
      </trkpt>
      <trkpt lat="42.30505" lon="1.83599">
        <ele>2072.09</ele>
        <time>2024-11-03T10:48:09Z</time>
      </trkpt>
      <trkpt lat="42.3051" lon="1.83605">
        <ele>2072.24</ele>
        <time>2024-11-03T10:48:15Z</time>
      </trkpt>
      <trkpt lat="42.30512" lon="1.83608">
        <ele>2073.17</ele>
        <time>2024-11-03T10:48:20Z</time>
      </trkpt>
      <trkpt lat="42.30516" lon="1.83614">
        <ele>2075.53</ele>
        <time>2024-11-03T10:48:37Z</time>
      </trkpt>
      <trkpt lat="42.30516" lon="1.8361">
        <ele>2075.9</ele>
        <time>2024-11-03T10:48:41Z</time>
      </trkpt>
      <trkpt lat="42.30518" lon="1.8361">
        <ele>2076.91</ele>
        <time>2024-11-03T10:48:43Z</time>
      </trkpt>
      <trkpt lat="42.30521" lon="1.83614">
        <ele>2076.15</ele>
        <time>2024-11-03T10:48:50Z</time>
      </trkpt>
      <trkpt lat="42.30521" lon="1.83616">
        <ele>2077.44</ele>
        <time>2024-11-03T10:48:53Z</time>
      </trkpt>
      <trkpt lat="42.30523" lon="1.83623">
        <ele>2079.87</ele>
        <time>2024-11-03T10:49:09Z</time>
      </trkpt>
      <trkpt lat="42.30523" lon="1.83624">
        <ele>2080.88</ele>
        <time>2024-11-03T10:49:15Z</time>
      </trkpt>
      <trkpt lat="42.30523" lon="1.83626">
        <ele>2081.05</ele>
        <time>2024-11-03T10:49:18Z</time>
      </trkpt>
      <trkpt lat="42.30521" lon="1.83627">
        <ele>2081.42</ele>
        <time>2024-11-03T10:49:21Z</time>
      </trkpt>
      <trkpt lat="42.30524" lon="1.8363">
        <ele>2083.24</ele>
        <time>2024-11-03T10:49:34Z</time>
      </trkpt>
      <trkpt lat="42.30528" lon="1.8363">
        <ele>2083.52</ele>
        <time>2024-11-03T10:49:42Z</time>
      </trkpt>
      <trkpt lat="42.30534" lon="1.83631">
        <ele>2087.11</ele>
        <time>2024-11-03T10:49:55Z</time>
      </trkpt>
      <trkpt lat="42.30534" lon="1.83638">
        <ele>2086.67</ele>
        <time>2024-11-03T10:49:59Z</time>
      </trkpt>
      <trkpt lat="42.30538" lon="1.83645">
        <ele>2089.29</ele>
        <time>2024-11-03T10:50:10Z</time>
      </trkpt>
      <trkpt lat="42.30541" lon="1.83642">
        <ele>2091.61</ele>
        <time>2024-11-03T10:50:31Z</time>
      </trkpt>
      <trkpt lat="42.30541" lon="1.83645">
        <ele>2095.08</ele>
        <time>2024-11-03T10:50:52Z</time>
      </trkpt>
      <trkpt lat="42.30543" lon="1.83648">
        <ele>2095.34</ele>
        <time>2024-11-03T10:51:01Z</time>
      </trkpt>
      <trkpt lat="42.30548" lon="1.83656">
        <ele>2099.02</ele>
        <time>2024-11-03T10:51:22Z</time>
      </trkpt>
      <trkpt lat="42.30553" lon="1.83664">
        <ele>2099.61</ele>
        <time>2024-11-03T10:51:43Z</time>
      </trkpt>
      <trkpt lat="42.30551" lon="1.83676">
        <ele>2101</ele>
        <time>2024-11-03T10:52:00Z</time>
      </trkpt>
      <trkpt lat="42.3055" lon="1.8368">
        <ele>2101.89</ele>
        <time>2024-11-03T10:52:04Z</time>
      </trkpt>
      <trkpt lat="42.30549" lon="1.837">
        <ele>2103.17</ele>
        <time>2024-11-03T10:52:28Z</time>
      </trkpt>
      <trkpt lat="42.30554" lon="1.83722">
        <ele>2105.26</ele>
        <time>2024-11-03T10:52:49Z</time>
      </trkpt>
      <trkpt lat="42.30554" lon="1.83728">
        <ele>2106.6</ele>
        <time>2024-11-03T10:52:57Z</time>
      </trkpt>
      <trkpt lat="42.30556" lon="1.83735">
        <ele>2107.27</ele>
        <time>2024-11-03T10:53:05Z</time>
      </trkpt>
      <trkpt lat="42.30556" lon="1.83738">
        <ele>2106.97</ele>
        <time>2024-11-03T10:53:07Z</time>
      </trkpt>
      <trkpt lat="42.30557" lon="1.83771">
        <ele>2109.48</ele>
        <time>2024-11-03T10:53:26Z</time>
      </trkpt>
      <trkpt lat="42.30555" lon="1.83787">
        <ele>2110.24</ele>
        <time>2024-11-03T10:53:31Z</time>
      </trkpt>
      <trkpt lat="42.30555" lon="1.83792">
        <ele>2110.71</ele>
        <time>2024-11-03T10:53:37Z</time>
      </trkpt>
      <trkpt lat="42.30556" lon="1.83803">
        <ele>2114.81</ele>
        <time>2024-11-03T10:53:46Z</time>
      </trkpt>
      <trkpt lat="42.30557" lon="1.8381">
        <ele>2113.98</ele>
        <time>2024-11-03T10:54:04Z</time>
      </trkpt>
      <trkpt lat="42.30557" lon="1.83812">
        <ele>2116.7</ele>
        <time>2024-11-03T10:54:23Z</time>
      </trkpt>
      <trkpt lat="42.30556" lon="1.83813">
        <ele>2120.29</ele>
        <time>2024-11-03T10:54:38Z</time>
      </trkpt>
      <trkpt lat="42.30557" lon="1.83815">
        <ele>2120.23</ele>
        <time>2024-11-03T10:54:46Z</time>
      </trkpt>
      <trkpt lat="42.30558" lon="1.83822">
        <ele>2123.6</ele>
        <time>2024-11-03T10:55:05Z</time>
      </trkpt>
      <trkpt lat="42.30557" lon="1.83826">
        <ele>2124.81</ele>
        <time>2024-11-03T10:55:16Z</time>
      </trkpt>
      <trkpt lat="42.30554" lon="1.83834">
        <ele>2126.91</ele>
        <time>2024-11-03T10:55:28Z</time>
      </trkpt>
      <trkpt lat="42.30551" lon="1.83839">
        <ele>2127.94</ele>
        <time>2024-11-03T10:55:36Z</time>
      </trkpt>
      <trkpt lat="42.30551" lon="1.83839">
        <ele>2128.3</ele>
        <time>2024-11-03T10:55:40Z</time>
      </trkpt>
      <trkpt lat="42.3055" lon="1.83842">
        <ele>2127.87</ele>
        <time>2024-11-03T10:55:44Z</time>
      </trkpt>
      <trkpt lat="42.3055" lon="1.83851">
        <ele>2129.91</ele>
        <time>2024-11-03T10:56:00Z</time>
      </trkpt>
      <trkpt lat="42.30552" lon="1.83857">
        <ele>2131.81</ele>
        <time>2024-11-03T10:56:14Z</time>
      </trkpt>
      <trkpt lat="42.30551" lon="1.83866">
        <ele>2131.31</ele>
        <time>2024-11-03T10:56:24Z</time>
      </trkpt>
      <trkpt lat="42.30552" lon="1.83875">
        <ele>2132.69</ele>
        <time>2024-11-03T10:56:41Z</time>
      </trkpt>
      <trkpt lat="42.30554" lon="1.83892">
        <ele>2135.81</ele>
        <time>2024-11-03T10:56:56Z</time>
      </trkpt>
      <trkpt lat="42.30557" lon="1.83899">
        <ele>2134.96</ele>
        <time>2024-11-03T10:57:13Z</time>
      </trkpt>
      <trkpt lat="42.30558" lon="1.83903">
        <ele>2133.46</ele>
        <time>2024-11-03T10:57:19Z</time>
      </trkpt>
      <trkpt lat="42.3056" lon="1.83928">
        <ele>2132.48</ele>
        <time>2024-11-03T10:57:39Z</time>
      </trkpt>
      <trkpt lat="42.30567" lon="1.83945">
        <ele>2134.9</ele>
        <time>2024-11-03T10:58:03Z</time>
      </trkpt>
      <trkpt lat="42.30569" lon="1.83953">
        <ele>2135.62</ele>
        <time>2024-11-03T10:58:14Z</time>
      </trkpt>
      <trkpt lat="42.30569" lon="1.8396">
        <ele>2138.15</ele>
        <time>2024-11-03T10:58:23Z</time>
      </trkpt>
      <trkpt lat="42.3057" lon="1.8397">
        <ele>2141.09</ele>
        <time>2024-11-03T10:58:45Z</time>
      </trkpt>
      <trkpt lat="42.30567" lon="1.83973">
        <ele>2144.58</ele>
        <time>2024-11-03T10:58:59Z</time>
      </trkpt>
      <trkpt lat="42.30567" lon="1.83974">
        <ele>2143.23</ele>
        <time>2024-11-03T10:59:00Z</time>
      </trkpt>
      <trkpt lat="42.30562" lon="1.8398">
        <ele>2146.41</ele>
        <time>2024-11-03T10:59:16Z</time>
      </trkpt>
      <trkpt lat="42.30569" lon="1.83982">
        <ele>2147.05</ele>
        <time>2024-11-03T10:59:30Z</time>
      </trkpt>
      <trkpt lat="42.30567" lon="1.83985">
        <ele>2147.83</ele>
        <time>2024-11-03T10:59:36Z</time>
      </trkpt>
      <trkpt lat="42.30562" lon="1.83981">
        <ele>2151.39</ele>
        <time>2024-11-03T10:59:58Z</time>
      </trkpt>
      <trkpt lat="42.30561" lon="1.83981">
        <ele>2151.4</ele>
        <time>2024-11-03T11:00:01Z</time>
      </trkpt>
      <trkpt lat="42.30557" lon="1.8398">
        <ele>2152.99</ele>
        <time>2024-11-03T11:00:14Z</time>
      </trkpt>
      <trkpt lat="42.30554" lon="1.8398">
        <ele>2154.52</ele>
        <time>2024-11-03T11:00:18Z</time>
      </trkpt>
      <trkpt lat="42.30549" lon="1.83979">
        <ele>2155.68</ele>
        <time>2024-11-03T11:00:28Z</time>
      </trkpt>
      <trkpt lat="42.30546" lon="1.83976">
        <ele>2157.02</ele>
        <time>2024-11-03T11:00:34Z</time>
      </trkpt>
      <trkpt lat="42.30542" lon="1.8397">
        <ele>2159.63</ele>
        <time>2024-11-03T11:00:51Z</time>
      </trkpt>
      <trkpt lat="42.3054" lon="1.83978">
        <ele>2161.01</ele>
        <time>2024-11-03T11:01:07Z</time>
      </trkpt>
      <trkpt lat="42.30543" lon="1.83983">
        <ele>2162.56</ele>
        <time>2024-11-03T11:01:22Z</time>
      </trkpt>
      <trkpt lat="42.30542" lon="1.83984">
        <ele>2163.93</ele>
        <time>2024-11-03T11:01:24Z</time>
      </trkpt>
      <trkpt lat="42.30549" lon="1.83991">
        <ele>2166.06</ele>
        <time>2024-11-03T11:01:44Z</time>
      </trkpt>
      <trkpt lat="42.30549" lon="1.84003">
        <ele>2169.05</ele>
        <time>2024-11-03T11:01:59Z</time>
      </trkpt>
      <trkpt lat="42.30549" lon="1.8401">
        <ele>2170.93</ele>
        <time>2024-11-03T11:02:13Z</time>
      </trkpt>
      <trkpt lat="42.30549" lon="1.8401">
        <ele>2170.12</ele>
        <time>2024-11-03T11:02:14Z</time>
      </trkpt>
      <trkpt lat="42.30551" lon="1.84024">
        <ele>2173.1</ele>
        <time>2024-11-03T11:02:32Z</time>
      </trkpt>
      <trkpt lat="42.30551" lon="1.84028">
        <ele>2173.7</ele>
        <time>2024-11-03T11:02:39Z</time>
      </trkpt>
      <trkpt lat="42.30555" lon="1.84039">
        <ele>2175.33</ele>
        <time>2024-11-03T11:02:57Z</time>
      </trkpt>
      <trkpt lat="42.30557" lon="1.84038">
        <ele>2176.14</ele>
        <time>2024-11-03T11:02:59Z</time>
      </trkpt>
      <trkpt lat="42.30556" lon="1.84045">
        <ele>2179.73</ele>
        <time>2024-11-03T11:03:18Z</time>
      </trkpt>
      <trkpt lat="42.30556" lon="1.84049">
        <ele>2179.9</ele>
        <time>2024-11-03T11:03:23Z</time>
      </trkpt>
      <trkpt lat="42.30553" lon="1.84061">
        <ele>2181.87</ele>
        <time>2024-11-03T11:03:42Z</time>
      </trkpt>
      <trkpt lat="42.30558" lon="1.84067">
        <ele>2185.01</ele>
        <time>2024-11-03T11:04:01Z</time>
      </trkpt>
      <trkpt lat="42.30566" lon="1.84081">
        <ele>2186.17</ele>
        <time>2024-11-03T11:04:18Z</time>
      </trkpt>
      <trkpt lat="42.30567" lon="1.84086">
        <ele>2186.58</ele>
        <time>2024-11-03T11:04:27Z</time>
      </trkpt>
      <trkpt lat="42.3057" lon="1.84096">
        <ele>2187.63</ele>
        <time>2024-11-03T11:04:57Z</time>
      </trkpt>
      <trkpt lat="42.30572" lon="1.84093">
        <ele>2187.53</ele>
        <time>2024-11-03T11:05:17Z</time>
      </trkpt>
      <trkpt lat="42.30573" lon="1.84096">
        <ele>2190.78</ele>
        <time>2024-11-03T11:05:43Z</time>
      </trkpt>
      <trkpt lat="42.30577" lon="1.84103">
        <ele>2190.79</ele>
        <time>2024-11-03T11:05:53Z</time>
      </trkpt>
      <trkpt lat="42.3058" lon="1.84112">
        <ele>2192.92</ele>
        <time>2024-11-03T11:06:08Z</time>
      </trkpt>
      <trkpt lat="42.30573" lon="1.84106">
        <ele>2196.11</ele>
        <time>2024-11-03T11:06:28Z</time>
      </trkpt>
      <trkpt lat="42.30581" lon="1.84107">
        <ele>2195.05</ele>
        <time>2024-11-03T11:06:48Z</time>
      </trkpt>
      <trkpt lat="42.30581" lon="1.84113">
        <ele>2193.43</ele>
        <time>2024-11-03T11:07:03Z</time>
      </trkpt>
      <trkpt lat="42.30584" lon="1.84117">
        <ele>2195.27</ele>
        <time>2024-11-03T11:07:11Z</time>
      </trkpt>
      <trkpt lat="42.30594" lon="1.84122">
        <ele>2196.8</ele>
        <time>2024-11-03T11:07:22Z</time>
      </trkpt>
      <trkpt lat="42.30601" lon="1.84138">
        <ele>2197.73</ele>
        <time>2024-11-03T11:07:37Z</time>
      </trkpt>
      <trkpt lat="42.30602" lon="1.84141">
        <ele>2198.5</ele>
        <time>2024-11-03T11:07:43Z</time>
      </trkpt>
      <trkpt lat="42.30607" lon="1.84146">
        <ele>2201.08</ele>
        <time>2024-11-03T11:07:54Z</time>
      </trkpt>
      <trkpt lat="42.30616" lon="1.8415">
        <ele>2201.93</ele>
        <time>2024-11-03T11:08:09Z</time>
      </trkpt>
      <trkpt lat="42.30613" lon="1.84154">
        <ele>2204.66</ele>
        <time>2024-11-03T11:08:27Z</time>
      </trkpt>
      <trkpt lat="42.30613" lon="1.84163">
        <ele>2204.59</ele>
        <time>2024-11-03T11:08:54Z</time>
      </trkpt>
      <trkpt lat="42.30621" lon="1.84169">
        <ele>2207.4</ele>
        <time>2024-11-03T11:09:19Z</time>
      </trkpt>
      <trkpt lat="42.30623" lon="1.84171">
        <ele>2210.1</ele>
        <time>2024-11-03T11:09:32Z</time>
      </trkpt>
      <trkpt lat="42.30629" lon="1.84172">
        <ele>2212.24</ele>
        <time>2024-11-03T11:09:41Z</time>
      </trkpt>
      <trkpt lat="42.30629" lon="1.84172">
        <ele>2212.04</ele>
        <time>2024-11-03T11:09:42Z</time>
      </trkpt>
      <trkpt lat="42.30635" lon="1.84173">
        <ele>2214.12</ele>
        <time>2024-11-03T11:09:58Z</time>
      </trkpt>
      <trkpt lat="42.3064" lon="1.84177">
        <ele>2215.7</ele>
        <time>2024-11-03T11:10:12Z</time>
      </trkpt>
      <trkpt lat="42.30643" lon="1.84186">
        <ele>2218.05</ele>
        <time>2024-11-03T11:10:30Z</time>
      </trkpt>
      <trkpt lat="42.3065" lon="1.84187">
        <ele>2220.17</ele>
        <time>2024-11-03T11:10:47Z</time>
      </trkpt>
      <trkpt lat="42.30653" lon="1.84186">
        <ele>2221.77</ele>
        <time>2024-11-03T11:10:58Z</time>
      </trkpt>
      <trkpt lat="42.30658" lon="1.84187">
        <ele>2223.01</ele>
        <time>2024-11-03T11:11:08Z</time>
      </trkpt>
      <trkpt lat="42.30657" lon="1.84188">
        <ele>2224.49</ele>
        <time>2024-11-03T11:11:17Z</time>
      </trkpt>
      <trkpt lat="42.30654" lon="1.84188">
        <ele>2226.9</ele>
        <time>2024-11-03T11:11:29Z</time>
      </trkpt>
      <trkpt lat="42.30654" lon="1.84192">
        <ele>2229.07</ele>
        <time>2024-11-03T11:11:42Z</time>
      </trkpt>
      <trkpt lat="42.30656" lon="1.84197">
        <ele>2230.11</ele>
        <time>2024-11-03T11:12:08Z</time>
      </trkpt>
      <trkpt lat="42.3066" lon="1.84197">
        <ele>2230.44</ele>
        <time>2024-11-03T11:12:19Z</time>
      </trkpt>
      <trkpt lat="42.30669" lon="1.84196">
        <ele>2229.98</ele>
        <time>2024-11-03T11:12:40Z</time>
      </trkpt>
      <trkpt lat="42.3067" lon="1.84197">
        <ele>2229.84</ele>
        <time>2024-11-03T11:13:04Z</time>
      </trkpt>
      <trkpt lat="42.30671" lon="1.84201">
        <ele>2230.5</ele>
        <time>2024-11-03T11:13:23Z</time>
      </trkpt>
      <trkpt lat="42.30668" lon="1.84209">
        <ele>2234</ele>
        <time>2024-11-03T11:13:38Z</time>
      </trkpt>
      <trkpt lat="42.30667" lon="1.84215">
        <ele>2237.31</ele>
        <time>2024-11-03T11:13:51Z</time>
      </trkpt>
      <trkpt lat="42.30667" lon="1.84226">
        <ele>2239.68</ele>
        <time>2024-11-03T11:14:15Z</time>
      </trkpt>
      <trkpt lat="42.30659" lon="1.8423">
        <ele>2242.11</ele>
        <time>2024-11-03T11:14:35Z</time>
      </trkpt>
      <trkpt lat="42.30655" lon="1.84236">
        <ele>2245.18</ele>
        <time>2024-11-03T11:14:50Z</time>
      </trkpt>
      <trkpt lat="42.30646" lon="1.84242">
        <ele>2246.85</ele>
        <time>2024-11-03T11:15:07Z</time>
      </trkpt>
      <trkpt lat="42.30645" lon="1.84242">
        <ele>2247.42</ele>
        <time>2024-11-03T11:15:08Z</time>
      </trkpt>
      <trkpt lat="42.30638" lon="1.84245">
        <ele>2246.93</ele>
        <time>2024-11-03T11:15:24Z</time>
      </trkpt>
      <trkpt lat="42.30638" lon="1.84248">
        <ele>2247.6</ele>
        <time>2024-11-03T11:15:41Z</time>
      </trkpt>
      <trkpt lat="42.30637" lon="1.84247">
        <ele>2247.8</ele>
        <time>2024-11-03T11:16:05Z</time>
      </trkpt>
      <trkpt lat="42.30635" lon="1.84245">
        <ele>2248.61</ele>
        <time>2024-11-03T11:16:32Z</time>
      </trkpt>
      <trkpt lat="42.30635" lon="1.84244">
        <ele>2249.09</ele>
        <time>2024-11-03T11:16:53Z</time>
      </trkpt>
      <trkpt lat="42.30633" lon="1.84242">
        <ele>2249.62</ele>
        <time>2024-11-03T11:17:10Z</time>
      </trkpt>
      <trkpt lat="42.30636" lon="1.84243">
        <ele>2248.5</ele>
        <time>2024-11-03T11:17:34Z</time>
      </trkpt>
      <trkpt lat="42.30636" lon="1.8424">
        <ele>2248.88</ele>
        <time>2024-11-03T11:17:55Z</time>
      </trkpt>
      <trkpt lat="42.30636" lon="1.84239">
        <ele>2249.28</ele>
        <time>2024-11-03T11:18:22Z</time>
      </trkpt>
      <trkpt lat="42.30635" lon="1.8424">
        <ele>2249.68</ele>
        <time>2024-11-03T11:18:41Z</time>
      </trkpt>
      <trkpt lat="42.30636" lon="1.84243">
        <ele>2249.16</ele>
        <time>2024-11-03T11:18:55Z</time>
      </trkpt>
      <trkpt lat="42.30633" lon="1.8425">
        <ele>2250.21</ele>
        <time>2024-11-03T11:19:16Z</time>
      </trkpt>
      <trkpt lat="42.30636" lon="1.84248">
        <ele>2249.9</ele>
        <time>2024-11-03T11:19:36Z</time>
      </trkpt>
      <trkpt lat="42.30637" lon="1.8425">
        <ele>2249</ele>
        <time>2024-11-03T11:19:56Z</time>
      </trkpt>
      <trkpt lat="42.30641" lon="1.84256">
        <ele>2245.78</ele>
        <time>2024-11-03T11:20:09Z</time>
      </trkpt>
      <trkpt lat="42.30642" lon="1.8427">
        <ele>2242</ele>
        <time>2024-11-03T11:20:25Z</time>
      </trkpt>
      <trkpt lat="42.30642" lon="1.84271">
        <ele>2241.9</ele>
        <time>2024-11-03T11:20:26Z</time>
      </trkpt>
      <trkpt lat="42.30642" lon="1.84273">
        <ele>2241.89</ele>
        <time>2024-11-03T11:20:29Z</time>
      </trkpt>
      <trkpt lat="42.30645" lon="1.84286">
        <ele>2239.18</ele>
        <time>2024-11-03T11:20:45Z</time>
      </trkpt>
      <trkpt lat="42.30645" lon="1.8429">
        <ele>2238.84</ele>
        <time>2024-11-03T11:20:48Z</time>
      </trkpt>
      <trkpt lat="42.30645" lon="1.84302">
        <ele>2242.61</ele>
        <time>2024-11-03T11:21:04Z</time>
      </trkpt>
      <trkpt lat="42.30641" lon="1.84309">
        <ele>2245.94</ele>
        <time>2024-11-03T11:21:18Z</time>
      </trkpt>
      <trkpt lat="42.30639" lon="1.84316">
        <ele>2248.81</ele>
        <time>2024-11-03T11:21:37Z</time>
      </trkpt>
      <trkpt lat="42.30637" lon="1.84319">
        <ele>2251.43</ele>
        <time>2024-11-03T11:21:53Z</time>
      </trkpt>
      <trkpt lat="42.3064" lon="1.84326">
        <ele>2253.04</ele>
        <time>2024-11-03T11:22:07Z</time>
      </trkpt>
      <trkpt lat="42.3064" lon="1.84327">
        <ele>2253.33</ele>
        <time>2024-11-03T11:22:21Z</time>
      </trkpt>
      <trkpt lat="42.30643" lon="1.8432">
        <ele>2252.15</ele>
        <time>2024-11-03T11:22:40Z</time>
      </trkpt>
      <trkpt lat="42.30638" lon="1.84323">
        <ele>2253.27</ele>
        <time>2024-11-03T11:22:53Z</time>
      </trkpt>
      <trkpt lat="42.3064" lon="1.84324">
        <ele>2253.37</ele>
        <time>2024-11-03T11:23:11Z</time>
      </trkpt>
      <trkpt lat="42.30639" lon="1.84318">
        <ele>2251.29</ele>
        <time>2024-11-03T11:23:25Z</time>
      </trkpt>
      <trkpt lat="42.30641" lon="1.84314">
        <ele>2249.4</ele>
        <time>2024-11-03T11:23:42Z</time>
      </trkpt>
      <trkpt lat="42.30643" lon="1.84307">
        <ele>2246.36</ele>
        <time>2024-11-03T11:24:02Z</time>
      </trkpt>
      <trkpt lat="42.30646" lon="1.84304">
        <ele>2244.49</ele>
        <time>2024-11-03T11:24:11Z</time>
      </trkpt>
      <trkpt lat="42.30647" lon="1.84288">
        <ele>2241.92</ele>
        <time>2024-11-03T11:24:34Z</time>
      </trkpt>
      <trkpt lat="42.30644" lon="1.84282">
        <ele>2245</ele>
        <time>2024-11-03T11:24:44Z</time>
      </trkpt>
      <trkpt lat="42.30645" lon="1.84276">
        <ele>2245.27</ele>
        <time>2024-11-03T11:25:04Z</time>
      </trkpt>
      <trkpt lat="42.30642" lon="1.84263">
        <ele>2247.45</ele>
        <time>2024-11-03T11:25:23Z</time>
      </trkpt>
      <trkpt lat="42.30639" lon="1.84255">
        <ele>2250.5</ele>
        <time>2024-11-03T11:25:39Z</time>
      </trkpt>
      <trkpt lat="42.30634" lon="1.8425">
        <ele>2254.16</ele>
        <time>2024-11-03T11:25:56Z</time>
      </trkpt>
      <trkpt lat="42.30632" lon="1.84248">
        <ele>2254.88</ele>
        <time>2024-11-03T11:26:15Z</time>
      </trkpt>
      <trkpt lat="42.30633" lon="1.84245">
        <ele>2255.65</ele>
        <time>2024-11-03T11:26:29Z</time>
      </trkpt>
      <trkpt lat="42.30633" lon="1.84245">
        <ele>2255.34</ele>
        <time>2024-11-03T11:26:50Z</time>
      </trkpt>
      <trkpt lat="42.30633" lon="1.84245">
        <ele>2254.35</ele>
        <time>2024-11-03T11:27:14Z</time>
      </trkpt>
      <trkpt lat="42.30633" lon="1.84245">
        <ele>2255.44</ele>
        <time>2024-11-03T11:27:42Z</time>
      </trkpt>
      <trkpt lat="42.30635" lon="1.84245">
        <ele>2255.78</ele>
        <time>2024-11-03T11:28:12Z</time>
      </trkpt>
      <trkpt lat="42.30638" lon="1.84244">
        <ele>2255.9</ele>
        <time>2024-11-03T11:28:33Z</time>
      </trkpt>
      <trkpt lat="42.30636" lon="1.8424">
        <ele>2256.74</ele>
        <time>2024-11-03T11:28:47Z</time>
      </trkpt>
      <trkpt lat="42.30634" lon="1.84242">
        <ele>2257.49</ele>
        <time>2024-11-03T11:29:07Z</time>
      </trkpt>
      <trkpt lat="42.30634" lon="1.84243">
        <ele>2257.56</ele>
        <time>2024-11-03T11:29:36Z</time>
      </trkpt>
      <trkpt lat="42.30631" lon="1.84244">
        <ele>2257.76</ele>
        <time>2024-11-03T11:29:58Z</time>
      </trkpt>
      <trkpt lat="42.30631" lon="1.84243">
        <ele>2258.32</ele>
        <time>2024-11-03T11:30:20Z</time>
      </trkpt>
      <trkpt lat="42.30631" lon="1.84245">
        <ele>2258.03</ele>
        <time>2024-11-03T11:30:49Z</time>
      </trkpt>
      <trkpt lat="42.3063" lon="1.84244">
        <ele>2258.69</ele>
        <time>2024-11-03T11:31:28Z</time>
      </trkpt>
      <trkpt lat="42.3063" lon="1.84245">
        <ele>2258.39</ele>
        <time>2024-11-03T11:32:06Z</time>
      </trkpt>
      <trkpt lat="42.3063" lon="1.84245">
        <ele>2259</ele>
        <time>2024-11-03T11:32:37Z</time>
      </trkpt>
      <trkpt lat="42.30631" lon="1.84242">
        <ele>2258.91</ele>
        <time>2024-11-03T11:32:57Z</time>
      </trkpt>
      <trkpt lat="42.30631" lon="1.84244">
        <ele>2259.86</ele>
        <time>2024-11-03T11:33:20Z</time>
      </trkpt>
      <trkpt lat="42.3063" lon="1.84245">
        <ele>2259.92</ele>
        <time>2024-11-03T11:33:40Z</time>
      </trkpt>
      <trkpt lat="42.30632" lon="1.84248">
        <ele>2260.69</ele>
        <time>2024-11-03T11:34:10Z</time>
      </trkpt>
      <trkpt lat="42.30629" lon="1.84248">
        <ele>2260.79</ele>
        <time>2024-11-03T11:34:50Z</time>
      </trkpt>
      <trkpt lat="42.30634" lon="1.84247">
        <ele>2259.16</ele>
        <time>2024-11-03T11:34:57Z</time>
      </trkpt>
      <trkpt lat="42.30634" lon="1.84246">
        <ele>2260.39</ele>
        <time>2024-11-03T11:35:12Z</time>
      </trkpt>
      <trkpt lat="42.30635" lon="1.84245">
        <ele>2260.58</ele>
        <time>2024-11-03T11:35:36Z</time>
      </trkpt>
      <trkpt lat="42.30635" lon="1.84245">
        <ele>2260.8</ele>
        <time>2024-11-03T11:36:01Z</time>
      </trkpt>
      <trkpt lat="42.30635" lon="1.84241">
        <ele>2260.78</ele>
        <time>2024-11-03T11:36:23Z</time>
      </trkpt>
      <trkpt lat="42.30638" lon="1.84238">
        <ele>2261.18</ele>
        <time>2024-11-03T11:36:36Z</time>
      </trkpt>
      <trkpt lat="42.30649" lon="1.84231">
        <ele>2258.98</ele>
        <time>2024-11-03T11:36:54Z</time>
      </trkpt>
      <trkpt lat="42.30658" lon="1.84225">
        <ele>2255.98</ele>
        <time>2024-11-03T11:37:10Z</time>
      </trkpt>
      <trkpt lat="42.30662" lon="1.84223">
        <ele>2254.95</ele>
        <time>2024-11-03T11:37:16Z</time>
      </trkpt>
      <trkpt lat="42.30666" lon="1.84224">
        <ele>2253.72</ele>
        <time>2024-11-03T11:37:20Z</time>
      </trkpt>
      <trkpt lat="42.30666" lon="1.84213">
        <ele>2251.08</ele>
        <time>2024-11-03T11:37:33Z</time>
      </trkpt>
      <trkpt lat="42.30665" lon="1.84205">
        <ele>2248.4</ele>
        <time>2024-11-03T11:37:45Z</time>
      </trkpt>
      <trkpt lat="42.30668" lon="1.84197">
        <ele>2244.86</ele>
        <time>2024-11-03T11:37:55Z</time>
      </trkpt>
      <trkpt lat="42.30667" lon="1.84197">
        <ele>2244.89</ele>
        <time>2024-11-03T11:37:56Z</time>
      </trkpt>
      <trkpt lat="42.30662" lon="1.84196">
        <ele>2243.55</ele>
        <time>2024-11-03T11:38:02Z</time>
      </trkpt>
      <trkpt lat="42.3066" lon="1.84187">
        <ele>2238.65</ele>
        <time>2024-11-03T11:38:16Z</time>
      </trkpt>
      <trkpt lat="42.30654" lon="1.84186">
        <ele>2235.46</ele>
        <time>2024-11-03T11:38:27Z</time>
      </trkpt>
      <trkpt lat="42.30653" lon="1.84186">
        <ele>2235.17</ele>
        <time>2024-11-03T11:38:28Z</time>
      </trkpt>
      <trkpt lat="42.30644" lon="1.84181">
        <ele>2233.31</ele>
        <time>2024-11-03T11:38:38Z</time>
      </trkpt>
      <trkpt lat="42.3064" lon="1.84173">
        <ele>2230.59</ele>
        <time>2024-11-03T11:38:46Z</time>
      </trkpt>
      <trkpt lat="42.30634" lon="1.84168">
        <ele>2227.95</ele>
        <time>2024-11-03T11:38:56Z</time>
      </trkpt>
      <trkpt lat="42.30628" lon="1.84167">
        <ele>2224.71</ele>
        <time>2024-11-03T11:39:10Z</time>
      </trkpt>
      <trkpt lat="42.30615" lon="1.84159">
        <ele>2221.05</ele>
        <time>2024-11-03T11:39:22Z</time>
      </trkpt>
      <trkpt lat="42.30619" lon="1.84151">
        <ele>2218.79</ele>
        <time>2024-11-03T11:39:35Z</time>
      </trkpt>
      <trkpt lat="42.30613" lon="1.84142">
        <ele>2215.19</ele>
        <time>2024-11-03T11:39:49Z</time>
      </trkpt>
      <trkpt lat="42.3061" lon="1.8414">
        <ele>2215.02</ele>
        <time>2024-11-03T11:39:52Z</time>
      </trkpt>
      <trkpt lat="42.306" lon="1.84125">
        <ele>2213.83</ele>
        <time>2024-11-03T11:40:03Z</time>
      </trkpt>
      <trkpt lat="42.30599" lon="1.84116">
        <ele>2212.56</ele>
        <time>2024-11-03T11:40:10Z</time>
      </trkpt>
      <trkpt lat="42.30601" lon="1.84102">
        <ele>2209.96</ele>
        <time>2024-11-03T11:40:23Z</time>
      </trkpt>
      <trkpt lat="42.306" lon="1.84099">
        <ele>2209.83</ele>
        <time>2024-11-03T11:40:25Z</time>
      </trkpt>
      <trkpt lat="42.30592" lon="1.84095">
        <ele>2207.21</ele>
        <time>2024-11-03T11:40:39Z</time>
      </trkpt>
      <trkpt lat="42.30592" lon="1.84092">
        <ele>2207.72</ele>
        <time>2024-11-03T11:40:55Z</time>
      </trkpt>
      <trkpt lat="42.30589" lon="1.84089">
        <ele>2203.45</ele>
        <time>2024-11-03T11:41:11Z</time>
      </trkpt>
      <trkpt lat="42.30582" lon="1.84084">
        <ele>2204.64</ele>
        <time>2024-11-03T11:41:33Z</time>
      </trkpt>
      <trkpt lat="42.30574" lon="1.84071">
        <ele>2201.2</ele>
        <time>2024-11-03T11:41:52Z</time>
      </trkpt>
      <trkpt lat="42.30568" lon="1.84056">
        <ele>2197.94</ele>
        <time>2024-11-03T11:42:12Z</time>
      </trkpt>
      <trkpt lat="42.30563" lon="1.84046">
        <ele>2194.63</ele>
        <time>2024-11-03T11:42:28Z</time>
      </trkpt>
      <trkpt lat="42.30557" lon="1.84035">
        <ele>2190.91</ele>
        <time>2024-11-03T11:42:45Z</time>
      </trkpt>
      <trkpt lat="42.30556" lon="1.84034">
        <ele>2191.07</ele>
        <time>2024-11-03T11:42:46Z</time>
      </trkpt>
      <trkpt lat="42.30551" lon="1.84018">
        <ele>2187.83</ele>
        <time>2024-11-03T11:43:01Z</time>
      </trkpt>
      <trkpt lat="42.3055" lon="1.84011">
        <ele>2187.04</ele>
        <time>2024-11-03T11:43:07Z</time>
      </trkpt>
      <trkpt lat="42.30547" lon="1.83998">
        <ele>2183.73</ele>
        <time>2024-11-03T11:43:21Z</time>
      </trkpt>
      <trkpt lat="42.30549" lon="1.83996">
        <ele>2183.35</ele>
        <time>2024-11-03T11:43:25Z</time>
      </trkpt>
      <trkpt lat="42.30549" lon="1.83986">
        <ele>2179.7</ele>
        <time>2024-11-03T11:43:39Z</time>
      </trkpt>
      <trkpt lat="42.30548" lon="1.83974">
        <ele>2177.74</ele>
        <time>2024-11-03T11:43:50Z</time>
      </trkpt>
      <trkpt lat="42.30555" lon="1.83973">
        <ele>2173.79</ele>
        <time>2024-11-03T11:44:08Z</time>
      </trkpt>
      <trkpt lat="42.30562" lon="1.83978">
        <ele>2170.68</ele>
        <time>2024-11-03T11:44:22Z</time>
      </trkpt>
      <trkpt lat="42.30568" lon="1.83978">
        <ele>2167.09</ele>
        <time>2024-11-03T11:44:33Z</time>
      </trkpt>
      <trkpt lat="42.30573" lon="1.83981">
        <ele>2165.73</ele>
        <time>2024-11-03T11:44:44Z</time>
      </trkpt>
      <trkpt lat="42.30572" lon="1.83972">
        <ele>2162.6</ele>
        <time>2024-11-03T11:45:01Z</time>
      </trkpt>
      <trkpt lat="42.30572" lon="1.8397">
        <ele>2161.57</ele>
        <time>2024-11-03T11:45:05Z</time>
      </trkpt>
      <trkpt lat="42.30579" lon="1.83961">
        <ele>2157.47</ele>
        <time>2024-11-03T11:45:21Z</time>
      </trkpt>
      <trkpt lat="42.30577" lon="1.83958">
        <ele>2157.14</ele>
        <time>2024-11-03T11:45:26Z</time>
      </trkpt>
      <trkpt lat="42.30581" lon="1.83949">
        <ele>2153.4</ele>
        <time>2024-11-03T11:45:43Z</time>
      </trkpt>
      <trkpt lat="42.30579" lon="1.83944">
        <ele>2152.77</ele>
        <time>2024-11-03T11:45:48Z</time>
      </trkpt>
      <trkpt lat="42.30578" lon="1.8393">
        <ele>2150.95</ele>
        <time>2024-11-03T11:46:03Z</time>
      </trkpt>
      <trkpt lat="42.3057" lon="1.83916">
        <ele>2153.5</ele>
        <time>2024-11-03T11:46:18Z</time>
      </trkpt>
      <trkpt lat="42.30566" lon="1.83906">
        <ele>2154.41</ele>
        <time>2024-11-03T11:46:27Z</time>
      </trkpt>
      <trkpt lat="42.30562" lon="1.83903">
        <ele>2154.68</ele>
        <time>2024-11-03T11:46:30Z</time>
      </trkpt>
      <trkpt lat="42.30547" lon="1.83901">
        <ele>2152.65</ele>
        <time>2024-11-03T11:46:45Z</time>
      </trkpt>
      <trkpt lat="42.30539" lon="1.83905">
        <ele>2150.56</ele>
        <time>2024-11-03T11:47:01Z</time>
      </trkpt>
      <trkpt lat="42.30537" lon="1.83907">
        <ele>2149.15</ele>
        <time>2024-11-03T11:47:04Z</time>
      </trkpt>
      <trkpt lat="42.30531" lon="1.83914">
        <ele>2145.62</ele>
        <time>2024-11-03T11:47:17Z</time>
      </trkpt>
      <trkpt lat="42.30528" lon="1.83909">
        <ele>2142.63</ele>
        <time>2024-11-03T11:47:32Z</time>
      </trkpt>
      <trkpt lat="42.30531" lon="1.83893">
        <ele>2140.82</ele>
        <time>2024-11-03T11:47:50Z</time>
      </trkpt>
      <trkpt lat="42.30527" lon="1.83885">
        <ele>2139.97</ele>
        <time>2024-11-03T11:48:08Z</time>
      </trkpt>
      <trkpt lat="42.30526" lon="1.83886">
        <ele>2138.54</ele>
        <time>2024-11-03T11:48:23Z</time>
      </trkpt>
      <trkpt lat="42.30527" lon="1.83889">
        <ele>2140.37</ele>
        <time>2024-11-03T11:48:35Z</time>
      </trkpt>
      <trkpt lat="42.30529" lon="1.83885">
        <ele>2143.82</ele>
        <time>2024-11-03T11:48:45Z</time>
      </trkpt>
      <trkpt lat="42.30529" lon="1.83883">
        <ele>2143.9</ele>
        <time>2024-11-03T11:48:47Z</time>
      </trkpt>
      <trkpt lat="42.30527" lon="1.83877">
        <ele>2144.4</ele>
        <time>2024-11-03T11:48:56Z</time>
      </trkpt>
      <trkpt lat="42.30527" lon="1.83874">
        <ele>2144.29</ele>
        <time>2024-11-03T11:49:01Z</time>
      </trkpt>
      <trkpt lat="42.30528" lon="1.8386">
        <ele>2146.54</ele>
        <time>2024-11-03T11:49:15Z</time>
      </trkpt>
      <trkpt lat="42.30532" lon="1.83851">
        <ele>2148.56</ele>
        <time>2024-11-03T11:49:34Z</time>
      </trkpt>
      <trkpt lat="42.30539" lon="1.83846">
        <ele>2148.47</ele>
        <time>2024-11-03T11:49:50Z</time>
      </trkpt>
      <trkpt lat="42.30546" lon="1.83843">
        <ele>2148.04</ele>
        <time>2024-11-03T11:50:10Z</time>
      </trkpt>
      <trkpt lat="42.30551" lon="1.83828">
        <ele>2144.47</ele>
        <time>2024-11-03T11:50:26Z</time>
      </trkpt>
      <trkpt lat="42.30551" lon="1.83828">
        <ele>2144.38</ele>
        <time>2024-11-03T11:50:27Z</time>
      </trkpt>
      <trkpt lat="42.30548" lon="1.83819">
        <ele>2141.41</ele>
        <time>2024-11-03T11:50:48Z</time>
      </trkpt>
      <trkpt lat="42.30548" lon="1.83815">
        <ele>2138.27</ele>
        <time>2024-11-03T11:51:00Z</time>
      </trkpt>
      <trkpt lat="42.30546" lon="1.83811">
        <ele>2138.07</ele>
        <time>2024-11-03T11:51:16Z</time>
      </trkpt>
      <trkpt lat="42.30543" lon="1.83809">
        <ele>2135.42</ele>
        <time>2024-11-03T11:51:31Z</time>
      </trkpt>
      <trkpt lat="42.30546" lon="1.83809">
        <ele>2134.29</ele>
        <time>2024-11-03T11:51:36Z</time>
      </trkpt>
      <trkpt lat="42.30542" lon="1.838">
        <ele>2131.29</ele>
        <time>2024-11-03T11:51:52Z</time>
      </trkpt>
      <trkpt lat="42.30544" lon="1.83789">
        <ele>2128.05</ele>
        <time>2024-11-03T11:52:08Z</time>
      </trkpt>
      <trkpt lat="42.30541" lon="1.83772">
        <ele>2125.8</ele>
        <time>2024-11-03T11:52:21Z</time>
      </trkpt>
      <trkpt lat="42.30534" lon="1.83752">
        <ele>2123.38</ele>
        <time>2024-11-03T11:52:39Z</time>
      </trkpt>
      <trkpt lat="42.30535" lon="1.83751">
        <ele>2122.3</ele>
        <time>2024-11-03T11:52:41Z</time>
      </trkpt>
      <trkpt lat="42.30545" lon="1.8372">
        <ele>2119.98</ele>
        <time>2024-11-03T11:53:03Z</time>
      </trkpt>
      <trkpt lat="42.30547" lon="1.83696">
        <ele>2118.66</ele>
        <time>2024-11-03T11:53:17Z</time>
      </trkpt>
      <trkpt lat="42.30547" lon="1.83693">
        <ele>2117.9</ele>
        <time>2024-11-03T11:53:19Z</time>
      </trkpt>
      <trkpt lat="42.30546" lon="1.83687">
        <ele>2116.36</ele>
        <time>2024-11-03T11:53:23Z</time>
      </trkpt>
      <trkpt lat="42.30543" lon="1.83671">
        <ele>2112.74</ele>
        <time>2024-11-03T11:53:36Z</time>
      </trkpt>
      <trkpt lat="42.30543" lon="1.8367">
        <ele>2112.77</ele>
        <time>2024-11-03T11:53:37Z</time>
      </trkpt>
      <trkpt lat="42.30537" lon="1.83657">
        <ele>2108.75</ele>
        <time>2024-11-03T11:53:47Z</time>
      </trkpt>
      <trkpt lat="42.30536" lon="1.83657">
        <ele>2109.32</ele>
        <time>2024-11-03T11:53:48Z</time>
      </trkpt>
      <trkpt lat="42.30528" lon="1.83645">
        <ele>2106.03</ele>
        <time>2024-11-03T11:54:00Z</time>
      </trkpt>
      <trkpt lat="42.30524" lon="1.83638">
        <ele>2103.74</ele>
        <time>2024-11-03T11:54:10Z</time>
      </trkpt>
      <trkpt lat="42.30518" lon="1.83634">
        <ele>2101.09</ele>
        <time>2024-11-03T11:54:20Z</time>
      </trkpt>
      <trkpt lat="42.30514" lon="1.83628">
        <ele>2098.11</ele>
        <time>2024-11-03T11:54:35Z</time>
      </trkpt>
      <trkpt lat="42.30512" lon="1.83625">
        <ele>2097.26</ele>
        <time>2024-11-03T11:54:40Z</time>
      </trkpt>
      <trkpt lat="42.3051" lon="1.8362">
        <ele>2094.44</ele>
        <time>2024-11-03T11:54:50Z</time>
      </trkpt>
      <trkpt lat="42.30509" lon="1.83613">
        <ele>2092.2</ele>
        <time>2024-11-03T11:54:57Z</time>
      </trkpt>
      <trkpt lat="42.305" lon="1.83606">
        <ele>2088.8</ele>
        <time>2024-11-03T11:55:11Z</time>
      </trkpt>
      <trkpt lat="42.30499" lon="1.83604">
        <ele>2088.04</ele>
        <time>2024-11-03T11:55:13Z</time>
      </trkpt>
      <trkpt lat="42.30495" lon="1.83593">
        <ele>2085.51</ele>
        <time>2024-11-03T11:55:21Z</time>
      </trkpt>
      <trkpt lat="42.3049" lon="1.83575">
        <ele>2082.37</ele>
        <time>2024-11-03T11:55:37Z</time>
      </trkpt>
      <trkpt lat="42.30486" lon="1.83562">
        <ele>2080.79</ele>
        <time>2024-11-03T11:55:46Z</time>
      </trkpt>
      <trkpt lat="42.30483" lon="1.83557">
        <ele>2080.17</ele>
        <time>2024-11-03T11:55:49Z</time>
      </trkpt>
      <trkpt lat="42.30471" lon="1.83535">
        <ele>2079.5</ele>
        <time>2024-11-03T11:56:00Z</time>
      </trkpt>
      <trkpt lat="42.30468" lon="1.83515">
        <ele>2079.15</ele>
        <time>2024-11-03T11:56:14Z</time>
      </trkpt>
      <trkpt lat="42.30461" lon="1.83499">
        <ele>2079.76</ele>
        <time>2024-11-03T11:56:33Z</time>
      </trkpt>
      <trkpt lat="42.30454" lon="1.83488">
        <ele>2080.12</ele>
        <time>2024-11-03T11:56:44Z</time>
      </trkpt>
      <trkpt lat="42.30436" lon="1.83466">
        <ele>2080.6</ele>
        <time>2024-11-03T11:57:05Z</time>
      </trkpt>
      <trkpt lat="42.30425" lon="1.83449">
        <ele>2081.46</ele>
        <time>2024-11-03T11:57:15Z</time>
      </trkpt>
      <trkpt lat="42.30403" lon="1.83427">
        <ele>2081.76</ele>
        <time>2024-11-03T11:57:29Z</time>
      </trkpt>
      <trkpt lat="42.30387" lon="1.83423">
        <ele>2079.91</ele>
        <time>2024-11-03T11:57:46Z</time>
      </trkpt>
      <trkpt lat="42.30386" lon="1.83423">
        <ele>2078.95</ele>
        <time>2024-11-03T11:57:48Z</time>
      </trkpt>
      <trkpt lat="42.30372" lon="1.83422">
        <ele>2080.03</ele>
        <time>2024-11-03T11:58:01Z</time>
      </trkpt>
      <trkpt lat="42.30366" lon="1.83416">
        <ele>2076.91</ele>
        <time>2024-11-03T11:58:13Z</time>
      </trkpt>
      <trkpt lat="42.30359" lon="1.83405">
        <ele>2073.11</ele>
        <time>2024-11-03T11:58:30Z</time>
      </trkpt>
      <trkpt lat="42.30348" lon="1.834">
        <ele>2074.3</ele>
        <time>2024-11-03T11:58:48Z</time>
      </trkpt>
      <trkpt lat="42.30345" lon="1.83399">
        <ele>2074.96</ele>
        <time>2024-11-03T11:58:55Z</time>
      </trkpt>
      <trkpt lat="42.30334" lon="1.83386">
        <ele>2074.64</ele>
        <time>2024-11-03T11:59:14Z</time>
      </trkpt>
      <trkpt lat="42.30327" lon="1.83378">
        <ele>2071.64</ele>
        <time>2024-11-03T11:59:29Z</time>
      </trkpt>
      <trkpt lat="42.30324" lon="1.8338">
        <ele>2069.76</ele>
        <time>2024-11-03T11:59:38Z</time>
      </trkpt>
      <trkpt lat="42.30312" lon="1.83369">
        <ele>2066.16</ele>
        <time>2024-11-03T11:59:53Z</time>
      </trkpt>
      <trkpt lat="42.30303" lon="1.83361">
        <ele>2063.46</ele>
        <time>2024-11-03T12:00:13Z</time>
      </trkpt>
      <trkpt lat="42.30296" lon="1.83356">
        <ele>2062.15</ele>
        <time>2024-11-03T12:00:29Z</time>
      </trkpt>
      <trkpt lat="42.30293" lon="1.83354">
        <ele>2062.24</ele>
        <time>2024-11-03T12:00:53Z</time>
      </trkpt>
      <trkpt lat="42.30292" lon="1.8335">
        <ele>2061.64</ele>
        <time>2024-11-03T12:01:18Z</time>
      </trkpt>
      <trkpt lat="42.30292" lon="1.8335">
        <ele>2062.68</ele>
        <time>2024-11-03T12:01:45Z</time>
      </trkpt>
      <trkpt lat="42.30291" lon="1.8335">
        <ele>2062.14</ele>
        <time>2024-11-03T12:02:09Z</time>
      </trkpt>
      <trkpt lat="42.30292" lon="1.8335">
        <ele>2061.92</ele>
        <time>2024-11-03T12:02:29Z</time>
      </trkpt>
      <trkpt lat="42.30291" lon="1.8335">
        <ele>2061.23</ele>
        <time>2024-11-03T12:02:46Z</time>
      </trkpt>
      <trkpt lat="42.30291" lon="1.83349">
        <ele>2061.98</ele>
        <time>2024-11-03T12:03:00Z</time>
      </trkpt>
      <trkpt lat="42.30292" lon="1.83353">
        <ele>2062.95</ele>
        <time>2024-11-03T12:33:41Z</time>
      </trkpt>
      <trkpt lat="42.30292" lon="1.8335">
        <ele>2060.8</ele>
        <time>2024-11-03T12:34:08Z</time>
      </trkpt>
      <trkpt lat="42.30292" lon="1.83349">
        <ele>2059.77</ele>
        <time>2024-11-03T12:34:32Z</time>
      </trkpt>
      <trkpt lat="42.30292" lon="1.8335">
        <ele>2058.91</ele>
        <time>2024-11-03T12:34:59Z</time>
      </trkpt>
      <trkpt lat="42.30292" lon="1.83349">
        <ele>2058.44</ele>
        <time>2024-11-03T12:35:24Z</time>
      </trkpt>
      <trkpt lat="42.30292" lon="1.83348">
        <ele>2058.12</ele>
        <time>2024-11-03T12:35:44Z</time>
      </trkpt>
      <trkpt lat="42.30285" lon="1.83347">
        <ele>2057.55</ele>
        <time>2024-11-03T12:35:59Z</time>
      </trkpt>
      <trkpt lat="42.30277" lon="1.83337">
        <ele>2058.38</ele>
        <time>2024-11-03T12:36:17Z</time>
      </trkpt>
      <trkpt lat="42.30277" lon="1.83333">
        <ele>2058.48</ele>
        <time>2024-11-03T12:36:20Z</time>
      </trkpt>
      <trkpt lat="42.30274" lon="1.83322">
        <ele>2057.37</ele>
        <time>2024-11-03T12:36:30Z</time>
      </trkpt>
      <trkpt lat="42.30271" lon="1.83315">
        <ele>2057.33</ele>
        <time>2024-11-03T12:36:36Z</time>
      </trkpt>
      <trkpt lat="42.30261" lon="1.83287">
        <ele>2055.8</ele>
        <time>2024-11-03T12:36:59Z</time>
      </trkpt>
      <trkpt lat="42.30255" lon="1.83272">
        <ele>2054.25</ele>
        <time>2024-11-03T12:37:13Z</time>
      </trkpt>
      <trkpt lat="42.3025" lon="1.83247">
        <ele>2053.24</ele>
        <time>2024-11-03T12:37:33Z</time>
      </trkpt>
      <trkpt lat="42.30249" lon="1.83243">
        <ele>2052.41</ele>
        <time>2024-11-03T12:37:37Z</time>
      </trkpt>
      <trkpt lat="42.30248" lon="1.83226">
        <ele>2049.85</ele>
        <time>2024-11-03T12:37:51Z</time>
      </trkpt>
      <trkpt lat="42.30247" lon="1.83215">
        <ele>2047.98</ele>
        <time>2024-11-03T12:38:02Z</time>
      </trkpt>
      <trkpt lat="42.30247" lon="1.8321">
        <ele>2047.29</ele>
        <time>2024-11-03T12:38:05Z</time>
      </trkpt>
      <trkpt lat="42.30242" lon="1.83187">
        <ele>2043.93</ele>
        <time>2024-11-03T12:38:19Z</time>
      </trkpt>
      <trkpt lat="42.30238" lon="1.83165">
        <ele>2042.12</ele>
        <time>2024-11-03T12:38:36Z</time>
      </trkpt>
      <trkpt lat="42.30237" lon="1.83148">
        <ele>2040.82</ele>
        <time>2024-11-03T12:38:53Z</time>
      </trkpt>
      <trkpt lat="42.30234" lon="1.8313">
        <ele>2037.88</ele>
        <time>2024-11-03T12:39:09Z</time>
      </trkpt>
      <trkpt lat="42.30238" lon="1.83121">
        <ele>2034.75</ele>
        <time>2024-11-03T12:39:20Z</time>
      </trkpt>
      <trkpt lat="42.30239" lon="1.8312">
        <ele>2034.49</ele>
        <time>2024-11-03T12:39:21Z</time>
      </trkpt>
      <trkpt lat="42.30238" lon="1.831">
        <ele>2032.1</ele>
        <time>2024-11-03T12:39:36Z</time>
      </trkpt>
      <trkpt lat="42.30235" lon="1.8309">
        <ele>2030.54</ele>
        <time>2024-11-03T12:39:44Z</time>
      </trkpt>
      <trkpt lat="42.30227" lon="1.8307">
        <ele>2027.98</ele>
        <time>2024-11-03T12:40:02Z</time>
      </trkpt>
      <trkpt lat="42.30223" lon="1.83055">
        <ele>2024.66</ele>
        <time>2024-11-03T12:40:15Z</time>
      </trkpt>
      <trkpt lat="42.30212" lon="1.83042">
        <ele>2021.81</ele>
        <time>2024-11-03T12:40:30Z</time>
      </trkpt>
      <trkpt lat="42.30205" lon="1.83032">
        <ele>2020.27</ele>
        <time>2024-11-03T12:40:40Z</time>
      </trkpt>
      <trkpt lat="42.30195" lon="1.8302">
        <ele>2017.75</ele>
        <time>2024-11-03T12:40:56Z</time>
      </trkpt>
      <trkpt lat="42.30188" lon="1.83008">
        <ele>2015.08</ele>
        <time>2024-11-03T12:41:10Z</time>
      </trkpt>
      <trkpt lat="42.30181" lon="1.82999">
        <ele>2012.87</ele>
        <time>2024-11-03T12:41:19Z</time>
      </trkpt>
      <trkpt lat="42.30172" lon="1.82989">
        <ele>2010.27</ele>
        <time>2024-11-03T12:41:32Z</time>
      </trkpt>
      <trkpt lat="42.30166" lon="1.82981">
        <ele>2007.75</ele>
        <time>2024-11-03T12:41:45Z</time>
      </trkpt>
      <trkpt lat="42.30158" lon="1.82968">
        <ele>2004.86</ele>
        <time>2024-11-03T12:41:59Z</time>
      </trkpt>
      <trkpt lat="42.30155" lon="1.82965">
        <ele>2005.06</ele>
        <time>2024-11-03T12:42:01Z</time>
      </trkpt>
      <trkpt lat="42.30139" lon="1.82957">
        <ele>2002.99</ele>
        <time>2024-11-03T12:42:16Z</time>
      </trkpt>
      <trkpt lat="42.30129" lon="1.82949">
        <ele>2001.02</ele>
        <time>2024-11-03T12:42:28Z</time>
      </trkpt>
      <trkpt lat="42.30112" lon="1.82935">
        <ele>1999.33</ele>
        <time>2024-11-03T12:42:48Z</time>
      </trkpt>
      <trkpt lat="42.30109" lon="1.8293">
        <ele>1999.25</ele>
        <time>2024-11-03T12:42:52Z</time>
      </trkpt>
      <trkpt lat="42.30096" lon="1.82901">
        <ele>1997.48</ele>
        <time>2024-11-03T12:43:11Z</time>
      </trkpt>
      <trkpt lat="42.30091" lon="1.82864">
        <ele>1996.27</ele>
        <time>2024-11-03T12:43:32Z</time>
      </trkpt>
      <trkpt lat="42.30089" lon="1.82842">
        <ele>1996.56</ele>
        <time>2024-11-03T12:43:49Z</time>
      </trkpt>
      <trkpt lat="42.30089" lon="1.8284">
        <ele>1996.81</ele>
        <time>2024-11-03T12:43:51Z</time>
      </trkpt>
      <trkpt lat="42.30089" lon="1.82836">
        <ele>1996.47</ele>
        <time>2024-11-03T12:43:54Z</time>
      </trkpt>
      <trkpt lat="42.30087" lon="1.82818">
        <ele>1997.84</ele>
        <time>2024-11-03T12:44:10Z</time>
      </trkpt>
      <trkpt lat="42.30087" lon="1.82816">
        <ele>1997.59</ele>
        <time>2024-11-03T12:44:12Z</time>
      </trkpt>
      <trkpt lat="42.30083" lon="1.82792">
        <ele>1996.55</ele>
        <time>2024-11-03T12:44:31Z</time>
      </trkpt>
      <trkpt lat="42.30081" lon="1.82783">
        <ele>1995.99</ele>
        <time>2024-11-03T12:44:37Z</time>
      </trkpt>
      <trkpt lat="42.30078" lon="1.82763">
        <ele>1997.18</ele>
        <time>2024-11-03T12:44:51Z</time>
      </trkpt>
      <trkpt lat="42.3007" lon="1.82738">
        <ele>1995.58</ele>
        <time>2024-11-03T12:45:08Z</time>
      </trkpt>
      <trkpt lat="42.30067" lon="1.82731">
        <ele>1995.48</ele>
        <time>2024-11-03T12:45:13Z</time>
      </trkpt>
      <trkpt lat="42.30065" lon="1.82705">
        <ele>1995.4</ele>
        <time>2024-11-03T12:45:32Z</time>
      </trkpt>
      <trkpt lat="42.30062" lon="1.82693">
        <ele>1996.28</ele>
        <time>2024-11-03T12:45:44Z</time>
      </trkpt>
      <trkpt lat="42.3006" lon="1.82681">
        <ele>1995.34</ele>
        <time>2024-11-03T12:45:52Z</time>
      </trkpt>
      <trkpt lat="42.30057" lon="1.8266">
        <ele>1994.66</ele>
        <time>2024-11-03T12:46:06Z</time>
      </trkpt>
      <trkpt lat="42.30054" lon="1.82644">
        <ele>1993.69</ele>
        <time>2024-11-03T12:46:15Z</time>
      </trkpt>
      <trkpt lat="42.30049" lon="1.82622">
        <ele>1994.23</ele>
        <time>2024-11-03T12:46:30Z</time>
      </trkpt>
      <trkpt lat="42.30049" lon="1.82605">
        <ele>1995.76</ele>
        <time>2024-11-03T12:46:41Z</time>
      </trkpt>
      <trkpt lat="42.30049" lon="1.82574">
        <ele>1994.75</ele>
        <time>2024-11-03T12:47:00Z</time>
      </trkpt>
      <trkpt lat="42.30051" lon="1.82549">
        <ele>1994.61</ele>
        <time>2024-11-03T12:47:19Z</time>
      </trkpt>
      <trkpt lat="42.30056" lon="1.82524">
        <ele>1994.67</ele>
        <time>2024-11-03T12:47:37Z</time>
      </trkpt>
      <trkpt lat="42.30061" lon="1.82509">
        <ele>1996.07</ele>
        <time>2024-11-03T12:47:57Z</time>
      </trkpt>
      <trkpt lat="42.30061" lon="1.82508">
        <ele>1995.87</ele>
        <time>2024-11-03T12:48:22Z</time>
      </trkpt>
      <trkpt lat="42.30062" lon="1.82503">
        <ele>1996.99</ele>
        <time>2024-11-03T12:48:56Z</time>
      </trkpt>
      <trkpt lat="42.30077" lon="1.82485">
        <ele>1997.12</ele>
        <time>2024-11-03T12:49:15Z</time>
      </trkpt>
      <trkpt lat="42.30091" lon="1.82469">
        <ele>1996.62</ele>
        <time>2024-11-03T12:49:32Z</time>
      </trkpt>
      <trkpt lat="42.30106" lon="1.8245">
        <ele>1997.09</ele>
        <time>2024-11-03T12:49:51Z</time>
      </trkpt>
      <trkpt lat="42.30122" lon="1.82425">
        <ele>1997.77</ele>
        <time>2024-11-03T12:50:12Z</time>
      </trkpt>
      <trkpt lat="42.30133" lon="1.82402">
        <ele>1999.84</ele>
        <time>2024-11-03T12:50:31Z</time>
      </trkpt>
      <trkpt lat="42.30151" lon="1.8238">
        <ele>2000.09</ele>
        <time>2024-11-03T12:50:51Z</time>
      </trkpt>
      <trkpt lat="42.30164" lon="1.82367">
        <ele>2000.97</ele>
        <time>2024-11-03T12:51:06Z</time>
      </trkpt>
      <trkpt lat="42.30181" lon="1.82351">
        <ele>2001.33</ele>
        <time>2024-11-03T12:51:25Z</time>
      </trkpt>
      <trkpt lat="42.30193" lon="1.82346">
        <ele>2001.99</ele>
        <time>2024-11-03T12:51:39Z</time>
      </trkpt>
      <trkpt lat="42.30204" lon="1.82346">
        <ele>2003.15</ele>
        <time>2024-11-03T12:51:55Z</time>
      </trkpt>
      <trkpt lat="42.30211" lon="1.82341">
        <ele>2003.89</ele>
        <time>2024-11-03T12:52:04Z</time>
      </trkpt>
      <trkpt lat="42.30223" lon="1.82323">
        <ele>2004.44</ele>
        <time>2024-11-03T12:52:24Z</time>
      </trkpt>
      <trkpt lat="42.30224" lon="1.82311">
        <ele>2002.99</ele>
        <time>2024-11-03T12:52:34Z</time>
      </trkpt>
      <trkpt lat="42.30226" lon="1.82284">
        <ele>2002.65</ele>
        <time>2024-11-03T12:52:53Z</time>
      </trkpt>
      <trkpt lat="42.30228" lon="1.82256">
        <ele>2000.2</ele>
        <time>2024-11-03T12:53:12Z</time>
      </trkpt>
      <trkpt lat="42.30227" lon="1.82225">
        <ele>1997.33</ele>
        <time>2024-11-03T12:53:32Z</time>
      </trkpt>
      <trkpt lat="42.30225" lon="1.82193">
        <ele>1996.08</ele>
        <time>2024-11-03T12:53:52Z</time>
      </trkpt>
      <trkpt lat="42.30223" lon="1.82186">
        <ele>1996.11</ele>
        <time>2024-11-03T12:53:57Z</time>
      </trkpt>
      <trkpt lat="42.3022" lon="1.82154">
        <ele>1993.54</ele>
        <time>2024-11-03T12:54:18Z</time>
      </trkpt>
      <trkpt lat="42.30218" lon="1.82123">
        <ele>1991.79</ele>
        <time>2024-11-03T12:54:38Z</time>
      </trkpt>
      <trkpt lat="42.30213" lon="1.82092">
        <ele>1990.3</ele>
        <time>2024-11-03T12:54:58Z</time>
      </trkpt>
      <trkpt lat="42.3021" lon="1.82066">
        <ele>1988.31</ele>
        <time>2024-11-03T12:55:16Z</time>
      </trkpt>
      <trkpt lat="42.30203" lon="1.82041">
        <ele>1985.95</ele>
        <time>2024-11-03T12:55:33Z</time>
      </trkpt>
      <trkpt lat="42.30197" lon="1.82021">
        <ele>1985.23</ele>
        <time>2024-11-03T12:55:49Z</time>
      </trkpt>
      <trkpt lat="42.30196" lon="1.82019">
        <ele>1985.33</ele>
        <time>2024-11-03T12:55:51Z</time>
      </trkpt>
      <trkpt lat="42.30193" lon="1.82013">
        <ele>1984.45</ele>
        <time>2024-11-03T12:55:56Z</time>
      </trkpt>
      <trkpt lat="42.30186" lon="1.82007">
        <ele>1984.28</ele>
        <time>2024-11-03T12:56:04Z</time>
      </trkpt>
      <trkpt lat="42.30184" lon="1.82007">
        <ele>1984.48</ele>
        <time>2024-11-03T12:56:06Z</time>
      </trkpt>
      <trkpt lat="42.30173" lon="1.82003">
        <ele>1983.81</ele>
        <time>2024-11-03T12:56:22Z</time>
      </trkpt>
      <trkpt lat="42.30167" lon="1.82004">
        <ele>1982.51</ele>
        <time>2024-11-03T12:56:30Z</time>
      </trkpt>
      <trkpt lat="42.30157" lon="1.81994">
        <ele>1981.36</ele>
        <time>2024-11-03T12:56:47Z</time>
      </trkpt>
      <trkpt lat="42.30157" lon="1.81994">
        <ele>1981.41</ele>
        <time>2024-11-03T12:56:48Z</time>
      </trkpt>
      <trkpt lat="42.30151" lon="1.81989">
        <ele>1980.97</ele>
        <time>2024-11-03T12:56:55Z</time>
      </trkpt>
      <trkpt lat="42.30137" lon="1.81976">
        <ele>1979.51</ele>
        <time>2024-11-03T12:57:13Z</time>
      </trkpt>
      <trkpt lat="42.30133" lon="1.81951">
        <ele>1977.67</ele>
        <time>2024-11-03T12:57:30Z</time>
      </trkpt>
      <trkpt lat="42.30132" lon="1.81926">
        <ele>1976.2</ele>
        <time>2024-11-03T12:57:46Z</time>
      </trkpt>
      <trkpt lat="42.30127" lon="1.81892">
        <ele>1974.26</ele>
        <time>2024-11-03T12:58:07Z</time>
      </trkpt>
      <trkpt lat="42.30122" lon="1.81855">
        <ele>1972.79</ele>
        <time>2024-11-03T12:58:30Z</time>
      </trkpt>
      <trkpt lat="42.30116" lon="1.81834">
        <ele>1969.79</ele>
        <time>2024-11-03T12:58:44Z</time>
      </trkpt>
      <trkpt lat="42.30104" lon="1.81812">
        <ele>1970.09</ele>
        <time>2024-11-03T12:59:01Z</time>
      </trkpt>
      <trkpt lat="42.30091" lon="1.81789">
        <ele>1971.81</ele>
        <time>2024-11-03T12:59:19Z</time>
      </trkpt>
      <trkpt lat="42.30084" lon="1.81761">
        <ele>1970.89</ele>
        <time>2024-11-03T12:59:37Z</time>
      </trkpt>
      <trkpt lat="42.30068" lon="1.8173">
        <ele>1971.13</ele>
        <time>2024-11-03T13:00:00Z</time>
      </trkpt>
      <trkpt lat="42.30057" lon="1.81707">
        <ele>1972.85</ele>
        <time>2024-11-03T13:00:18Z</time>
      </trkpt>
      <trkpt lat="42.30051" lon="1.81687">
        <ele>1972.22</ele>
        <time>2024-11-03T13:00:33Z</time>
      </trkpt>
      <trkpt lat="42.3005" lon="1.81679">
        <ele>1971.69</ele>
        <time>2024-11-03T13:00:38Z</time>
      </trkpt>
      <trkpt lat="42.30043" lon="1.81658">
        <ele>1974.47</ele>
        <time>2024-11-03T13:00:56Z</time>
      </trkpt>
      <trkpt lat="42.3004" lon="1.81649">
        <ele>1973.67</ele>
        <time>2024-11-03T13:01:05Z</time>
      </trkpt>
      <trkpt lat="42.3004" lon="1.81642">
        <ele>1975.01</ele>
        <time>2024-11-03T13:01:22Z</time>
      </trkpt>
      <trkpt lat="42.3004" lon="1.81642">
        <ele>1975.23</ele>
        <time>2024-11-03T13:01:48Z</time>
      </trkpt>
      <trkpt lat="42.3004" lon="1.81642">
        <ele>1974.99</ele>
        <time>2024-11-03T13:02:13Z</time>
      </trkpt>
      <trkpt lat="42.30041" lon="1.81639">
        <ele>1975.26</ele>
        <time>2024-11-03T13:02:26Z</time>
      </trkpt>
      <trkpt lat="42.30041" lon="1.81638">
        <ele>1975.25</ele>
        <time>2024-11-03T13:02:47Z</time>
      </trkpt>
      <trkpt lat="42.30042" lon="1.81639">
        <ele>1975.17</ele>
        <time>2024-11-03T13:03:09Z</time>
      </trkpt>
      <trkpt lat="42.30041" lon="1.81639">
        <ele>1975.46</ele>
        <time>2024-11-03T13:03:31Z</time>
      </trkpt>
      <trkpt lat="42.30041" lon="1.8164">
        <ele>1975.67</ele>
        <time>2024-11-03T13:03:57Z</time>
      </trkpt>
      <trkpt lat="42.30041" lon="1.8164">
        <ele>1974.38</ele>
        <time>2024-11-03T13:04:18Z</time>
      </trkpt>
      <trkpt lat="42.30041" lon="1.8164">
        <ele>1974.87</ele>
        <time>2024-11-03T13:04:44Z</time>
      </trkpt>
      <trkpt lat="42.30041" lon="1.8164">
        <ele>1975.46</ele>
        <time>2024-11-03T13:05:19Z</time>
      </trkpt>
      <trkpt lat="42.30042" lon="1.81637">
        <ele>1974.61</ele>
        <time>2024-11-03T13:05:42Z</time>
      </trkpt>
      <trkpt lat="42.30043" lon="1.81631">
        <ele>1971.44</ele>
        <time>2024-11-03T13:05:57Z</time>
      </trkpt>
      <trkpt lat="42.30045" lon="1.81621">
        <ele>1970.24</ele>
        <time>2024-11-03T13:06:08Z</time>
      </trkpt>
      <trkpt lat="42.30046" lon="1.81613">
        <ele>1967.07</ele>
        <time>2024-11-03T13:06:14Z</time>
      </trkpt>
      <trkpt lat="42.30048" lon="1.81607">
        <ele>1967.1</ele>
        <time>2024-11-03T13:06:22Z</time>
      </trkpt>
      <trkpt lat="42.30051" lon="1.81597">
        <ele>1963.59</ele>
        <time>2024-11-03T13:06:36Z</time>
      </trkpt>
      <trkpt lat="42.30051" lon="1.81596">
        <ele>1963.42</ele>
        <time>2024-11-03T13:06:37Z</time>
      </trkpt>
      <trkpt lat="42.30051" lon="1.81592">
        <ele>1961.98</ele>
        <time>2024-11-03T13:06:45Z</time>
      </trkpt>
      <trkpt lat="42.30053" lon="1.81584">
        <ele>1958.91</ele>
        <time>2024-11-03T13:06:59Z</time>
      </trkpt>
      <trkpt lat="42.30051" lon="1.81573">
        <ele>1955.52</ele>
        <time>2024-11-03T13:07:17Z</time>
      </trkpt>
      <trkpt lat="42.30048" lon="1.81568">
        <ele>1952.47</ele>
        <time>2024-11-03T13:07:31Z</time>
      </trkpt>
      <trkpt lat="42.30045" lon="1.81562">
        <ele>1948.91</ele>
        <time>2024-11-03T13:07:48Z</time>
      </trkpt>
      <trkpt lat="42.30036" lon="1.81563">
        <ele>1945.74</ele>
        <time>2024-11-03T13:08:04Z</time>
      </trkpt>
      <trkpt lat="42.30031" lon="1.81564">
        <ele>1942.69</ele>
        <time>2024-11-03T13:08:15Z</time>
      </trkpt>
      <trkpt lat="42.30025" lon="1.81568">
        <ele>1940.69</ele>
        <time>2024-11-03T13:08:37Z</time>
      </trkpt>
      <trkpt lat="42.30021" lon="1.81571">
        <ele>1940.29</ele>
        <time>2024-11-03T13:09:03Z</time>
      </trkpt>
      <trkpt lat="42.3002" lon="1.81573">
        <ele>1940.89</ele>
        <time>2024-11-03T13:09:34Z</time>
      </trkpt>
      <trkpt lat="42.3002" lon="1.81574">
        <ele>1940.96</ele>
        <time>2024-11-03T13:10:06Z</time>
      </trkpt>
      <trkpt lat="42.30021" lon="1.81572">
        <ele>1940.65</ele>
        <time>2024-11-03T13:10:32Z</time>
      </trkpt>
      <trkpt lat="42.30021" lon="1.8157">
        <ele>1940.55</ele>
        <time>2024-11-03T13:10:58Z</time>
      </trkpt>
      <trkpt lat="42.30022" lon="1.81572">
        <ele>1941.86</ele>
        <time>2024-11-03T13:11:23Z</time>
      </trkpt>
      <trkpt lat="42.30019" lon="1.81571">
        <ele>1939.21</ele>
        <time>2024-11-03T13:11:46Z</time>
      </trkpt>
      <trkpt lat="42.30018" lon="1.81572">
        <ele>1938.92</ele>
        <time>2024-11-03T13:11:47Z</time>
      </trkpt>
      <trkpt lat="42.30009" lon="1.81572">
        <ele>1936.28</ele>
        <time>2024-11-03T13:12:05Z</time>
      </trkpt>
      <trkpt lat="42.3" lon="1.81575">
        <ele>1932.94</ele>
        <time>2024-11-03T13:12:16Z</time>
      </trkpt>
      <trkpt lat="42.29992" lon="1.8157">
        <ele>1929.86</ele>
        <time>2024-11-03T13:12:30Z</time>
      </trkpt>
      <trkpt lat="42.29986" lon="1.81561">
        <ele>1926.7</ele>
        <time>2024-11-03T13:12:47Z</time>
      </trkpt>
      <trkpt lat="42.29983" lon="1.81554">
        <ele>1923.23</ele>
        <time>2024-11-03T13:13:00Z</time>
      </trkpt>
      <trkpt lat="42.29981" lon="1.81549">
        <ele>1920.97</ele>
        <time>2024-11-03T13:13:10Z</time>
      </trkpt>
      <trkpt lat="42.29977" lon="1.81542">
        <ele>1917.8</ele>
        <time>2024-11-03T13:13:22Z</time>
      </trkpt>
      <trkpt lat="42.29975" lon="1.8154">
        <ele>1916.86</ele>
        <time>2024-11-03T13:13:26Z</time>
      </trkpt>
      <trkpt lat="42.29973" lon="1.81531">
        <ele>1913.56</ele>
        <time>2024-11-03T13:13:38Z</time>
      </trkpt>
      <trkpt lat="42.29971" lon="1.81514">
        <ele>1910.11</ele>
        <time>2024-11-03T13:13:55Z</time>
      </trkpt>
      <trkpt lat="42.2997" lon="1.81492">
        <ele>1907.99</ele>
        <time>2024-11-03T13:14:13Z</time>
      </trkpt>
      <trkpt lat="42.29968" lon="1.81479">
        <ele>1904.66</ele>
        <time>2024-11-03T13:14:28Z</time>
      </trkpt>
      <trkpt lat="42.29965" lon="1.8147">
        <ele>1901.4</ele>
        <time>2024-11-03T13:14:40Z</time>
      </trkpt>
      <trkpt lat="42.2997" lon="1.81454">
        <ele>1900.3</ele>
        <time>2024-11-03T13:14:57Z</time>
      </trkpt>
      <trkpt lat="42.29966" lon="1.81437">
        <ele>1898.8</ele>
        <time>2024-11-03T13:15:14Z</time>
      </trkpt>
      <trkpt lat="42.29956" lon="1.81428">
        <ele>1896.78</ele>
        <time>2024-11-03T13:15:36Z</time>
      </trkpt>
      <trkpt lat="42.29948" lon="1.81415">
        <ele>1894.22</ele>
        <time>2024-11-03T13:15:53Z</time>
      </trkpt>
      <trkpt lat="42.29944" lon="1.8141">
        <ele>1893.13</ele>
        <time>2024-11-03T13:16:11Z</time>
      </trkpt>
      <trkpt lat="42.29945" lon="1.81409">
        <ele>1892.75</ele>
        <time>2024-11-03T13:16:36Z</time>
      </trkpt>
      <trkpt lat="42.29944" lon="1.81409">
        <ele>1893.25</ele>
        <time>2024-11-03T13:17:09Z</time>
      </trkpt>
      <trkpt lat="42.29939" lon="1.81408">
        <ele>1891.16</ele>
        <time>2024-11-03T13:17:36Z</time>
      </trkpt>
      <trkpt lat="42.29932" lon="1.81412">
        <ele>1888.93</ele>
        <time>2024-11-03T13:17:50Z</time>
      </trkpt>
      <trkpt lat="42.29929" lon="1.81414">
        <ele>1888.34</ele>
        <time>2024-11-03T13:18:09Z</time>
      </trkpt>
      <trkpt lat="42.29926" lon="1.81411">
        <ele>1888.03</ele>
        <time>2024-11-03T13:18:14Z</time>
      </trkpt>
      <trkpt lat="42.29924" lon="1.81404">
        <ele>1886.89</ele>
        <time>2024-11-03T13:18:20Z</time>
      </trkpt>
      <trkpt lat="42.2992" lon="1.81385">
        <ele>1888</ele>
        <time>2024-11-03T13:18:38Z</time>
      </trkpt>
      <trkpt lat="42.29909" lon="1.81371">
        <ele>1887.5</ele>
        <time>2024-11-03T13:18:55Z</time>
      </trkpt>
      <trkpt lat="42.29899" lon="1.81361">
        <ele>1885.42</ele>
        <time>2024-11-03T13:19:13Z</time>
      </trkpt>
      <trkpt lat="42.29888" lon="1.81353">
        <ele>1882.95</ele>
        <time>2024-11-03T13:19:31Z</time>
      </trkpt>
      <trkpt lat="42.29878" lon="1.81346">
        <ele>1879.72</ele>
        <time>2024-11-03T13:19:45Z</time>
      </trkpt>
      <trkpt lat="42.29872" lon="1.81331">
        <ele>1877.09</ele>
        <time>2024-11-03T13:20:03Z</time>
      </trkpt>
      <trkpt lat="42.29871" lon="1.81329">
        <ele>1876.25</ele>
        <time>2024-11-03T13:20:05Z</time>
      </trkpt>
      <trkpt lat="42.2987" lon="1.81319">
        <ele>1873.16</ele>
        <time>2024-11-03T13:20:17Z</time>
      </trkpt>
      <trkpt lat="42.29875" lon="1.81308">
        <ele>1872.7</ele>
        <time>2024-11-03T13:20:31Z</time>
      </trkpt>
      <trkpt lat="42.29876" lon="1.81294">
        <ele>1870.53</ele>
        <time>2024-11-03T13:20:43Z</time>
      </trkpt>
      <trkpt lat="42.29873" lon="1.81276">
        <ele>1867.29</ele>
        <time>2024-11-03T13:20:58Z</time>
      </trkpt>
      <trkpt lat="42.29871" lon="1.81267">
        <ele>1864.25</ele>
        <time>2024-11-03T13:21:09Z</time>
      </trkpt>
      <trkpt lat="42.29868" lon="1.81259">
        <ele>1861.05</ele>
        <time>2024-11-03T13:21:19Z</time>
      </trkpt>
      <trkpt lat="42.29858" lon="1.81253">
        <ele>1858.04</ele>
        <time>2024-11-03T13:21:34Z</time>
      </trkpt>
      <trkpt lat="42.29854" lon="1.81249">
        <ele>1854.72</ele>
        <time>2024-11-03T13:21:44Z</time>
      </trkpt>
      <trkpt lat="42.2985" lon="1.81235">
        <ele>1852.68</ele>
        <time>2024-11-03T13:22:01Z</time>
      </trkpt>
      <trkpt lat="42.29845" lon="1.81231">
        <ele>1849.54</ele>
        <time>2024-11-03T13:22:14Z</time>
      </trkpt>
      <trkpt lat="42.29843" lon="1.81217">
        <ele>1846.81</ele>
        <time>2024-11-03T13:22:33Z</time>
      </trkpt>
      <trkpt lat="42.29841" lon="1.81194">
        <ele>1845.52</ele>
        <time>2024-11-03T13:22:53Z</time>
      </trkpt>
      <trkpt lat="42.29839" lon="1.81171">
        <ele>1843.51</ele>
        <time>2024-11-03T13:23:10Z</time>
      </trkpt>
      <trkpt lat="42.29839" lon="1.81151">
        <ele>1843.38</ele>
        <time>2024-11-03T13:23:27Z</time>
      </trkpt>
      <trkpt lat="42.29837" lon="1.81139">
        <ele>1840.28</ele>
        <time>2024-11-03T13:23:38Z</time>
      </trkpt>
      <trkpt lat="42.29831" lon="1.81131">
        <ele>1838.59</ele>
        <time>2024-11-03T13:23:52Z</time>
      </trkpt>
      <trkpt lat="42.29825" lon="1.81125">
        <ele>1835.86</ele>
        <time>2024-11-03T13:24:09Z</time>
      </trkpt>
      <trkpt lat="42.29819" lon="1.81119">
        <ele>1832.67</ele>
        <time>2024-11-03T13:24:23Z</time>
      </trkpt>
      <trkpt lat="42.29813" lon="1.81111">
        <ele>1829.85</ele>
        <time>2024-11-03T13:24:37Z</time>
      </trkpt>
      <trkpt lat="42.29803" lon="1.81104">
        <ele>1826.77</ele>
        <time>2024-11-03T13:24:50Z</time>
      </trkpt>
      <trkpt lat="42.29794" lon="1.81096">
        <ele>1823.12</ele>
        <time>2024-11-03T13:25:04Z</time>
      </trkpt>
      <trkpt lat="42.29792" lon="1.81095">
        <ele>1821.82</ele>
        <time>2024-11-03T13:25:07Z</time>
      </trkpt>
      <trkpt lat="42.29779" lon="1.81081">
        <ele>1819.53</ele>
        <time>2024-11-03T13:25:26Z</time>
      </trkpt>
      <trkpt lat="42.2977" lon="1.81069">
        <ele>1816.17</ele>
        <time>2024-11-03T13:25:40Z</time>
      </trkpt>
      <trkpt lat="42.29765" lon="1.81067">
        <ele>1812.93</ele>
        <time>2024-11-03T13:25:51Z</time>
      </trkpt>
      <trkpt lat="42.29755" lon="1.81061">
        <ele>1808.84</ele>
        <time>2024-11-03T13:26:05Z</time>
      </trkpt>
      <trkpt lat="42.29743" lon="1.81049">
        <ele>1805.83</ele>
        <time>2024-11-03T13:26:21Z</time>
      </trkpt>
      <trkpt lat="42.29736" lon="1.81042">
        <ele>1802.66</ele>
        <time>2024-11-03T13:26:33Z</time>
      </trkpt>
      <trkpt lat="42.2973" lon="1.81034">
        <ele>1799.19</ele>
        <time>2024-11-03T13:26:47Z</time>
      </trkpt>
      <trkpt lat="42.29723" lon="1.81032">
        <ele>1795.87</ele>
        <time>2024-11-03T13:27:02Z</time>
      </trkpt>
      <trkpt lat="42.29714" lon="1.81023">
        <ele>1793.1</ele>
        <time>2024-11-03T13:27:16Z</time>
      </trkpt>
      <trkpt lat="42.29706" lon="1.81015">
        <ele>1791.46</ele>
        <time>2024-11-03T13:27:38Z</time>
      </trkpt>
      <trkpt lat="42.29701" lon="1.81013">
        <ele>1789.64</ele>
        <time>2024-11-03T13:28:04Z</time>
      </trkpt>
      <trkpt lat="42.29693" lon="1.81008">
        <ele>1786.62</ele>
        <time>2024-11-03T13:28:21Z</time>
      </trkpt>
      <trkpt lat="42.29677" lon="1.81005">
        <ele>1784.04</ele>
        <time>2024-11-03T13:28:38Z</time>
      </trkpt>
      <trkpt lat="42.29667" lon="1.81007">
        <ele>1780.8</ele>
        <time>2024-11-03T13:28:50Z</time>
      </trkpt>
      <trkpt lat="42.29647" lon="1.81009">
        <ele>1778.42</ele>
        <time>2024-11-03T13:29:09Z</time>
      </trkpt>
      <trkpt lat="42.29646" lon="1.81008">
        <ele>1777.51</ele>
        <time>2024-11-03T13:29:13Z</time>
      </trkpt>
      <trkpt lat="42.29637" lon="1.81005">
        <ele>1774.21</ele>
        <time>2024-11-03T13:29:30Z</time>
      </trkpt>
      <trkpt lat="42.29633" lon="1.80999">
        <ele>1771.08</ele>
        <time>2024-11-03T13:29:41Z</time>
      </trkpt>
      <trkpt lat="42.29627" lon="1.80995">
        <ele>1768.03</ele>
        <time>2024-11-03T13:29:54Z</time>
      </trkpt>
      <trkpt lat="42.2962" lon="1.80986">
        <ele>1765.55</ele>
        <time>2024-11-03T13:30:11Z</time>
      </trkpt>
      <trkpt lat="42.29612" lon="1.80982">
        <ele>1762.52</ele>
        <time>2024-11-03T13:30:24Z</time>
      </trkpt>
      <trkpt lat="42.29604" lon="1.80979">
        <ele>1759.34</ele>
        <time>2024-11-03T13:30:38Z</time>
      </trkpt>
      <trkpt lat="42.29597" lon="1.80972">
        <ele>1756.24</ele>
        <time>2024-11-03T13:30:53Z</time>
      </trkpt>
      <trkpt lat="42.2959" lon="1.8097">
        <ele>1752.59</ele>
        <time>2024-11-03T13:31:04Z</time>
      </trkpt>
      <trkpt lat="42.29581" lon="1.80971">
        <ele>1748.97</ele>
        <time>2024-11-03T13:31:20Z</time>
      </trkpt>
      <trkpt lat="42.29574" lon="1.8098">
        <ele>1745.69</ele>
        <time>2024-11-03T13:31:33Z</time>
      </trkpt>
      <trkpt lat="42.29566" lon="1.80998">
        <ele>1743.28</ele>
        <time>2024-11-03T13:31:50Z</time>
      </trkpt>
      <trkpt lat="42.29565" lon="1.80998">
        <ele>1742.99</ele>
        <time>2024-11-03T13:31:51Z</time>
      </trkpt>
      <trkpt lat="42.2956" lon="1.81">
        <ele>1741.82</ele>
        <time>2024-11-03T13:31:55Z</time>
      </trkpt>
      <trkpt lat="42.2955" lon="1.81">
        <ele>1738.17</ele>
        <time>2024-11-03T13:32:10Z</time>
      </trkpt>
      <trkpt lat="42.29548" lon="1.81002">
        <ele>1737.21</ele>
        <time>2024-11-03T13:32:14Z</time>
      </trkpt>
      <trkpt lat="42.29537" lon="1.81011">
        <ele>1734.11</ele>
        <time>2024-11-03T13:32:34Z</time>
      </trkpt>
      <trkpt lat="42.29536" lon="1.81011">
        <ele>1734.5</ele>
        <time>2024-11-03T13:32:35Z</time>
      </trkpt>
      <trkpt lat="42.29528" lon="1.81006">
        <ele>1732.07</ele>
        <time>2024-11-03T13:32:52Z</time>
      </trkpt>
      <trkpt lat="42.29524" lon="1.81003">
        <ele>1730.89</ele>
        <time>2024-11-03T13:33:09Z</time>
      </trkpt>
      <trkpt lat="42.29525" lon="1.81003">
        <ele>1730.72</ele>
        <time>2024-11-03T13:33:29Z</time>
      </trkpt>
      <trkpt lat="42.29525" lon="1.81004">
        <ele>1731.26</ele>
        <time>2024-11-03T13:33:49Z</time>
      </trkpt>
      <trkpt lat="42.29527" lon="1.81003">
        <ele>1731.18</ele>
        <time>2024-11-03T13:34:12Z</time>
      </trkpt>
      <trkpt lat="42.29524" lon="1.81007">
        <ele>1730.85</ele>
        <time>2024-11-03T13:34:45Z</time>
      </trkpt>
      <trkpt lat="42.29523" lon="1.81007">
        <ele>1731.1</ele>
        <time>2024-11-03T13:35:08Z</time>
      </trkpt>
      <trkpt lat="42.29522" lon="1.81007">
        <ele>1731.19</ele>
        <time>2024-11-03T13:35:38Z</time>
      </trkpt>
      <trkpt lat="42.29524" lon="1.81004">
        <ele>1730.46</ele>
        <time>2024-11-03T13:35:55Z</time>
      </trkpt>
      <trkpt lat="42.29527" lon="1.80994">
        <ele>1726.81</ele>
        <time>2024-11-03T13:36:10Z</time>
      </trkpt>
      <trkpt lat="42.29523" lon="1.80986">
        <ele>1724.41</ele>
        <time>2024-11-03T13:36:21Z</time>
      </trkpt>
      <trkpt lat="42.29513" lon="1.8098">
        <ele>1721.38</ele>
        <time>2024-11-03T13:36:38Z</time>
      </trkpt>
      <trkpt lat="42.29507" lon="1.80973">
        <ele>1718.58</ele>
        <time>2024-11-03T13:36:57Z</time>
      </trkpt>
      <trkpt lat="42.29508" lon="1.80965">
        <ele>1715.15</ele>
        <time>2024-11-03T13:37:09Z</time>
      </trkpt>
      <trkpt lat="42.29508" lon="1.80964">
        <ele>1715.06</ele>
        <time>2024-11-03T13:37:10Z</time>
      </trkpt>
      <trkpt lat="42.29507" lon="1.80959">
        <ele>1714.07</ele>
        <time>2024-11-03T13:37:16Z</time>
      </trkpt>
      <trkpt lat="42.29505" lon="1.80949">
        <ele>1710.94</ele>
        <time>2024-11-03T13:37:30Z</time>
      </trkpt>
      <trkpt lat="42.29504" lon="1.80937">
        <ele>1707.88</ele>
        <time>2024-11-03T13:37:39Z</time>
      </trkpt>
      <trkpt lat="42.29501" lon="1.80925">
        <ele>1704.86</ele>
        <time>2024-11-03T13:37:51Z</time>
      </trkpt>
      <trkpt lat="42.295" lon="1.80915">
        <ele>1701.69</ele>
        <time>2024-11-03T13:38:03Z</time>
      </trkpt>
      <trkpt lat="42.29498" lon="1.80903">
        <ele>1699.02</ele>
        <time>2024-11-03T13:38:21Z</time>
      </trkpt>
      <trkpt lat="42.29494" lon="1.80895">
        <ele>1695.82</ele>
        <time>2024-11-03T13:38:34Z</time>
      </trkpt>
      <trkpt lat="42.29491" lon="1.80885">
        <ele>1692.79</ele>
        <time>2024-11-03T13:38:47Z</time>
      </trkpt>
      <trkpt lat="42.29487" lon="1.80873">
        <ele>1689.66</ele>
        <time>2024-11-03T13:39:01Z</time>
      </trkpt>
      <trkpt lat="42.29484" lon="1.80865">
        <ele>1686.61</ele>
        <time>2024-11-03T13:39:11Z</time>
      </trkpt>
      <trkpt lat="42.2948" lon="1.8085">
        <ele>1684.59</ele>
        <time>2024-11-03T13:39:28Z</time>
      </trkpt>
      <trkpt lat="42.29475" lon="1.8084">
        <ele>1681.47</ele>
        <time>2024-11-03T13:39:42Z</time>
      </trkpt>
      <trkpt lat="42.2947" lon="1.80827">
        <ele>1678.5</ele>
        <time>2024-11-03T13:40:01Z</time>
      </trkpt>
      <trkpt lat="42.29465" lon="1.80822">
        <ele>1675.35</ele>
        <time>2024-11-03T13:40:13Z</time>
      </trkpt>
      <trkpt lat="42.2946" lon="1.80811">
        <ele>1672.31</ele>
        <time>2024-11-03T13:40:28Z</time>
      </trkpt>
      <trkpt lat="42.29458" lon="1.80807">
        <ele>1670.49</ele>
        <time>2024-11-03T13:40:33Z</time>
      </trkpt>
      <trkpt lat="42.29453" lon="1.80788">
        <ele>1667.54</ele>
        <time>2024-11-03T13:40:54Z</time>
      </trkpt>
      <trkpt lat="42.29452" lon="1.80779">
        <ele>1664.74</ele>
        <time>2024-11-03T13:41:14Z</time>
      </trkpt>
      <trkpt lat="42.29451" lon="1.80775">
        <ele>1663.18</ele>
        <time>2024-11-03T13:41:18Z</time>
      </trkpt>
      <trkpt lat="42.2945" lon="1.80764">
        <ele>1659.8</ele>
        <time>2024-11-03T13:41:32Z</time>
      </trkpt>
      <trkpt lat="42.29439" lon="1.80758">
        <ele>1656.45</ele>
        <time>2024-11-03T13:41:45Z</time>
      </trkpt>
      <trkpt lat="42.29429" lon="1.80755">
        <ele>1653.26</ele>
        <time>2024-11-03T13:42:00Z</time>
      </trkpt>
      <trkpt lat="42.29415" lon="1.80757">
        <ele>1650.34</ele>
        <time>2024-11-03T13:42:20Z</time>
      </trkpt>
      <trkpt lat="42.29404" lon="1.80759">
        <ele>1646.99</ele>
        <time>2024-11-03T13:42:39Z</time>
      </trkpt>
      <trkpt lat="42.29398" lon="1.80753">
        <ele>1643.71</ele>
        <time>2024-11-03T13:42:52Z</time>
      </trkpt>
      <trkpt lat="42.29398" lon="1.80739">
        <ele>1640.69</ele>
        <time>2024-11-03T13:43:08Z</time>
      </trkpt>
      <trkpt lat="42.29395" lon="1.80734">
        <ele>1637.43</ele>
        <time>2024-11-03T13:43:24Z</time>
      </trkpt>
      <trkpt lat="42.29393" lon="1.80727">
        <ele>1634.4</ele>
        <time>2024-11-03T13:43:35Z</time>
      </trkpt>
      <trkpt lat="42.29388" lon="1.8072">
        <ele>1631.49</ele>
        <time>2024-11-03T13:43:50Z</time>
      </trkpt>
      <trkpt lat="42.29388" lon="1.80712">
        <ele>1628.29</ele>
        <time>2024-11-03T13:44:00Z</time>
      </trkpt>
      <trkpt lat="42.29386" lon="1.80708">
        <ele>1627.36</ele>
        <time>2024-11-03T13:44:04Z</time>
      </trkpt>
      <trkpt lat="42.29382" lon="1.80696">
        <ele>1624</ele>
        <time>2024-11-03T13:44:20Z</time>
      </trkpt>
      <trkpt lat="42.29379" lon="1.80691">
        <ele>1622.49</ele>
        <time>2024-11-03T13:44:27Z</time>
      </trkpt>
      <trkpt lat="42.29392" lon="1.8068">
        <ele>1619.57</ele>
        <time>2024-11-03T13:44:45Z</time>
      </trkpt>
      <trkpt lat="42.29404" lon="1.80677">
        <ele>1616.28</ele>
        <time>2024-11-03T13:45:05Z</time>
      </trkpt>
      <trkpt lat="42.2941" lon="1.80672">
        <ele>1614.39</ele>
        <time>2024-11-03T13:45:27Z</time>
      </trkpt>
      <trkpt lat="42.29414" lon="1.80667">
        <ele>1612.08</ele>
        <time>2024-11-03T13:45:53Z</time>
      </trkpt>
      <trkpt lat="42.29416" lon="1.80661">
        <ele>1608.93</ele>
        <time>2024-11-03T13:46:15Z</time>
      </trkpt>
      <trkpt lat="42.29422" lon="1.80649">
        <ele>1605.43</ele>
        <time>2024-11-03T13:46:32Z</time>
      </trkpt>
      <trkpt lat="42.29421" lon="1.80639">
        <ele>1603.29</ele>
        <time>2024-11-03T13:46:49Z</time>
      </trkpt>
      <trkpt lat="42.29417" lon="1.80639">
        <ele>1600.28</ele>
        <time>2024-11-03T13:47:04Z</time>
      </trkpt>
      <trkpt lat="42.29414" lon="1.8063">
        <ele>1596.83</ele>
        <time>2024-11-03T13:47:20Z</time>
      </trkpt>
      <trkpt lat="42.29413" lon="1.80625">
        <ele>1593.64</ele>
        <time>2024-11-03T13:47:32Z</time>
      </trkpt>
      <trkpt lat="42.29413" lon="1.80624">
        <ele>1593.46</ele>
        <time>2024-11-03T13:47:33Z</time>
      </trkpt>
      <trkpt lat="42.29414" lon="1.8061">
        <ele>1590.37</ele>
        <time>2024-11-03T13:47:52Z</time>
      </trkpt>
      <trkpt lat="42.29408" lon="1.80609">
        <ele>1587.31</ele>
        <time>2024-11-03T13:48:05Z</time>
      </trkpt>
      <trkpt lat="42.29406" lon="1.80612">
        <ele>1586.06</ele>
        <time>2024-11-03T13:48:10Z</time>
      </trkpt>
      <trkpt lat="42.29403" lon="1.80604">
        <ele>1583.11</ele>
        <time>2024-11-03T13:48:24Z</time>
      </trkpt>
      <trkpt lat="42.29401" lon="1.806">
        <ele>1581.58</ele>
        <time>2024-11-03T13:48:29Z</time>
      </trkpt>
      <trkpt lat="42.29399" lon="1.80598">
        <ele>1580.58</ele>
        <time>2024-11-03T13:48:31Z</time>
      </trkpt>
      <trkpt lat="42.29394" lon="1.80594">
        <ele>1580.18</ele>
        <time>2024-11-03T13:48:38Z</time>
      </trkpt>
      <trkpt lat="42.2939" lon="1.80583">
        <ele>1578.21</ele>
        <time>2024-11-03T13:48:50Z</time>
      </trkpt>
      <trkpt lat="42.29385" lon="1.80582">
        <ele>1577.48</ele>
        <time>2024-11-03T13:49:05Z</time>
      </trkpt>
      <trkpt lat="42.29384" lon="1.80582">
        <ele>1577.56</ele>
        <time>2024-11-03T13:49:22Z</time>
      </trkpt>
      <trkpt lat="42.29382" lon="1.80579">
        <ele>1575.81</ele>
        <time>2024-11-03T13:49:48Z</time>
      </trkpt>
      <trkpt lat="42.29381" lon="1.80572">
        <ele>1573.56</ele>
        <time>2024-11-03T13:50:02Z</time>
      </trkpt>
      <trkpt lat="42.29385" lon="1.8056">
        <ele>1571.2</ele>
        <time>2024-11-03T13:50:21Z</time>
      </trkpt>
      <trkpt lat="42.29389" lon="1.80546">
        <ele>1569.38</ele>
        <time>2024-11-03T13:50:34Z</time>
      </trkpt>
      <trkpt lat="42.2939" lon="1.80539">
        <ele>1568.54</ele>
        <time>2024-11-03T13:50:39Z</time>
      </trkpt>
      <trkpt lat="42.29382" lon="1.80529">
        <ele>1565.84</ele>
        <time>2024-11-03T13:50:58Z</time>
      </trkpt>
      <trkpt lat="42.29375" lon="1.8053">
        <ele>1564.79</ele>
        <time>2024-11-03T13:51:17Z</time>
      </trkpt>
      <trkpt lat="42.29378" lon="1.80529">
        <ele>1564.8</ele>
        <time>2024-11-03T13:51:33Z</time>
      </trkpt>
      <trkpt lat="42.29378" lon="1.80528">
        <ele>1564.84</ele>
        <time>2024-11-03T13:52:11Z</time>
      </trkpt>
      <trkpt lat="42.29373" lon="1.80528">
        <ele>1564.23</ele>
        <time>2024-11-03T13:52:28Z</time>
      </trkpt>
      <trkpt lat="42.29372" lon="1.80529">
        <ele>1564.42</ele>
        <time>2024-11-03T13:53:08Z</time>
      </trkpt>
      <trkpt lat="42.29367" lon="1.80525">
        <ele>1562.45</ele>
        <time>2024-11-03T13:53:22Z</time>
      </trkpt>
      <trkpt lat="42.29365" lon="1.8052">
        <ele>1560.77</ele>
        <time>2024-11-03T13:53:31Z</time>
      </trkpt>
      <trkpt lat="42.29369" lon="1.80506">
        <ele>1559.61</ele>
        <time>2024-11-03T13:53:47Z</time>
      </trkpt>
      <trkpt lat="42.29368" lon="1.80499">
        <ele>1558.1</ele>
        <time>2024-11-03T13:54:03Z</time>
      </trkpt>
      <trkpt lat="42.29362" lon="1.80492">
        <ele>1555.75</ele>
        <time>2024-11-03T13:54:21Z</time>
      </trkpt>
      <trkpt lat="42.29357" lon="1.80489">
        <ele>1554.83</ele>
        <time>2024-11-03T13:54:36Z</time>
      </trkpt>
      <trkpt lat="42.29357" lon="1.80499">
        <ele>1553.06</ele>
        <time>2024-11-03T13:54:46Z</time>
      </trkpt>
      <trkpt lat="42.29347" lon="1.80517">
        <ele>1551.69</ele>
        <time>2024-11-03T13:55:03Z</time>
      </trkpt>
      <trkpt lat="42.29342" lon="1.80529">
        <ele>1550.14</ele>
        <time>2024-11-03T13:55:13Z</time>
      </trkpt>
      <trkpt lat="42.29326" lon="1.8055">
        <ele>1549.85</ele>
        <time>2024-11-03T13:55:34Z</time>
      </trkpt>
      <trkpt lat="42.29309" lon="1.80561">
        <ele>1549.84</ele>
        <time>2024-11-03T13:55:54Z</time>
      </trkpt>
      <trkpt lat="42.2929" lon="1.80571">
        <ele>1548.01</ele>
        <time>2024-11-03T13:56:12Z</time>
      </trkpt>
      <trkpt lat="42.2927" lon="1.80589">
        <ele>1545.23</ele>
        <time>2024-11-03T13:56:31Z</time>
      </trkpt>
      <trkpt lat="42.29258" lon="1.80603">
        <ele>1542.17</ele>
        <time>2024-11-03T13:56:45Z</time>
      </trkpt>
      <trkpt lat="42.29257" lon="1.80604">
        <ele>1542.37</ele>
        <time>2024-11-03T13:56:47Z</time>
      </trkpt>
      <trkpt lat="42.29244" lon="1.80626">
        <ele>1538.69</ele>
        <time>2024-11-03T13:57:06Z</time>
      </trkpt>
      <trkpt lat="42.29235" lon="1.80639">
        <ele>1536.97</ele>
        <time>2024-11-03T13:57:19Z</time>
      </trkpt>
      <trkpt lat="42.29224" lon="1.80664">
        <ele>1534.45</ele>
        <time>2024-11-03T13:57:40Z</time>
      </trkpt>
      <trkpt lat="42.29222" lon="1.80671">
        <ele>1532.03</ele>
        <time>2024-11-03T13:57:45Z</time>
      </trkpt>
      <trkpt lat="42.29214" lon="1.80697">
        <ele>1529.45</ele>
        <time>2024-11-03T13:58:05Z</time>
      </trkpt>
      <trkpt lat="42.29209" lon="1.80718">
        <ele>1526.24</ele>
        <time>2024-11-03T13:58:23Z</time>
      </trkpt>
      <trkpt lat="42.29203" lon="1.80742">
        <ele>1523.73</ele>
        <time>2024-11-03T13:58:42Z</time>
      </trkpt>
      <trkpt lat="42.29203" lon="1.80746">
        <ele>1523.19</ele>
        <time>2024-11-03T13:58:45Z</time>
      </trkpt>
      <trkpt lat="42.29198" lon="1.80764">
        <ele>1520.06</ele>
        <time>2024-11-03T13:59:02Z</time>
      </trkpt>
      <trkpt lat="42.29189" lon="1.8078">
        <ele>1516.88</ele>
        <time>2024-11-03T13:59:20Z</time>
      </trkpt>
      <trkpt lat="42.29181" lon="1.80786">
        <ele>1515.27</ele>
        <time>2024-11-03T13:59:31Z</time>
      </trkpt>
      <trkpt lat="42.29163" lon="1.80799">
        <ele>1512.37</ele>
        <time>2024-11-03T13:59:50Z</time>
      </trkpt>
      <trkpt lat="42.29152" lon="1.80816">
        <ele>1509.37</ele>
        <time>2024-11-03T14:00:08Z</time>
      </trkpt>
      <trkpt lat="42.29145" lon="1.80831">
        <ele>1507.06</ele>
        <time>2024-11-03T14:00:21Z</time>
      </trkpt>
      <trkpt lat="42.29137" lon="1.8085">
        <ele>1503.65</ele>
        <time>2024-11-03T14:00:39Z</time>
      </trkpt>
      <trkpt lat="42.29127" lon="1.80874">
        <ele>1500.62</ele>
        <time>2024-11-03T14:00:58Z</time>
      </trkpt>
      <trkpt lat="42.29127" lon="1.80875">
        <ele>1500.44</ele>
        <time>2024-11-03T14:00:59Z</time>
      </trkpt>
      <trkpt lat="42.29119" lon="1.80901">
        <ele>1497.77</ele>
        <time>2024-11-03T14:01:20Z</time>
      </trkpt>
      <trkpt lat="42.29112" lon="1.80917">
        <ele>1494.49</ele>
        <time>2024-11-03T14:01:34Z</time>
      </trkpt>
      <trkpt lat="42.29109" lon="1.80938">
        <ele>1492.84</ele>
        <time>2024-11-03T14:01:55Z</time>
      </trkpt>
      <trkpt lat="42.29115" lon="1.80942">
        <ele>1491.5</ele>
        <time>2024-11-03T14:02:13Z</time>
      </trkpt>
      <trkpt lat="42.29123" lon="1.80947">
        <ele>1489.75</ele>
        <time>2024-11-03T14:02:26Z</time>
      </trkpt>
      <trkpt lat="42.29132" lon="1.80965">
        <ele>1486.55</ele>
        <time>2024-11-03T14:02:47Z</time>
      </trkpt>
      <trkpt lat="42.29141" lon="1.80976">
        <ele>1483.89</ele>
        <time>2024-11-03T14:03:04Z</time>
      </trkpt>
      <trkpt lat="42.29147" lon="1.80978">
        <ele>1481.98</ele>
        <time>2024-11-03T14:03:15Z</time>
      </trkpt>
      <trkpt lat="42.29155" lon="1.80993">
        <ele>1480.09</ele>
        <time>2024-11-03T14:03:33Z</time>
      </trkpt>
      <trkpt lat="42.29163" lon="1.81005">
        <ele>1476.99</ele>
        <time>2024-11-03T14:03:51Z</time>
      </trkpt>
      <trkpt lat="42.29169" lon="1.81025">
        <ele>1473.78</ele>
        <time>2024-11-03T14:04:11Z</time>
      </trkpt>
      <trkpt lat="42.29181" lon="1.81033">
        <ele>1470.63</ele>
        <time>2024-11-03T14:04:32Z</time>
      </trkpt>
      <trkpt lat="42.29186" lon="1.81043">
        <ele>1468.19</ele>
        <time>2024-11-03T14:04:50Z</time>
      </trkpt>
      <trkpt lat="42.29191" lon="1.8106">
        <ele>1466.23</ele>
        <time>2024-11-03T14:05:06Z</time>
      </trkpt>
      <trkpt lat="42.29192" lon="1.81076">
        <ele>1463.19</ele>
        <time>2024-11-03T14:05:20Z</time>
      </trkpt>
      <trkpt lat="42.29192" lon="1.81097">
        <ele>1460.96</ele>
        <time>2024-11-03T14:05:38Z</time>
      </trkpt>
      <trkpt lat="42.29191" lon="1.81116">
        <ele>1457.45</ele>
        <time>2024-11-03T14:05:55Z</time>
      </trkpt>
      <trkpt lat="42.29191" lon="1.81139">
        <ele>1455.02</ele>
        <time>2024-11-03T14:06:15Z</time>
      </trkpt>
      <trkpt lat="42.29199" lon="1.81151">
        <ele>1451.92</ele>
        <time>2024-11-03T14:06:32Z</time>
      </trkpt>
      <trkpt lat="42.29192" lon="1.81164">
        <ele>1449.92</ele>
        <time>2024-11-03T14:06:53Z</time>
      </trkpt>
      <trkpt lat="42.29178" lon="1.8118">
        <ele>1446.84</ele>
        <time>2024-11-03T14:07:14Z</time>
      </trkpt>
      <trkpt lat="42.29165" lon="1.81192">
        <ele>1443.66</ele>
        <time>2024-11-03T14:07:33Z</time>
      </trkpt>
      <trkpt lat="42.29159" lon="1.81213">
        <ele>1440.92</ele>
        <time>2024-11-03T14:07:53Z</time>
      </trkpt>
      <trkpt lat="42.29157" lon="1.81222">
        <ele>1438.13</ele>
        <time>2024-11-03T14:08:10Z</time>
      </trkpt>
      <trkpt lat="42.29148" lon="1.81211">
        <ele>1434.86</ele>
        <time>2024-11-03T14:08:29Z</time>
      </trkpt>
      <trkpt lat="42.29134" lon="1.81211">
        <ele>1431.82</ele>
        <time>2024-11-03T14:08:44Z</time>
      </trkpt>
      <trkpt lat="42.29133" lon="1.81212">
        <ele>1431.54</ele>
        <time>2024-11-03T14:08:45Z</time>
      </trkpt>
      <trkpt lat="42.29114" lon="1.8121">
        <ele>1428.31</ele>
        <time>2024-11-03T14:09:05Z</time>
      </trkpt>
      <trkpt lat="42.2911" lon="1.81192">
        <ele>1425.15</ele>
        <time>2024-11-03T14:09:24Z</time>
      </trkpt>
      <trkpt lat="42.29113" lon="1.81176">
        <ele>1423.33</ele>
        <time>2024-11-03T14:09:43Z</time>
      </trkpt>
      <trkpt lat="42.29115" lon="1.81153">
        <ele>1419.45</ele>
        <time>2024-11-03T14:10:02Z</time>
      </trkpt>
      <trkpt lat="42.29102" lon="1.8115">
        <ele>1416.26</ele>
        <time>2024-11-03T14:10:19Z</time>
      </trkpt>
      <trkpt lat="42.29086" lon="1.81162">
        <ele>1414.23</ele>
        <time>2024-11-03T14:10:37Z</time>
      </trkpt>
      <trkpt lat="42.29064" lon="1.81185">
        <ele>1412.04</ele>
        <time>2024-11-03T14:11:00Z</time>
      </trkpt>
      <trkpt lat="42.29052" lon="1.81199">
        <ele>1409.3</ele>
        <time>2024-11-03T14:11:19Z</time>
      </trkpt>
      <trkpt lat="42.29036" lon="1.81206">
        <ele>1406.28</ele>
        <time>2024-11-03T14:11:37Z</time>
      </trkpt>
      <trkpt lat="42.29023" lon="1.81215">
        <ele>1404.52</ele>
        <time>2024-11-03T14:11:55Z</time>
      </trkpt>
      <trkpt lat="42.29028" lon="1.81222">
        <ele>1401.46</ele>
        <time>2024-11-03T14:12:13Z</time>
      </trkpt>
      <trkpt lat="42.29037" lon="1.81223">
        <ele>1398.29</ele>
        <time>2024-11-03T14:12:29Z</time>
      </trkpt>
      <trkpt lat="42.29054" lon="1.81235">
        <ele>1395.67</ele>
        <time>2024-11-03T14:12:47Z</time>
      </trkpt>
      <trkpt lat="42.29064" lon="1.8125">
        <ele>1392.64</ele>
        <time>2024-11-03T14:13:03Z</time>
      </trkpt>
      <trkpt lat="42.29078" lon="1.81263">
        <ele>1389.57</ele>
        <time>2024-11-03T14:13:19Z</time>
      </trkpt>
      <trkpt lat="42.29084" lon="1.81279">
        <ele>1386.37</ele>
        <time>2024-11-03T14:13:35Z</time>
      </trkpt>
      <trkpt lat="42.29091" lon="1.81299">
        <ele>1383.32</ele>
        <time>2024-11-03T14:13:54Z</time>
      </trkpt>
      <trkpt lat="42.2909" lon="1.81305">
        <ele>1382.77</ele>
        <time>2024-11-03T14:14:00Z</time>
      </trkpt>
      <trkpt lat="42.29094" lon="1.81319">
        <ele>1379.56</ele>
        <time>2024-11-03T14:14:13Z</time>
      </trkpt>
      <trkpt lat="42.29084" lon="1.81314">
        <ele>1376.55</ele>
        <time>2024-11-03T14:14:27Z</time>
      </trkpt>
      <trkpt lat="42.29081" lon="1.81319">
        <ele>1375.61</ele>
        <time>2024-11-03T14:14:33Z</time>
      </trkpt>
      <trkpt lat="42.29069" lon="1.81334">
        <ele>1374.85</ele>
        <time>2024-11-03T14:14:54Z</time>
      </trkpt>
      <trkpt lat="42.29047" lon="1.81334">
        <ele>1372.67</ele>
        <time>2024-11-03T14:15:14Z</time>
      </trkpt>
      <trkpt lat="42.29029" lon="1.81338">
        <ele>1369.56</ele>
        <time>2024-11-03T14:15:32Z</time>
      </trkpt>
      <trkpt lat="42.29014" lon="1.81338">
        <ele>1366.29</ele>
        <time>2024-11-03T14:15:48Z</time>
      </trkpt>
      <trkpt lat="42.28994" lon="1.81337">
        <ele>1363.16</ele>
        <time>2024-11-03T14:16:06Z</time>
      </trkpt>
      <trkpt lat="42.28982" lon="1.8135">
        <ele>1359.86</ele>
        <time>2024-11-03T14:16:23Z</time>
      </trkpt>
      <trkpt lat="42.28972" lon="1.81366">
        <ele>1356.45</ele>
        <time>2024-11-03T14:16:41Z</time>
      </trkpt>
      <trkpt lat="42.28953" lon="1.81382">
        <ele>1353.44</ele>
        <time>2024-11-03T14:16:58Z</time>
      </trkpt>
      <trkpt lat="42.28931" lon="1.81383">
        <ele>1351.81</ele>
        <time>2024-11-03T14:17:17Z</time>
      </trkpt>
      <trkpt lat="42.28912" lon="1.81373">
        <ele>1351.86</ele>
        <time>2024-11-03T14:17:37Z</time>
      </trkpt>
      <trkpt lat="42.28896" lon="1.8138">
        <ele>1353.31</ele>
        <time>2024-11-03T14:17:57Z</time>
      </trkpt>
      <trkpt lat="42.28887" lon="1.81386">
        <ele>1352.61</ele>
        <time>2024-11-03T14:18:04Z</time>
      </trkpt>
      <trkpt lat="42.28866" lon="1.814">
        <ele>1348.75</ele>
        <time>2024-11-03T14:18:26Z</time>
      </trkpt>
      <trkpt lat="42.28858" lon="1.81415">
        <ele>1347.71</ele>
        <time>2024-11-03T14:18:40Z</time>
      </trkpt>
      <trkpt lat="42.28852" lon="1.81438">
        <ele>1344.96</ele>
        <time>2024-11-03T14:18:59Z</time>
      </trkpt>
      <trkpt lat="42.28844" lon="1.81464">
        <ele>1341.64</ele>
        <time>2024-11-03T14:19:19Z</time>
      </trkpt>
      <trkpt lat="42.28844" lon="1.81465">
        <ele>1341.36</ele>
        <time>2024-11-03T14:19:20Z</time>
      </trkpt>
      <trkpt lat="42.28843" lon="1.81469">
        <ele>1340.85</ele>
        <time>2024-11-03T14:19:23Z</time>
      </trkpt>
      <trkpt lat="42.28837" lon="1.8149">
        <ele>1338.13</ele>
        <time>2024-11-03T14:19:40Z</time>
      </trkpt>
      <trkpt lat="42.28841" lon="1.815">
        <ele>1336.78</ele>
        <time>2024-11-03T14:19:48Z</time>
      </trkpt>
      <trkpt lat="42.28844" lon="1.81508">
        <ele>1335.37</ele>
        <time>2024-11-03T14:19:54Z</time>
      </trkpt>
      <trkpt lat="42.28841" lon="1.81514">
        <ele>1335.58</ele>
        <time>2024-11-03T14:20:00Z</time>
      </trkpt>
      <trkpt lat="42.28831" lon="1.81537">
        <ele>1332.98</ele>
        <time>2024-11-03T14:20:19Z</time>
      </trkpt>
      <trkpt lat="42.28829" lon="1.81546">
        <ele>1331.68</ele>
        <time>2024-11-03T14:20:26Z</time>
      </trkpt>
      <trkpt lat="42.28822" lon="1.81571">
        <ele>1328.6</ele>
        <time>2024-11-03T14:20:44Z</time>
      </trkpt>
      <trkpt lat="42.28814" lon="1.8159">
        <ele>1326.23</ele>
        <time>2024-11-03T14:21:00Z</time>
      </trkpt>
      <trkpt lat="42.28806" lon="1.81614">
        <ele>1323.83</ele>
        <time>2024-11-03T14:21:19Z</time>
      </trkpt>
      <trkpt lat="42.28794" lon="1.81637">
        <ele>1320.44</ele>
        <time>2024-11-03T14:21:39Z</time>
      </trkpt>
      <trkpt lat="42.28782" lon="1.81662">
        <ele>1317.74</ele>
        <time>2024-11-03T14:21:59Z</time>
      </trkpt>
      <trkpt lat="42.28768" lon="1.81686">
        <ele>1314.74</ele>
        <time>2024-11-03T14:22:21Z</time>
      </trkpt>
      <trkpt lat="42.28761" lon="1.81691">
        <ele>1314.07</ele>
        <time>2024-11-03T14:22:35Z</time>
      </trkpt>
      <trkpt lat="42.28752" lon="1.81698">
        <ele>1313.74</ele>
        <time>2024-11-03T14:22:51Z</time>
      </trkpt>
      <trkpt lat="42.28736" lon="1.81691">
        <ele>1314.58</ele>
        <time>2024-11-03T14:23:11Z</time>
      </trkpt>
      <trkpt lat="42.2873" lon="1.81688">
        <ele>1314.7</ele>
        <time>2024-11-03T14:23:17Z</time>
      </trkpt>
      <trkpt lat="42.28722" lon="1.81689">
        <ele>1314.36</ele>
        <time>2024-11-03T14:23:25Z</time>
      </trkpt>
      <trkpt lat="42.28704" lon="1.81704">
        <ele>1312.03</ele>
        <time>2024-11-03T14:23:47Z</time>
      </trkpt>
      <trkpt lat="42.28693" lon="1.81716">
        <ele>1310.69</ele>
        <time>2024-11-03T14:24:04Z</time>
      </trkpt>
      <trkpt lat="42.28689" lon="1.81742">
        <ele>1309.37</ele>
        <time>2024-11-03T14:24:23Z</time>
      </trkpt>
      <trkpt lat="42.2869" lon="1.81746">
        <ele>1309.3</ele>
        <time>2024-11-03T14:24:26Z</time>
      </trkpt>
      <trkpt lat="42.28705" lon="1.81771">
        <ele>1308.3</ele>
        <time>2024-11-03T14:24:48Z</time>
      </trkpt>
      <trkpt lat="42.28716" lon="1.8179">
        <ele>1307.84</ele>
        <time>2024-11-03T14:25:05Z</time>
      </trkpt>
      <trkpt lat="42.28722" lon="1.81816">
        <ele>1307.38</ele>
        <time>2024-11-03T14:25:22Z</time>
      </trkpt>
      <trkpt lat="42.28728" lon="1.81831">
        <ele>1306.35</ele>
        <time>2024-11-03T14:25:32Z</time>
      </trkpt>
      <trkpt lat="42.28739" lon="1.81854">
        <ele>1306.23</ele>
        <time>2024-11-03T14:25:51Z</time>
      </trkpt>
      <trkpt lat="42.28743" lon="1.81871">
        <ele>1307.62</ele>
        <time>2024-11-03T14:26:10Z</time>
      </trkpt>
      <trkpt lat="42.28742" lon="1.81879">
        <ele>1307.16</ele>
        <time>2024-11-03T14:26:36Z</time>
      </trkpt>
      <trkpt lat="42.28746" lon="1.81879">
        <ele>1308.19</ele>
        <time>2024-11-03T14:27:14Z</time>
      </trkpt>
      <trkpt lat="42.28747" lon="1.81889">
        <ele>1310.88</ele>
        <time>2024-11-03T14:27:33Z</time>
      </trkpt>
      <trkpt lat="42.28747" lon="1.81909">
        <ele>1312.9</ele>
        <time>2024-11-03T14:27:54Z</time>
      </trkpt>
      <trkpt lat="42.28743" lon="1.81931">
        <ele>1315.14</ele>
        <time>2024-11-03T14:28:15Z</time>
      </trkpt>
      <trkpt lat="42.28739" lon="1.81951">
        <ele>1318.37</ele>
        <time>2024-11-03T14:28:38Z</time>
      </trkpt>
      <trkpt lat="42.28728" lon="1.81963">
        <ele>1318.78</ele>
        <time>2024-11-03T14:28:56Z</time>
      </trkpt>
      <trkpt lat="42.28715" lon="1.81973">
        <ele>1321.76</ele>
        <time>2024-11-03T14:29:17Z</time>
      </trkpt>
      <trkpt lat="42.28721" lon="1.81985">
        <ele>1323.86</ele>
        <time>2024-11-03T14:29:35Z</time>
      </trkpt>
      <trkpt lat="42.28733" lon="1.81988">
        <ele>1324.65</ele>
        <time>2024-11-03T14:29:51Z</time>
      </trkpt>
      <trkpt lat="42.28736" lon="1.82001">
        <ele>1327.34</ele>
        <time>2024-11-03T14:30:11Z</time>
      </trkpt>
      <trkpt lat="42.2872" lon="1.82004">
        <ele>1329.62</ele>
        <time>2024-11-03T14:30:31Z</time>
      </trkpt>
      <trkpt lat="42.28711" lon="1.82003">
        <ele>1332.75</ele>
        <time>2024-11-03T14:30:45Z</time>
      </trkpt>
      <trkpt lat="42.28695" lon="1.8201">
        <ele>1333.45</ele>
        <time>2024-11-03T14:31:06Z</time>
      </trkpt>
      <trkpt lat="42.28685" lon="1.82011">
        <ele>1336.47</ele>
        <time>2024-11-03T14:31:26Z</time>
      </trkpt>
      <trkpt lat="42.28687" lon="1.82018">
        <ele>1338.73</ele>
        <time>2024-11-03T14:31:46Z</time>
      </trkpt>
      <trkpt lat="42.28681" lon="1.82027">
        <ele>1341.45</ele>
        <time>2024-11-03T14:32:08Z</time>
      </trkpt>
      <trkpt lat="42.28688" lon="1.82032">
        <ele>1342.99</ele>
        <time>2024-11-03T14:32:26Z</time>
      </trkpt>
      <trkpt lat="42.28691" lon="1.82037">
        <ele>1344.97</ele>
        <time>2024-11-03T14:32:46Z</time>
      </trkpt>
      <trkpt lat="42.28698" lon="1.82047">
        <ele>1347.52</ele>
        <time>2024-11-03T14:33:07Z</time>
      </trkpt>
      <trkpt lat="42.28698" lon="1.8206">
        <ele>1350.68</ele>
        <time>2024-11-03T14:33:30Z</time>
      </trkpt>
      <trkpt lat="42.28698" lon="1.82071">
        <ele>1354.03</ele>
        <time>2024-11-03T14:33:52Z</time>
      </trkpt>
      <trkpt lat="42.28699" lon="1.82081">
        <ele>1356.88</ele>
        <time>2024-11-03T14:34:15Z</time>
      </trkpt>
      <trkpt lat="42.287" lon="1.82092">
        <ele>1358.66</ele>
        <time>2024-11-03T14:34:36Z</time>
      </trkpt>
      <trkpt lat="42.287" lon="1.821">
        <ele>1362.17</ele>
        <time>2024-11-03T14:34:55Z</time>
      </trkpt>
      <trkpt lat="42.28708" lon="1.82111">
        <ele>1364.19</ele>
        <time>2024-11-03T14:35:14Z</time>
      </trkpt>
      <trkpt lat="42.28715" lon="1.82116">
        <ele>1365.88</ele>
        <time>2024-11-03T14:35:35Z</time>
      </trkpt>
      <trkpt lat="42.28713" lon="1.82123">
        <ele>1368.95</ele>
        <time>2024-11-03T14:35:54Z</time>
      </trkpt>
      <trkpt lat="42.28714" lon="1.82134">
        <ele>1371.33</ele>
        <time>2024-11-03T14:36:15Z</time>
      </trkpt>
      <trkpt lat="42.28722" lon="1.82142">
        <ele>1373.72</ele>
        <time>2024-11-03T14:36:35Z</time>
      </trkpt>
      <trkpt lat="42.28725" lon="1.82151">
        <ele>1375.93</ele>
        <time>2024-11-03T14:36:55Z</time>
      </trkpt>
      <trkpt lat="42.28723" lon="1.8216">
        <ele>1378.96</ele>
        <time>2024-11-03T14:37:17Z</time>
      </trkpt>
      <trkpt lat="42.28725" lon="1.82165">
        <ele>1381.78</ele>
        <time>2024-11-03T14:37:37Z</time>
      </trkpt>
      <trkpt lat="42.28728" lon="1.82175">
        <ele>1384.14</ele>
        <time>2024-11-03T14:37:58Z</time>
      </trkpt>
      <trkpt lat="42.28731" lon="1.82179">
        <ele>1387.37</ele>
        <time>2024-11-03T14:38:17Z</time>
      </trkpt>
      <trkpt lat="42.28738" lon="1.82187">
        <ele>1389.71</ele>
        <time>2024-11-03T14:38:37Z</time>
      </trkpt>
      <trkpt lat="42.28746" lon="1.82193">
        <ele>1392.24</ele>
        <time>2024-11-03T14:38:56Z</time>
      </trkpt>
      <trkpt lat="42.28754" lon="1.82191">
        <ele>1394.84</ele>
        <time>2024-11-03T14:39:17Z</time>
      </trkpt>
      <trkpt lat="42.28757" lon="1.82199">
        <ele>1398.29</ele>
        <time>2024-11-03T14:39:36Z</time>
      </trkpt>
      <trkpt lat="42.28755" lon="1.82206">
        <ele>1399.76</ele>
        <time>2024-11-03T14:39:53Z</time>
      </trkpt>
      <trkpt lat="42.28758" lon="1.82214">
        <ele>1402.64</ele>
        <time>2024-11-03T14:40:15Z</time>
      </trkpt>
      <trkpt lat="42.28756" lon="1.82221">
        <ele>1405.75</ele>
        <time>2024-11-03T14:40:35Z</time>
      </trkpt>
      <trkpt lat="42.28759" lon="1.82229">
        <ele>1407.75</ele>
        <time>2024-11-03T14:40:57Z</time>
      </trkpt>
      <trkpt lat="42.28761" lon="1.82233">
        <ele>1410.76</ele>
        <time>2024-11-03T14:41:16Z</time>
      </trkpt>
      <trkpt lat="42.28752" lon="1.82239">
        <ele>1413.06</ele>
        <time>2024-11-03T14:41:34Z</time>
      </trkpt>
      <trkpt lat="42.2876" lon="1.82249">
        <ele>1415.93</ele>
        <time>2024-11-03T14:41:54Z</time>
      </trkpt>
      <trkpt lat="42.28767" lon="1.82255">
        <ele>1417.85</ele>
        <time>2024-11-03T14:42:11Z</time>
      </trkpt>
      <trkpt lat="42.28762" lon="1.82256">
        <ele>1420.88</ele>
        <time>2024-11-03T14:42:31Z</time>
      </trkpt>
      <trkpt lat="42.28759" lon="1.82263">
        <ele>1423.98</ele>
        <time>2024-11-03T14:42:51Z</time>
      </trkpt>
      <trkpt lat="42.28762" lon="1.82271">
        <ele>1426.25</ele>
        <time>2024-11-03T14:43:09Z</time>
      </trkpt>
      <trkpt lat="42.28767" lon="1.8228">
        <ele>1429.32</ele>
        <time>2024-11-03T14:43:28Z</time>
      </trkpt>
      <trkpt lat="42.28773" lon="1.8229">
        <ele>1431.47</ele>
        <time>2024-11-03T14:43:47Z</time>
      </trkpt>
      <trkpt lat="42.28776" lon="1.82299">
        <ele>1434.63</ele>
        <time>2024-11-03T14:44:05Z</time>
      </trkpt>
      <trkpt lat="42.28778" lon="1.82319">
        <ele>1436.74</ele>
        <time>2024-11-03T14:44:26Z</time>
      </trkpt>
      <trkpt lat="42.2878" lon="1.8233">
        <ele>1438.54</ele>
        <time>2024-11-03T14:44:42Z</time>
      </trkpt>
      <trkpt lat="42.2878" lon="1.82346">
        <ele>1441.59</ele>
        <time>2024-11-03T14:45:03Z</time>
      </trkpt>
      <trkpt lat="42.28784" lon="1.82362">
        <ele>1444.76</ele>
        <time>2024-11-03T14:45:25Z</time>
      </trkpt>
      <trkpt lat="42.28786" lon="1.82375">
        <ele>1446.74</ele>
        <time>2024-11-03T14:45:45Z</time>
      </trkpt>
      <trkpt lat="42.28787" lon="1.82391">
        <ele>1450.1</ele>
        <time>2024-11-03T14:46:05Z</time>
      </trkpt>
      <trkpt lat="42.28792" lon="1.82404">
        <ele>1452.79</ele>
        <time>2024-11-03T14:46:28Z</time>
      </trkpt>
      <trkpt lat="42.288" lon="1.82399">
        <ele>1455.56</ele>
        <time>2024-11-03T14:46:50Z</time>
      </trkpt>
      <trkpt lat="42.28804" lon="1.824">
        <ele>1458.89</ele>
        <time>2024-11-03T14:47:09Z</time>
      </trkpt>
      <trkpt lat="42.28803" lon="1.82413">
        <ele>1462.01</ele>
        <time>2024-11-03T14:47:29Z</time>
      </trkpt>
      <trkpt lat="42.28802" lon="1.82427">
        <ele>1464.15</ele>
        <time>2024-11-03T14:47:50Z</time>
      </trkpt>
      <trkpt lat="42.28802" lon="1.82438">
        <ele>1467.15</ele>
        <time>2024-11-03T14:48:13Z</time>
      </trkpt>
      <trkpt lat="42.28793" lon="1.82452">
        <ele>1469.62</ele>
        <time>2024-11-03T14:48:33Z</time>
      </trkpt>
      <trkpt lat="42.28787" lon="1.8246">
        <ele>1471.26</ele>
        <time>2024-11-03T14:48:46Z</time>
      </trkpt>
      <trkpt lat="42.28785" lon="1.8247">
        <ele>1474.41</ele>
        <time>2024-11-03T14:49:07Z</time>
      </trkpt>
      <trkpt lat="42.28791" lon="1.82478">
        <ele>1477.07</ele>
        <time>2024-11-03T14:49:25Z</time>
      </trkpt>
      <trkpt lat="42.28786" lon="1.82484">
        <ele>1479.46</ele>
        <time>2024-11-03T14:49:43Z</time>
      </trkpt>
      <trkpt lat="42.28777" lon="1.82496">
        <ele>1481.5</ele>
        <time>2024-11-03T14:50:03Z</time>
      </trkpt>
      <trkpt lat="42.28774" lon="1.82505">
        <ele>1484.9</ele>
        <time>2024-11-03T14:50:19Z</time>
      </trkpt>
      <trkpt lat="42.28774" lon="1.82519">
        <ele>1487.81</ele>
        <time>2024-11-03T14:50:40Z</time>
      </trkpt>
      <trkpt lat="42.28771" lon="1.82526">
        <ele>1489.53</ele>
        <time>2024-11-03T14:50:58Z</time>
      </trkpt>
      <trkpt lat="42.28772" lon="1.82529">
        <ele>1489.36</ele>
        <time>2024-11-03T14:51:22Z</time>
      </trkpt>
      <trkpt lat="42.28774" lon="1.82537">
        <ele>1489.6</ele>
        <time>2024-11-03T14:51:41Z</time>
      </trkpt>
      <trkpt lat="42.28773" lon="1.82538">
        <ele>1489.99</ele>
        <time>2024-11-03T14:52:02Z</time>
      </trkpt>
      <trkpt lat="42.28774" lon="1.82539">
        <ele>1489.6</ele>
        <time>2024-11-03T14:52:27Z</time>
      </trkpt>
      <trkpt lat="42.28773" lon="1.82538">
        <ele>1489.6</ele>
        <time>2024-11-03T14:52:53Z</time>
      </trkpt>
      <trkpt lat="42.28773" lon="1.82538">
        <ele>1489.52</ele>
        <time>2024-11-03T14:53:34Z</time>
      </trkpt>
      <trkpt lat="42.28772" lon="1.8254">
        <ele>1490.24</ele>
        <time>2024-11-03T14:54:30Z</time>
      </trkpt>
      <trkpt lat="42.28772" lon="1.8254">
        <ele>1490.41</ele>
        <time>2024-11-03T14:55:08Z</time>
      </trkpt>
      <trkpt lat="42.28773" lon="1.82541">
        <ele>1491.75</ele>
        <time>2024-11-03T14:55:27Z</time>
      </trkpt>
      <trkpt lat="42.28776" lon="1.82542">
        <ele>1491.64</ele>
        <time>2024-11-03T14:55:49Z</time>
      </trkpt>
      <trkpt lat="42.28776" lon="1.82553">
        <ele>1490.7</ele>
        <time>2024-11-03T14:56:04Z</time>
      </trkpt>
      <trkpt lat="42.28775" lon="1.82556">
        <ele>1490.21</ele>
        <time>2024-11-03T14:56:06Z</time>
      </trkpt>
      <trkpt lat="42.28764" lon="1.82572">
        <ele>1486.98</ele>
        <time>2024-11-03T14:56:25Z</time>
      </trkpt>
      <trkpt lat="42.28754" lon="1.82586">
        <ele>1483.81</ele>
        <time>2024-11-03T14:56:41Z</time>
      </trkpt>
      <trkpt lat="42.28747" lon="1.82603">
        <ele>1480.58</ele>
        <time>2024-11-03T14:57:01Z</time>
      </trkpt>
      <trkpt lat="42.28744" lon="1.82623">
        <ele>1477.49</ele>
        <time>2024-11-03T14:57:18Z</time>
      </trkpt>
      <trkpt lat="42.28737" lon="1.82641">
        <ele>1474.98</ele>
        <time>2024-11-03T14:57:36Z</time>
      </trkpt>
      <trkpt lat="42.28732" lon="1.82656">
        <ele>1471.67</ele>
        <time>2024-11-03T14:57:52Z</time>
      </trkpt>
      <trkpt lat="42.28728" lon="1.82673">
        <ele>1469.09</ele>
        <time>2024-11-03T14:58:07Z</time>
      </trkpt>
      <trkpt lat="42.28724" lon="1.82683">
        <ele>1466.03</ele>
        <time>2024-11-03T14:58:20Z</time>
      </trkpt>
      <trkpt lat="42.28717" lon="1.82698">
        <ele>1462.94</ele>
        <time>2024-11-03T14:58:38Z</time>
      </trkpt>
      <trkpt lat="42.28711" lon="1.8271">
        <ele>1459.64</ele>
        <time>2024-11-03T14:58:52Z</time>
      </trkpt>
      <trkpt lat="42.28704" lon="1.82725">
        <ele>1456.52</ele>
        <time>2024-11-03T14:59:08Z</time>
      </trkpt>
      <trkpt lat="42.28697" lon="1.8274">
        <ele>1453.36</ele>
        <time>2024-11-03T14:59:24Z</time>
      </trkpt>
      <trkpt lat="42.28693" lon="1.82759">
        <ele>1449.93</ele>
        <time>2024-11-03T14:59:39Z</time>
      </trkpt>
      <trkpt lat="42.2869" lon="1.82775">
        <ele>1446.91</ele>
        <time>2024-11-03T14:59:56Z</time>
      </trkpt>
      <trkpt lat="42.28687" lon="1.82787">
        <ele>1445.14</ele>
        <time>2024-11-03T15:00:05Z</time>
      </trkpt>
      <trkpt lat="42.28684" lon="1.82796">
        <ele>1443.65</ele>
        <time>2024-11-03T15:00:12Z</time>
      </trkpt>
      <trkpt lat="42.2868" lon="1.8282">
        <ele>1440.57</ele>
        <time>2024-11-03T15:00:29Z</time>
      </trkpt>
      <trkpt lat="42.28681" lon="1.8284">
        <ele>1437.51</ele>
        <time>2024-11-03T15:00:45Z</time>
      </trkpt>
      <trkpt lat="42.2868" lon="1.82851">
        <ele>1435.26</ele>
        <time>2024-11-03T15:00:55Z</time>
      </trkpt>
      <trkpt lat="42.2869" lon="1.82875">
        <ele>1431.96</ele>
        <time>2024-11-03T15:01:13Z</time>
      </trkpt>
      <trkpt lat="42.28699" lon="1.82889">
        <ele>1428.86</ele>
        <time>2024-11-03T15:01:26Z</time>
      </trkpt>
      <trkpt lat="42.28701" lon="1.82906">
        <ele>1425.71</ele>
        <time>2024-11-03T15:01:40Z</time>
      </trkpt>
      <trkpt lat="42.28698" lon="1.8292">
        <ele>1423.56</ele>
        <time>2024-11-03T15:01:52Z</time>
      </trkpt>
      <trkpt lat="42.28693" lon="1.82947">
        <ele>1422.16</ele>
        <time>2024-11-03T15:02:13Z</time>
      </trkpt>
      <trkpt lat="42.28694" lon="1.82974">
        <ele>1419.57</ele>
        <time>2024-11-03T15:02:30Z</time>
      </trkpt>
      <trkpt lat="42.28695" lon="1.82983">
        <ele>1418.38</ele>
        <time>2024-11-03T15:02:36Z</time>
      </trkpt>
      <trkpt lat="42.28696" lon="1.8299">
        <ele>1417.26</ele>
        <time>2024-11-03T15:02:41Z</time>
      </trkpt>
      <trkpt lat="42.28698" lon="1.82999">
        <ele>1416.65</ele>
        <time>2024-11-03T15:02:47Z</time>
      </trkpt>
      <trkpt lat="42.28712" lon="1.83021">
        <ele>1413.72</ele>
        <time>2024-11-03T15:03:04Z</time>
      </trkpt>
      <trkpt lat="42.28722" lon="1.83034">
        <ele>1410.58</ele>
        <time>2024-11-03T15:03:16Z</time>
      </trkpt>
      <trkpt lat="42.28736" lon="1.83044">
        <ele>1407.23</ele>
        <time>2024-11-03T15:03:31Z</time>
      </trkpt>
      <trkpt lat="42.28747" lon="1.83058">
        <ele>1404.02</ele>
        <time>2024-11-03T15:03:45Z</time>
      </trkpt>
      <trkpt lat="42.28754" lon="1.83081">
        <ele>1400.73</ele>
        <time>2024-11-03T15:04:01Z</time>
      </trkpt>
      <trkpt lat="42.28755" lon="1.83085">
        <ele>1400.46</ele>
        <time>2024-11-03T15:04:04Z</time>
      </trkpt>
      <trkpt lat="42.28755" lon="1.8309">
        <ele>1399.47</ele>
        <time>2024-11-03T15:04:08Z</time>
      </trkpt>
      <trkpt lat="42.28752" lon="1.83107">
        <ele>1396.39</ele>
        <time>2024-11-03T15:04:22Z</time>
      </trkpt>
      <trkpt lat="42.28743" lon="1.83125">
        <ele>1393.51</ele>
        <time>2024-11-03T15:04:39Z</time>
      </trkpt>
      <trkpt lat="42.28742" lon="1.8314">
        <ele>1389.95</ele>
        <time>2024-11-03T15:04:50Z</time>
      </trkpt>
      <trkpt lat="42.28743" lon="1.83141">
        <ele>1389.79</ele>
        <time>2024-11-03T15:04:51Z</time>
      </trkpt>
      <trkpt lat="42.28739" lon="1.8316">
        <ele>1386.33</ele>
        <time>2024-11-03T15:05:07Z</time>
      </trkpt>
      <trkpt lat="42.2874" lon="1.83178">
        <ele>1383.75</ele>
        <time>2024-11-03T15:05:18Z</time>
      </trkpt>
      <trkpt lat="42.28745" lon="1.83195">
        <ele>1380.41</ele>
        <time>2024-11-03T15:05:30Z</time>
      </trkpt>
      <trkpt lat="42.28746" lon="1.83212">
        <ele>1377.19</ele>
        <time>2024-11-03T15:05:46Z</time>
      </trkpt>
      <trkpt lat="42.2874" lon="1.83219">
        <ele>1373.89</ele>
        <time>2024-11-03T15:05:58Z</time>
      </trkpt>
      <trkpt lat="42.28733" lon="1.83235">
        <ele>1370.51</ele>
        <time>2024-11-03T15:06:15Z</time>
      </trkpt>
      <trkpt lat="42.28733" lon="1.83237">
        <ele>1369.95</ele>
        <time>2024-11-03T15:06:17Z</time>
      </trkpt>
      <trkpt lat="42.2873" lon="1.8325">
        <ele>1367.34</ele>
        <time>2024-11-03T15:06:26Z</time>
      </trkpt>
      <trkpt lat="42.2873" lon="1.83268">
        <ele>1364.15</ele>
        <time>2024-11-03T15:06:38Z</time>
      </trkpt>
      <trkpt lat="42.28733" lon="1.83276">
        <ele>1363.26</ele>
        <time>2024-11-03T15:06:46Z</time>
      </trkpt>
      <trkpt lat="42.28735" lon="1.83281">
        <ele>1362.01</ele>
        <time>2024-11-03T15:06:49Z</time>
      </trkpt>
      <trkpt lat="42.28736" lon="1.83282">
        <ele>1361.94</ele>
        <time>2024-11-03T15:06:50Z</time>
      </trkpt>
      <trkpt lat="42.28737" lon="1.83295">
        <ele>1359.75</ele>
        <time>2024-11-03T15:06:59Z</time>
      </trkpt>
      <trkpt lat="42.28721" lon="1.83304">
        <ele>1355.83</ele>
        <time>2024-11-03T15:07:16Z</time>
      </trkpt>
      <trkpt lat="42.2872" lon="1.83304">
        <ele>1355.68</ele>
        <time>2024-11-03T15:07:17Z</time>
      </trkpt>
      <trkpt lat="42.28703" lon="1.83309">
        <ele>1352.6</ele>
        <time>2024-11-03T15:07:31Z</time>
      </trkpt>
      <trkpt lat="42.28685" lon="1.83313">
        <ele>1349.3</ele>
        <time>2024-11-03T15:07:47Z</time>
      </trkpt>
      <trkpt lat="42.28676" lon="1.83318">
        <ele>1346.88</ele>
        <time>2024-11-03T15:07:57Z</time>
      </trkpt>
      <trkpt lat="42.28658" lon="1.83328">
        <ele>1343.74</ele>
        <time>2024-11-03T15:08:13Z</time>
      </trkpt>
      <trkpt lat="42.28645" lon="1.83337">
        <ele>1340.64</ele>
        <time>2024-11-03T15:08:25Z</time>
      </trkpt>
      <trkpt lat="42.28632" lon="1.83358">
        <ele>1337.54</ele>
        <time>2024-11-03T15:08:42Z</time>
      </trkpt>
      <trkpt lat="42.2863" lon="1.83366">
        <ele>1336.14</ele>
        <time>2024-11-03T15:08:46Z</time>
      </trkpt>
      <trkpt lat="42.28628" lon="1.83379">
        <ele>1334.37</ele>
        <time>2024-11-03T15:08:55Z</time>
      </trkpt>
      <trkpt lat="42.28619" lon="1.83393">
        <ele>1331.75</ele>
        <time>2024-11-03T15:09:07Z</time>
      </trkpt>
      <trkpt lat="42.28606" lon="1.8341">
        <ele>1328.35</ele>
        <time>2024-11-03T15:09:22Z</time>
      </trkpt>
      <trkpt lat="42.28606" lon="1.83411">
        <ele>1328.14</ele>
        <time>2024-11-03T15:09:23Z</time>
      </trkpt>
      <trkpt lat="42.28617" lon="1.83408">
        <ele>1324.86</ele>
        <time>2024-11-03T15:09:36Z</time>
      </trkpt>
      <trkpt lat="42.28619" lon="1.83408">
        <ele>1324.3</ele>
        <time>2024-11-03T15:09:38Z</time>
      </trkpt>
      <trkpt lat="42.28633" lon="1.83401">
        <ele>1321.5</ele>
        <time>2024-11-03T15:09:53Z</time>
      </trkpt>
      <trkpt lat="42.28647" lon="1.83388">
        <ele>1318.45</ele>
        <time>2024-11-03T15:10:10Z</time>
      </trkpt>
      <trkpt lat="42.28665" lon="1.83395">
        <ele>1314.85</ele>
        <time>2024-11-03T15:10:25Z</time>
      </trkpt>
      <trkpt lat="42.28671" lon="1.83402">
        <ele>1314.03</ele>
        <time>2024-11-03T15:10:30Z</time>
      </trkpt>
      <trkpt lat="42.28688" lon="1.83423">
        <ele>1310.35</ele>
        <time>2024-11-03T15:10:48Z</time>
      </trkpt>
      <trkpt lat="42.2869" lon="1.83426">
        <ele>1310.11</ele>
        <time>2024-11-03T15:10:50Z</time>
      </trkpt>
      <trkpt lat="42.2868" lon="1.83432">
        <ele>1306.7</ele>
        <time>2024-11-03T15:11:01Z</time>
      </trkpt>
      <trkpt lat="42.28675" lon="1.83431">
        <ele>1305.78</ele>
        <time>2024-11-03T15:11:05Z</time>
      </trkpt>
      <trkpt lat="42.28662" lon="1.83439">
        <ele>1303.08</ele>
        <time>2024-11-03T15:11:16Z</time>
      </trkpt>
      <trkpt lat="42.28644" lon="1.83454">
        <ele>1300.21</ele>
        <time>2024-11-03T15:11:35Z</time>
      </trkpt>
      <trkpt lat="42.28643" lon="1.83456">
        <ele>1299.7</ele>
        <time>2024-11-03T15:11:36Z</time>
      </trkpt>
      <trkpt lat="42.28635" lon="1.83485">
        <ele>1295.72</ele>
        <time>2024-11-03T15:11:52Z</time>
      </trkpt>
      <trkpt lat="42.28634" lon="1.83489">
        <ele>1294.4</ele>
        <time>2024-11-03T15:11:56Z</time>
      </trkpt>
      <trkpt lat="42.28633" lon="1.83492">
        <ele>1294.59</ele>
        <time>2024-11-03T15:11:58Z</time>
      </trkpt>
      <trkpt lat="42.28632" lon="1.835">
        <ele>1292.28</ele>
        <time>2024-11-03T15:12:03Z</time>
      </trkpt>
      <trkpt lat="42.28628" lon="1.83523">
        <ele>1288.77</ele>
        <time>2024-11-03T15:12:17Z</time>
      </trkpt>
      <trkpt lat="42.28624" lon="1.83542">
        <ele>1285.8</ele>
        <time>2024-11-03T15:12:29Z</time>
      </trkpt>
      <trkpt lat="42.28623" lon="1.83549">
        <ele>1284.63</ele>
        <time>2024-11-03T15:12:34Z</time>
      </trkpt>
      <trkpt lat="42.28623" lon="1.83575">
        <ele>1281.09</ele>
        <time>2024-11-03T15:12:49Z</time>
      </trkpt>
      <trkpt lat="42.28631" lon="1.83591">
        <ele>1278.16</ele>
        <time>2024-11-03T15:13:01Z</time>
      </trkpt>
      <trkpt lat="42.28642" lon="1.83602">
        <ele>1275.16</ele>
        <time>2024-11-03T15:13:14Z</time>
      </trkpt>
      <trkpt lat="42.28649" lon="1.83612">
        <ele>1272.12</ele>
        <time>2024-11-03T15:13:23Z</time>
      </trkpt>
      <trkpt lat="42.28653" lon="1.83624">
        <ele>1268.64</ele>
        <time>2024-11-03T15:13:33Z</time>
      </trkpt>
      <trkpt lat="42.28662" lon="1.83634">
        <ele>1265.47</ele>
        <time>2024-11-03T15:13:45Z</time>
      </trkpt>
      <trkpt lat="42.28665" lon="1.83636">
        <ele>1265.11</ele>
        <time>2024-11-03T15:13:48Z</time>
      </trkpt>
      <trkpt lat="42.28673" lon="1.83645">
        <ele>1262.4</ele>
        <time>2024-11-03T15:13:56Z</time>
      </trkpt>
      <trkpt lat="42.28685" lon="1.83659">
        <ele>1259.54</ele>
        <time>2024-11-03T15:14:08Z</time>
      </trkpt>
      <trkpt lat="42.28694" lon="1.83681">
        <ele>1256.23</ele>
        <time>2024-11-03T15:14:20Z</time>
      </trkpt>
      <trkpt lat="42.28705" lon="1.83717">
        <ele>1255.09</ele>
        <time>2024-11-03T15:14:35Z</time>
      </trkpt>
      <trkpt lat="42.2872" lon="1.83736">
        <ele>1251.81</ele>
        <time>2024-11-03T15:14:50Z</time>
      </trkpt>
      <trkpt lat="42.2872" lon="1.83738">
        <ele>1251.92</ele>
        <time>2024-11-03T15:14:51Z</time>
      </trkpt>
      <trkpt lat="42.28726" lon="1.83755">
        <ele>1248.59</ele>
        <time>2024-11-03T15:15:03Z</time>
      </trkpt>
      <trkpt lat="42.28728" lon="1.83764">
        <ele>1247.03</ele>
        <time>2024-11-03T15:15:10Z</time>
      </trkpt>
      <trkpt lat="42.28729" lon="1.8378">
        <ele>1245.61</ele>
        <time>2024-11-03T15:15:19Z</time>
      </trkpt>
      <trkpt lat="42.2873" lon="1.83784">
        <ele>1244.78</ele>
        <time>2024-11-03T15:15:22Z</time>
      </trkpt>
      <trkpt lat="42.28734" lon="1.83778">
        <ele>1242.91</ele>
        <time>2024-11-03T15:15:36Z</time>
      </trkpt>
      <trkpt lat="42.28732" lon="1.83762">
        <ele>1240.1</ele>
        <time>2024-11-03T15:15:47Z</time>
      </trkpt>
      <trkpt lat="42.28722" lon="1.83737">
        <ele>1236.78</ele>
        <time>2024-11-03T15:16:04Z</time>
      </trkpt>
      <trkpt lat="42.28721" lon="1.83734">
        <ele>1236.57</ele>
        <time>2024-11-03T15:16:06Z</time>
      </trkpt>
      <trkpt lat="42.28719" lon="1.83728">
        <ele>1236.28</ele>
        <time>2024-11-03T15:16:10Z</time>
      </trkpt>
      <trkpt lat="42.28718" lon="1.8372">
        <ele>1235.5</ele>
        <time>2024-11-03T15:16:15Z</time>
      </trkpt>
      <trkpt lat="42.28711" lon="1.83697">
        <ele>1231.99</ele>
        <time>2024-11-03T15:16:32Z</time>
      </trkpt>
      <trkpt lat="42.28709" lon="1.83673">
        <ele>1228.85</ele>
        <time>2024-11-03T15:16:46Z</time>
      </trkpt>
      <trkpt lat="42.28719" lon="1.8365">
        <ele>1227.65</ele>
        <time>2024-11-03T15:17:00Z</time>
      </trkpt>
      <trkpt lat="42.28721" lon="1.83648">
        <ele>1226.67</ele>
        <time>2024-11-03T15:17:02Z</time>
      </trkpt>
      <trkpt lat="42.28739" lon="1.8365">
        <ele>1223.56</ele>
        <time>2024-11-03T15:17:20Z</time>
      </trkpt>
      <trkpt lat="42.28767" lon="1.83649">
        <ele>1221.07</ele>
        <time>2024-11-03T15:17:40Z</time>
      </trkpt>
      <trkpt lat="42.28789" lon="1.83651">
        <ele>1218.52</ele>
        <time>2024-11-03T15:17:58Z</time>
      </trkpt>
      <trkpt lat="42.28808" lon="1.83651">
        <ele>1216.61</ele>
        <time>2024-11-03T15:18:14Z</time>
      </trkpt>
      <trkpt lat="42.28823" lon="1.83655">
        <ele>1214.73</ele>
        <time>2024-11-03T15:18:26Z</time>
      </trkpt>
      <trkpt lat="42.28835" lon="1.83657">
        <ele>1212.5</ele>
        <time>2024-11-03T15:18:36Z</time>
      </trkpt>
      <trkpt lat="42.28843" lon="1.83655">
        <ele>1212.17</ele>
        <time>2024-11-03T15:18:42Z</time>
      </trkpt>
      <trkpt lat="42.28847" lon="1.83655">
        <ele>1210.86</ele>
        <time>2024-11-03T15:18:44Z</time>
      </trkpt>
      <trkpt lat="42.28858" lon="1.83659">
        <ele>1209.87</ele>
        <time>2024-11-03T15:18:52Z</time>
      </trkpt>
      <trkpt lat="42.28855" lon="1.83668">
        <ele>1205.77</ele>
        <time>2024-11-03T15:19:04Z</time>
      </trkpt>
      <trkpt lat="42.2884" lon="1.83677">
        <ele>1202.62</ele>
        <time>2024-11-03T15:19:15Z</time>
      </trkpt>
      <trkpt lat="42.28833" lon="1.83685">
        <ele>1200.1</ele>
        <time>2024-11-03T15:19:24Z</time>
      </trkpt>
      <trkpt lat="42.2883" lon="1.83687">
        <ele>1200.42</ele>
        <time>2024-11-03T15:19:27Z</time>
      </trkpt>
      <trkpt lat="42.28817" lon="1.83701">
        <ele>1197.45</ele>
        <time>2024-11-03T15:19:42Z</time>
      </trkpt>
      <trkpt lat="42.2882" lon="1.83713">
        <ele>1194.52</ele>
        <time>2024-11-03T15:19:52Z</time>
      </trkpt>
      <trkpt lat="42.28827" lon="1.83715">
        <ele>1191.51</ele>
        <time>2024-11-03T15:20:04Z</time>
      </trkpt>
      <trkpt lat="42.28833" lon="1.83716">
        <ele>1190.13</ele>
        <time>2024-11-03T15:20:10Z</time>
      </trkpt>
      <trkpt lat="42.28844" lon="1.83723">
        <ele>1187.39</ele>
        <time>2024-11-03T15:20:21Z</time>
      </trkpt>
      <trkpt lat="42.28844" lon="1.83724">
        <ele>1187.63</ele>
        <time>2024-11-03T15:20:22Z</time>
      </trkpt>
      <trkpt lat="42.28854" lon="1.8373">
        <ele>1185.32</ele>
        <time>2024-11-03T15:20:32Z</time>
      </trkpt>
      <trkpt lat="42.28858" lon="1.83732">
        <ele>1184.06</ele>
        <time>2024-11-03T15:20:36Z</time>
      </trkpt>
      <trkpt lat="42.28865" lon="1.83736">
        <ele>1183.35</ele>
        <time>2024-11-03T15:20:42Z</time>
      </trkpt>
      <trkpt lat="42.28871" lon="1.83739">
        <ele>1182.11</ele>
        <time>2024-11-03T15:20:46Z</time>
      </trkpt>
      <trkpt lat="42.28878" lon="1.83742">
        <ele>1181.52</ele>
        <time>2024-11-03T15:20:52Z</time>
      </trkpt>
      <trkpt lat="42.28893" lon="1.83747">
        <ele>1178.53</ele>
        <time>2024-11-03T15:21:07Z</time>
      </trkpt>
      <trkpt lat="42.28899" lon="1.83765">
        <ele>1175.09</ele>
        <time>2024-11-03T15:21:22Z</time>
      </trkpt>
      <trkpt lat="42.28893" lon="1.83788">
        <ele>1173</ele>
        <time>2024-11-03T15:21:40Z</time>
      </trkpt>
      <trkpt lat="42.28885" lon="1.83814">
        <ele>1170.69</ele>
        <time>2024-11-03T15:22:00Z</time>
      </trkpt>
      <trkpt lat="42.28881" lon="1.8383">
        <ele>1168.22</ele>
        <time>2024-11-03T15:22:14Z</time>
      </trkpt>
      <trkpt lat="42.28878" lon="1.8385">
        <ele>1165.12</ele>
        <time>2024-11-03T15:22:28Z</time>
      </trkpt>
      <trkpt lat="42.28865" lon="1.83877">
        <ele>1164.14</ele>
        <time>2024-11-03T15:22:46Z</time>
      </trkpt>
      <trkpt lat="42.28847" lon="1.83892">
        <ele>1161.74</ele>
        <time>2024-11-03T15:23:03Z</time>
      </trkpt>
      <trkpt lat="42.28833" lon="1.8391">
        <ele>1158.3</ele>
        <time>2024-11-03T15:23:19Z</time>
      </trkpt>
      <trkpt lat="42.2882" lon="1.8393">
        <ele>1155.24</ele>
        <time>2024-11-03T15:23:35Z</time>
      </trkpt>
      <trkpt lat="42.28805" lon="1.83956">
        <ele>1151.95</ele>
        <time>2024-11-03T15:23:52Z</time>
      </trkpt>
      <trkpt lat="42.28795" lon="1.83977">
        <ele>1148.77</ele>
        <time>2024-11-03T15:24:06Z</time>
      </trkpt>
      <trkpt lat="42.28796" lon="1.83985">
        <ele>1147.52</ele>
        <time>2024-11-03T15:24:13Z</time>
      </trkpt>
      <trkpt lat="42.28807" lon="1.83986">
        <ele>1144.85</ele>
        <time>2024-11-03T15:24:27Z</time>
      </trkpt>
      <trkpt lat="42.28809" lon="1.83984">
        <ele>1143.87</ele>
        <time>2024-11-03T15:24:30Z</time>
      </trkpt>
      <trkpt lat="42.28816" lon="1.83978">
        <ele>1141.73</ele>
        <time>2024-11-03T15:24:44Z</time>
      </trkpt>
      <trkpt lat="42.28829" lon="1.83968">
        <ele>1141.23</ele>
        <time>2024-11-03T15:24:55Z</time>
      </trkpt>
      <trkpt lat="42.2884" lon="1.83959">
        <ele>1139.99</ele>
        <time>2024-11-03T15:25:04Z</time>
      </trkpt>
      <trkpt lat="42.28858" lon="1.83956">
        <ele>1136.27</ele>
        <time>2024-11-03T15:25:22Z</time>
      </trkpt>
      <trkpt lat="42.28853" lon="1.83965">
        <ele>1132.88</ele>
        <time>2024-11-03T15:25:32Z</time>
      </trkpt>
      <trkpt lat="42.2884" lon="1.83979">
        <ele>1130.58</ele>
        <time>2024-11-03T15:25:46Z</time>
      </trkpt>
      <trkpt lat="42.28835" lon="1.83999">
        <ele>1128.74</ele>
        <time>2024-11-03T15:25:59Z</time>
      </trkpt>
      <trkpt lat="42.28834" lon="1.84003">
        <ele>1127.15</ele>
        <time>2024-11-03T15:26:03Z</time>
      </trkpt>
      <trkpt lat="42.28826" lon="1.84024">
        <ele>1125.75</ele>
        <time>2024-11-03T15:26:08Z</time>
      </trkpt>
      <trkpt lat="42.2883" lon="1.84041">
        <ele>1122.88</ele>
        <time>2024-11-03T15:26:21Z</time>
      </trkpt>
      <trkpt lat="42.28845" lon="1.84052">
        <ele>1121.03</ele>
        <time>2024-11-03T15:26:38Z</time>
      </trkpt>
      <trkpt lat="42.28846" lon="1.84057">
        <ele>1120.95</ele>
        <time>2024-11-03T15:26:42Z</time>
      </trkpt>
      <trkpt lat="42.28844" lon="1.84068">
        <ele>1120.3</ele>
        <time>2024-11-03T15:26:52Z</time>
      </trkpt>
      <trkpt lat="42.28836" lon="1.8411">
        <ele>1118.43</ele>
        <time>2024-11-03T15:27:18Z</time>
      </trkpt>
      <trkpt lat="42.28825" lon="1.8414">
        <ele>1119.76</ele>
        <time>2024-11-03T15:27:39Z</time>
      </trkpt>
      <trkpt lat="42.2882" lon="1.84172">
        <ele>1117.33</ele>
        <time>2024-11-03T15:27:59Z</time>
      </trkpt>
      <trkpt lat="42.28816" lon="1.84209">
        <ele>1115.34</ele>
        <time>2024-11-03T15:28:18Z</time>
      </trkpt>
      <trkpt lat="42.28817" lon="1.84241">
        <ele>1115.43</ele>
        <time>2024-11-03T15:28:35Z</time>
      </trkpt>
      <trkpt lat="42.28826" lon="1.84268">
        <ele>1113.51</ele>
        <time>2024-11-03T15:28:52Z</time>
      </trkpt>
      <trkpt lat="42.28826" lon="1.8427">
        <ele>1113.44</ele>
        <time>2024-11-03T15:28:53Z</time>
      </trkpt>
      <trkpt lat="42.28832" lon="1.8428">
        <ele>1111.42</ele>
        <time>2024-11-03T15:28:59Z</time>
      </trkpt>
      <trkpt lat="42.28833" lon="1.84283">
        <ele>1111.51</ele>
        <time>2024-11-03T15:29:01Z</time>
      </trkpt>
      <trkpt lat="42.28835" lon="1.84288">
        <ele>1110.98</ele>
        <time>2024-11-03T15:29:04Z</time>
      </trkpt>
      <trkpt lat="42.2884" lon="1.84305">
        <ele>1110.08</ele>
        <time>2024-11-03T15:29:14Z</time>
      </trkpt>
      <trkpt lat="42.28833" lon="1.84311">
        <ele>1110.42</ele>
        <time>2024-11-03T15:29:22Z</time>
      </trkpt>
      <trkpt lat="42.28809" lon="1.84315">
        <ele>1109.51</ele>
        <time>2024-11-03T15:29:42Z</time>
      </trkpt>
      <trkpt lat="42.28779" lon="1.84321">
        <ele>1108.66</ele>
        <time>2024-11-03T15:30:04Z</time>
      </trkpt>
      <trkpt lat="42.28759" lon="1.84321">
        <ele>1105.28</ele>
        <time>2024-11-03T15:30:19Z</time>
      </trkpt>
      <trkpt lat="42.28742" lon="1.84332">
        <ele>1102.08</ele>
        <time>2024-11-03T15:30:34Z</time>
      </trkpt>
      <trkpt lat="42.2873" lon="1.84341">
        <ele>1100.19</ele>
        <time>2024-11-03T15:30:49Z</time>
      </trkpt>
      <trkpt lat="42.28717" lon="1.84357">
        <ele>1096.81</ele>
        <time>2024-11-03T15:31:03Z</time>
      </trkpt>
      <trkpt lat="42.287" lon="1.84378">
        <ele>1093.69</ele>
        <time>2024-11-03T15:31:17Z</time>
      </trkpt>
      <trkpt lat="42.28689" lon="1.84394">
        <ele>1090.58</ele>
        <time>2024-11-03T15:31:27Z</time>
      </trkpt>
      <trkpt lat="42.28687" lon="1.84395">
        <ele>1090.33</ele>
        <time>2024-11-03T15:31:28Z</time>
      </trkpt>
      <trkpt lat="42.28681" lon="1.84417">
        <ele>1088.66</ele>
        <time>2024-11-03T15:31:41Z</time>
      </trkpt>
      <trkpt lat="42.28668" lon="1.84447">
        <ele>1085.23</ele>
        <time>2024-11-03T15:32:00Z</time>
      </trkpt>
      <trkpt lat="42.28672" lon="1.84475">
        <ele>1083.35</ele>
        <time>2024-11-03T15:32:17Z</time>
      </trkpt>
      <trkpt lat="42.28664" lon="1.84499">
        <ele>1082.16</ele>
        <time>2024-11-03T15:32:32Z</time>
      </trkpt>
      <trkpt lat="42.28655" lon="1.84503">
        <ele>1081.34</ele>
        <time>2024-11-03T15:32:38Z</time>
      </trkpt>
      <trkpt lat="42.28632" lon="1.84519">
        <ele>1077.57</ele>
        <time>2024-11-03T15:32:56Z</time>
      </trkpt>
      <trkpt lat="42.28624" lon="1.84533">
        <ele>1076.55</ele>
        <time>2024-11-03T15:33:06Z</time>
      </trkpt>
      <trkpt lat="42.28622" lon="1.8454">
        <ele>1076.51</ele>
        <time>2024-11-03T15:33:11Z</time>
      </trkpt>
      <trkpt lat="42.28621" lon="1.84544">
        <ele>1076.06</ele>
        <time>2024-11-03T15:33:13Z</time>
      </trkpt>
      <trkpt lat="42.28613" lon="1.8457">
        <ele>1075.07</ele>
        <time>2024-11-03T15:33:27Z</time>
      </trkpt>
      <trkpt lat="42.28611" lon="1.84575">
        <ele>1075.12</ele>
        <time>2024-11-03T15:33:30Z</time>
      </trkpt>
      <trkpt lat="42.28594" lon="1.84624">
        <ele>1073.36</ele>
        <time>2024-11-03T15:33:55Z</time>
      </trkpt>
      <trkpt lat="42.28573" lon="1.84652">
        <ele>1071.67</ele>
        <time>2024-11-03T15:34:13Z</time>
      </trkpt>
      <trkpt lat="42.28563" lon="1.84666">
        <ele>1070.64</ele>
        <time>2024-11-03T15:34:22Z</time>
      </trkpt>
      <trkpt lat="42.28543" lon="1.84704">
        <ele>1066.93</ele>
        <time>2024-11-03T15:34:43Z</time>
      </trkpt>
      <trkpt lat="42.28524" lon="1.84729">
        <ele>1063.87</ele>
        <time>2024-11-03T15:35:02Z</time>
      </trkpt>
      <trkpt lat="42.28507" lon="1.84749">
        <ele>1060.61</ele>
        <time>2024-11-03T15:35:19Z</time>
      </trkpt>
      <trkpt lat="42.28484" lon="1.8477">
        <ele>1057.3</ele>
        <time>2024-11-03T15:35:40Z</time>
      </trkpt>
      <trkpt lat="42.2847" lon="1.84791">
        <ele>1056.14</ele>
        <time>2024-11-03T15:35:57Z</time>
      </trkpt>
      <trkpt lat="42.28468" lon="1.84795">
        <ele>1054.62</ele>
        <time>2024-11-03T15:36:00Z</time>
      </trkpt>
      <trkpt lat="42.28452" lon="1.84809">
        <ele>1052.7</ele>
        <time>2024-11-03T15:36:16Z</time>
      </trkpt>
      <trkpt lat="42.28426" lon="1.8481">
        <ele>1049.86</ele>
        <time>2024-11-03T15:36:36Z</time>
      </trkpt>
      <trkpt lat="42.28399" lon="1.84811">
        <ele>1047.3</ele>
        <time>2024-11-03T15:36:56Z</time>
      </trkpt>
      <trkpt lat="42.28377" lon="1.84807">
        <ele>1044.37</ele>
        <time>2024-11-03T15:37:14Z</time>
      </trkpt>
      <trkpt lat="42.28361" lon="1.84804">
        <ele>1041.92</ele>
        <time>2024-11-03T15:37:29Z</time>
      </trkpt>
      <trkpt lat="42.28349" lon="1.84798">
        <ele>1039.92</ele>
        <time>2024-11-03T15:37:40Z</time>
      </trkpt>
      <trkpt lat="42.28336" lon="1.84773">
        <ele>1036.4</ele>
        <time>2024-11-03T15:37:56Z</time>
      </trkpt>
      <trkpt lat="42.28335" lon="1.84746">
        <ele>1033.07</ele>
        <time>2024-11-03T15:38:12Z</time>
      </trkpt>
      <trkpt lat="42.28333" lon="1.84718">
        <ele>1029.95</ele>
        <time>2024-11-03T15:38:26Z</time>
      </trkpt>
      <trkpt lat="42.28336" lon="1.84702">
        <ele>1028.54</ele>
        <time>2024-11-03T15:38:35Z</time>
      </trkpt>
      <trkpt lat="42.28324" lon="1.84673">
        <ele>1024.78</ele>
        <time>2024-11-03T15:38:52Z</time>
      </trkpt>
      <trkpt lat="42.28311" lon="1.84676">
        <ele>1021.62</ele>
        <time>2024-11-03T15:39:04Z</time>
      </trkpt>
      <trkpt lat="42.28292" lon="1.8468">
        <ele>1018.55</ele>
        <time>2024-11-03T15:39:20Z</time>
      </trkpt>
      <trkpt lat="42.28287" lon="1.84683">
        <ele>1017.24</ele>
        <time>2024-11-03T15:39:25Z</time>
      </trkpt>
      <trkpt lat="42.2827" lon="1.84696">
        <ele>1014.18</ele>
        <time>2024-11-03T15:39:42Z</time>
      </trkpt>
      <trkpt lat="42.28259" lon="1.84707">
        <ele>1011.42</ele>
        <time>2024-11-03T15:39:54Z</time>
      </trkpt>
      <trkpt lat="42.28253" lon="1.84714">
        <ele>1009.57</ele>
        <time>2024-11-03T15:40:02Z</time>
      </trkpt>
      <trkpt lat="42.28244" lon="1.84735">
        <ele>1006.56</ele>
        <time>2024-11-03T15:40:20Z</time>
      </trkpt>
      <trkpt lat="42.2824" lon="1.84754">
        <ele>1003.46</ele>
        <time>2024-11-03T15:40:35Z</time>
      </trkpt>
      <trkpt lat="42.28231" lon="1.8478">
        <ele>1000.16</ele>
        <time>2024-11-03T15:40:51Z</time>
      </trkpt>
      <trkpt lat="42.28218" lon="1.84803">
        <ele>997.04</ele>
        <time>2024-11-03T15:41:08Z</time>
      </trkpt>
      <trkpt lat="42.28209" lon="1.84819">
        <ele>993.85</ele>
        <time>2024-11-03T15:41:21Z</time>
      </trkpt>
      <trkpt lat="42.28194" lon="1.84835">
        <ele>990.65</ele>
        <time>2024-11-03T15:41:37Z</time>
      </trkpt>
      <trkpt lat="42.28178" lon="1.84864">
        <ele>988.64</ele>
        <time>2024-11-03T15:41:58Z</time>
      </trkpt>
      <trkpt lat="42.2816" lon="1.84874">
        <ele>987.14</ele>
        <time>2024-11-03T15:42:14Z</time>
      </trkpt>
      <trkpt lat="42.2815" lon="1.84881">
        <ele>984.08</ele>
        <time>2024-11-03T15:42:26Z</time>
      </trkpt>
      <trkpt lat="42.28142" lon="1.84884">
        <ele>982.61</ele>
        <time>2024-11-03T15:42:34Z</time>
      </trkpt>
      <trkpt lat="42.28137" lon="1.84886">
        <ele>982.16</ele>
        <time>2024-11-03T15:42:38Z</time>
      </trkpt>
      <trkpt lat="42.28114" lon="1.84886">
        <ele>980.95</ele>
        <time>2024-11-03T15:42:56Z</time>
      </trkpt>
    </trkseg>
  </trk>
</gpx>